<?xml version="1.0" encoding="UTF-8" standalone="no" ?>
<gpx xmlns="http://www.topografix.com/GPX/1/1" xmlns:xsi="http://www.w3.org/2001/XMLSchema-instance" xsi:schemaLocation="http://www.topografix.com/GPX/1/1 http://www.topografix.com/GPX/1/1/gpx.xsd" version="1.1" creator="VisuGPX - https://www.visugpx.com">
  <metadata>
    <name>Haux - Madirac - Saint Genes de Lombeaud</name>
    <desc><![CDATA[Randonnée VTT]]></desc>
  </metadata>
  <trk>
    <name><![CDATA[Colinneau Haux Madirac st genes lombaux partie sud]]></name>
    <trkseg>
      <trkpt lat="44.75847" lon="-0.31339">
        <ele>109</ele>
        <time>2012-09-02T12:22:44Z</time>
      </trkpt>
      <trkpt lat="44.75857" lon="-0.3134">
        <ele>110</ele>
        <time>2012-09-02T12:22:48Z</time>
      </trkpt>
      <trkpt lat="44.7587" lon="-0.31343">
        <ele>110</ele>
        <time>2012-09-02T12:22:52Z</time>
      </trkpt>
      <trkpt lat="44.7588" lon="-0.31346">
        <ele>110</ele>
        <time>2012-09-02T12:22:55Z</time>
      </trkpt>
      <trkpt lat="44.7589" lon="-0.31345">
        <ele>110</ele>
        <time>2012-09-02T12:22:59Z</time>
      </trkpt>
      <trkpt lat="44.759" lon="-0.31347">
        <ele>110</ele>
        <time>2012-09-02T12:23:03Z</time>
      </trkpt>
      <trkpt lat="44.75927" lon="-0.31352">
        <ele>110</ele>
        <time>2012-09-02T12:23:14Z</time>
      </trkpt>
      <trkpt lat="44.75937" lon="-0.31354">
        <ele>110</ele>
        <time>2012-09-02T12:23:18Z</time>
      </trkpt>
      <trkpt lat="44.75948" lon="-0.31356">
        <ele>110</ele>
        <time>2012-09-02T12:23:22Z</time>
      </trkpt>
      <trkpt lat="44.75961" lon="-0.31358">
        <ele>110</ele>
        <time>2012-09-02T12:23:26Z</time>
      </trkpt>
      <trkpt lat="44.75973" lon="-0.3136">
        <ele>110</ele>
        <time>2012-09-02T12:23:30Z</time>
      </trkpt>
      <trkpt lat="44.75985" lon="-0.31363">
        <ele>110</ele>
        <time>2012-09-02T12:23:34Z</time>
      </trkpt>
      <trkpt lat="44.75994" lon="-0.31365">
        <ele>110</ele>
        <time>2012-09-02T12:23:37Z</time>
      </trkpt>
      <trkpt lat="44.76005" lon="-0.31367">
        <ele>110</ele>
        <time>2012-09-02T12:23:40Z</time>
      </trkpt>
      <trkpt lat="44.76015" lon="-0.31367">
        <ele>110</ele>
        <time>2012-09-02T12:23:43Z</time>
      </trkpt>
      <trkpt lat="44.76023" lon="-0.31377">
        <ele>110</ele>
        <time>2012-09-02T12:23:53Z</time>
      </trkpt>
      <trkpt lat="44.76022" lon="-0.31392">
        <ele>109</ele>
        <time>2012-09-02T12:23:57Z</time>
      </trkpt>
      <trkpt lat="44.76018" lon="-0.31406">
        <ele>109</ele>
        <time>2012-09-02T12:24:00Z</time>
      </trkpt>
      <trkpt lat="44.76016" lon="-0.31424">
        <ele>108</ele>
        <time>2012-09-02T12:24:03Z</time>
      </trkpt>
      <trkpt lat="44.76015" lon="-0.31437">
        <ele>108</ele>
        <time>2012-09-02T12:24:05Z</time>
      </trkpt>
      <trkpt lat="44.76014" lon="-0.31451">
        <ele>108</ele>
        <time>2012-09-02T12:24:07Z</time>
      </trkpt>
      <trkpt lat="44.76012" lon="-0.3147">
        <ele>107</ele>
        <time>2012-09-02T12:24:10Z</time>
      </trkpt>
      <trkpt lat="44.76009" lon="-0.31488">
        <ele>107</ele>
        <time>2012-09-02T12:24:13Z</time>
      </trkpt>
      <trkpt lat="44.76008" lon="-0.31505">
        <ele>107</ele>
        <time>2012-09-02T12:24:16Z</time>
      </trkpt>
      <trkpt lat="44.76005" lon="-0.31518">
        <ele>107</ele>
        <time>2012-09-02T12:24:19Z</time>
      </trkpt>
      <trkpt lat="44.76004" lon="-0.31532">
        <ele>107</ele>
        <time>2012-09-02T12:24:22Z</time>
      </trkpt>
      <trkpt lat="44.76002" lon="-0.31547">
        <ele>107</ele>
        <time>2012-09-02T12:24:26Z</time>
      </trkpt>
      <trkpt lat="44.76" lon="-0.31564">
        <ele>107</ele>
        <time>2012-09-02T12:24:30Z</time>
      </trkpt>
      <trkpt lat="44.75998" lon="-0.31578">
        <ele>108</ele>
        <time>2012-09-02T12:24:33Z</time>
      </trkpt>
      <trkpt lat="44.75996" lon="-0.31591">
        <ele>108</ele>
        <time>2012-09-02T12:24:36Z</time>
      </trkpt>
      <trkpt lat="44.75995" lon="-0.31605">
        <ele>108</ele>
        <time>2012-09-02T12:24:39Z</time>
      </trkpt>
      <trkpt lat="44.75994" lon="-0.31621">
        <ele>108</ele>
        <time>2012-09-02T12:24:42Z</time>
      </trkpt>
      <trkpt lat="44.75992" lon="-0.31635">
        <ele>108</ele>
        <time>2012-09-02T12:24:45Z</time>
      </trkpt>
      <trkpt lat="44.75989" lon="-0.31648">
        <ele>108</ele>
        <time>2012-09-02T12:24:48Z</time>
      </trkpt>
      <trkpt lat="44.75984" lon="-0.3166">
        <ele>108</ele>
        <time>2012-09-02T12:24:51Z</time>
      </trkpt>
      <trkpt lat="44.75978" lon="-0.31672">
        <ele>109</ele>
        <time>2012-09-02T12:24:54Z</time>
      </trkpt>
      <trkpt lat="44.7597" lon="-0.31682">
        <ele>109</ele>
        <time>2012-09-02T12:24:57Z</time>
      </trkpt>
      <trkpt lat="44.75963" lon="-0.31693">
        <ele>109</ele>
        <time>2012-09-02T12:25:00Z</time>
      </trkpt>
      <trkpt lat="44.75956" lon="-0.31704">
        <ele>109</ele>
        <time>2012-09-02T12:25:03Z</time>
      </trkpt>
      <trkpt lat="44.7595" lon="-0.31719">
        <ele>109</ele>
        <time>2012-09-02T12:25:06Z</time>
      </trkpt>
      <trkpt lat="44.75946" lon="-0.31732">
        <ele>109</ele>
        <time>2012-09-02T12:25:09Z</time>
      </trkpt>
      <trkpt lat="44.75943" lon="-0.31746">
        <ele>109</ele>
        <time>2012-09-02T12:25:12Z</time>
      </trkpt>
      <trkpt lat="44.75939" lon="-0.3176">
        <ele>108</ele>
        <time>2012-09-02T12:25:15Z</time>
      </trkpt>
      <trkpt lat="44.75937" lon="-0.31774">
        <ele>108</ele>
        <time>2012-09-02T12:25:18Z</time>
      </trkpt>
      <trkpt lat="44.75934" lon="-0.3179">
        <ele>108</ele>
        <time>2012-09-02T12:25:21Z</time>
      </trkpt>
      <trkpt lat="44.75932" lon="-0.31804">
        <ele>107</ele>
        <time>2012-09-02T12:25:24Z</time>
      </trkpt>
      <trkpt lat="44.7593" lon="-0.31818">
        <ele>107</ele>
        <time>2012-09-02T12:25:27Z</time>
      </trkpt>
      <trkpt lat="44.75929" lon="-0.31833">
        <ele>107</ele>
        <time>2012-09-02T12:25:30Z</time>
      </trkpt>
      <trkpt lat="44.75929" lon="-0.31849">
        <ele>107</ele>
        <time>2012-09-02T12:25:34Z</time>
      </trkpt>
      <trkpt lat="44.75929" lon="-0.31862">
        <ele>107</ele>
        <time>2012-09-02T12:25:37Z</time>
      </trkpt>
      <trkpt lat="44.75927" lon="-0.31878">
        <ele>107</ele>
        <time>2012-09-02T12:25:40Z</time>
      </trkpt>
      <trkpt lat="44.75927" lon="-0.31893">
        <ele>107</ele>
        <time>2012-09-02T12:25:43Z</time>
      </trkpt>
      <trkpt lat="44.75929" lon="-0.31906">
        <ele>107</ele>
        <time>2012-09-02T12:25:46Z</time>
      </trkpt>
      <trkpt lat="44.75931" lon="-0.31923">
        <ele>107</ele>
        <time>2012-09-02T12:25:50Z</time>
      </trkpt>
      <trkpt lat="44.75934" lon="-0.31935">
        <ele>108</ele>
        <time>2012-09-02T12:25:53Z</time>
      </trkpt>
      <trkpt lat="44.75935" lon="-0.3195">
        <ele>108</ele>
        <time>2012-09-02T12:25:56Z</time>
      </trkpt>
      <trkpt lat="44.75935" lon="-0.31965">
        <ele>108</ele>
        <time>2012-09-02T12:25:59Z</time>
      </trkpt>
      <trkpt lat="44.75934" lon="-0.31982">
        <ele>108</ele>
        <time>2012-09-02T12:26:02Z</time>
      </trkpt>
      <trkpt lat="44.75934" lon="-0.31996">
        <ele>108</ele>
        <time>2012-09-02T12:26:05Z</time>
      </trkpt>
      <trkpt lat="44.75934" lon="-0.32011">
        <ele>107</ele>
        <time>2012-09-02T12:26:08Z</time>
      </trkpt>
      <trkpt lat="44.75932" lon="-0.32029">
        <ele>107</ele>
        <time>2012-09-02T12:26:10Z</time>
      </trkpt>
      <trkpt lat="44.75931" lon="-0.32046">
        <ele>107</ele>
        <time>2012-09-02T12:26:13Z</time>
      </trkpt>
      <trkpt lat="44.75929" lon="-0.32061">
        <ele>107</ele>
        <time>2012-09-02T12:26:16Z</time>
      </trkpt>
      <trkpt lat="44.75927" lon="-0.32076">
        <ele>107</ele>
        <time>2012-09-02T12:26:19Z</time>
      </trkpt>
      <trkpt lat="44.75925" lon="-0.32092">
        <ele>107</ele>
        <time>2012-09-02T12:26:22Z</time>
      </trkpt>
      <trkpt lat="44.75924" lon="-0.32108">
        <ele>107</ele>
        <time>2012-09-02T12:26:25Z</time>
      </trkpt>
      <trkpt lat="44.75923" lon="-0.32122">
        <ele>107</ele>
        <time>2012-09-02T12:26:28Z</time>
      </trkpt>
      <trkpt lat="44.75921" lon="-0.32138">
        <ele>107</ele>
        <time>2012-09-02T12:26:31Z</time>
      </trkpt>
      <trkpt lat="44.75918" lon="-0.32155">
        <ele>107</ele>
        <time>2012-09-02T12:26:34Z</time>
      </trkpt>
      <trkpt lat="44.75916" lon="-0.32171">
        <ele>107</ele>
        <time>2012-09-02T12:26:37Z</time>
      </trkpt>
      <trkpt lat="44.75913" lon="-0.32186">
        <ele>107</ele>
        <time>2012-09-02T12:26:40Z</time>
      </trkpt>
      <trkpt lat="44.75909" lon="-0.32201">
        <ele>107</ele>
        <time>2012-09-02T12:26:43Z</time>
      </trkpt>
      <trkpt lat="44.75904" lon="-0.32215">
        <ele>107</ele>
        <time>2012-09-02T12:47:46Z</time>
      </trkpt>
      <trkpt lat="44.75898" lon="-0.3223">
        <ele>107</ele>
        <time>2012-09-02T12:26:49Z</time>
      </trkpt>
      <trkpt lat="44.75893" lon="-0.32244">
        <ele>107</ele>
        <time>2012-09-02T12:26:52Z</time>
      </trkpt>
      <trkpt lat="44.75887" lon="-0.32259">
        <ele>107</ele>
        <time>2012-09-02T12:26:55Z</time>
      </trkpt>
      <trkpt lat="44.75881" lon="-0.32276">
        <ele>107</ele>
        <time>2012-09-02T12:26:58Z</time>
      </trkpt>
      <trkpt lat="44.75875" lon="-0.32293">
        <ele>106</ele>
        <time>2012-09-02T12:27:01Z</time>
      </trkpt>
      <trkpt lat="44.75872" lon="-0.32305">
        <ele>106</ele>
        <time>2012-09-02T12:27:03Z</time>
      </trkpt>
      <trkpt lat="44.75868" lon="-0.32323">
        <ele>106</ele>
        <time>2012-09-02T12:27:06Z</time>
      </trkpt>
      <trkpt lat="44.75866" lon="-0.32336">
        <ele>105</ele>
        <time>2012-09-02T12:27:08Z</time>
      </trkpt>
      <trkpt lat="44.75862" lon="-0.32354">
        <ele>105</ele>
        <time>2012-09-02T12:27:11Z</time>
      </trkpt>
      <trkpt lat="44.75859" lon="-0.32366">
        <ele>104</ele>
        <time>2012-09-02T12:27:13Z</time>
      </trkpt>
      <trkpt lat="44.75857" lon="-0.32385">
        <ele>104</ele>
        <time>2012-09-02T12:27:16Z</time>
      </trkpt>
      <trkpt lat="44.75855" lon="-0.32402">
        <ele>105</ele>
        <time>2012-09-02T12:27:19Z</time>
      </trkpt>
      <trkpt lat="44.75852" lon="-0.32422">
        <ele>105</ele>
        <time>2012-09-02T12:27:22Z</time>
      </trkpt>
      <trkpt lat="44.75849" lon="-0.32435">
        <ele>105</ele>
        <time>2012-09-02T12:27:24Z</time>
      </trkpt>
      <trkpt lat="44.75847" lon="-0.32448">
        <ele>105</ele>
        <time>2012-09-02T12:27:26Z</time>
      </trkpt>
      <trkpt lat="44.75844" lon="-0.32462">
        <ele>105</ele>
        <time>2012-09-02T12:27:28Z</time>
      </trkpt>
      <trkpt lat="44.75841" lon="-0.32474">
        <ele>104</ele>
        <time>2012-09-02T12:27:30Z</time>
      </trkpt>
      <trkpt lat="44.75837" lon="-0.32487">
        <ele>104</ele>
        <time>2012-09-02T12:27:32Z</time>
      </trkpt>
      <trkpt lat="44.75833" lon="-0.32499">
        <ele>104</ele>
        <time>2012-09-02T12:27:34Z</time>
      </trkpt>
      <trkpt lat="44.75829" lon="-0.32513">
        <ele>104</ele>
        <time>2012-09-02T12:27:36Z</time>
      </trkpt>
      <trkpt lat="44.75824" lon="-0.32525">
        <ele>104</ele>
        <time>2012-09-02T12:27:38Z</time>
      </trkpt>
      <trkpt lat="44.7582" lon="-0.32538">
        <ele>104</ele>
        <time>2012-09-02T12:27:40Z</time>
      </trkpt>
      <trkpt lat="44.75815" lon="-0.32555">
        <ele>103</ele>
        <time>2012-09-02T12:27:43Z</time>
      </trkpt>
      <trkpt lat="44.75808" lon="-0.32572">
        <ele>103</ele>
        <time>2012-09-02T12:27:46Z</time>
      </trkpt>
      <trkpt lat="44.75804" lon="-0.32585">
        <ele>103</ele>
        <time>2012-09-02T12:27:48Z</time>
      </trkpt>
      <trkpt lat="44.75799" lon="-0.32601">
        <ele>102</ele>
        <time>2012-09-02T12:27:51Z</time>
      </trkpt>
      <trkpt lat="44.75792" lon="-0.32617">
        <ele>101</ele>
        <time>2012-09-02T12:27:54Z</time>
      </trkpt>
      <trkpt lat="44.75786" lon="-0.32632">
        <ele>101</ele>
        <time>2012-09-02T12:27:57Z</time>
      </trkpt>
      <trkpt lat="44.7578" lon="-0.32648">
        <ele>101</ele>
        <time>2012-09-02T12:28:00Z</time>
      </trkpt>
      <trkpt lat="44.75774" lon="-0.32665">
        <ele>101</ele>
        <time>2012-09-02T12:28:03Z</time>
      </trkpt>
      <trkpt lat="44.75769" lon="-0.32677">
        <ele>100</ele>
        <time>2012-09-02T12:28:05Z</time>
      </trkpt>
      <trkpt lat="44.75764" lon="-0.32693">
        <ele>101</ele>
        <time>2012-09-02T12:28:08Z</time>
      </trkpt>
      <trkpt lat="44.7576" lon="-0.3271">
        <ele>101</ele>
        <time>2012-09-02T12:28:11Z</time>
      </trkpt>
      <trkpt lat="44.75754" lon="-0.32725">
        <ele>101</ele>
        <time>2012-09-02T12:28:14Z</time>
      </trkpt>
      <trkpt lat="44.75749" lon="-0.32741">
        <ele>102</ele>
        <time>2012-09-02T12:28:17Z</time>
      </trkpt>
      <trkpt lat="44.75742" lon="-0.32756">
        <ele>103</ele>
        <time>2012-09-02T12:28:20Z</time>
      </trkpt>
      <trkpt lat="44.75735" lon="-0.32767">
        <ele>103</ele>
        <time>2012-09-02T12:28:22Z</time>
      </trkpt>
      <trkpt lat="44.75726" lon="-0.3278">
        <ele>104</ele>
        <time>2012-09-02T12:28:25Z</time>
      </trkpt>
      <trkpt lat="44.75715" lon="-0.32792">
        <ele>105</ele>
        <time>2012-09-02T12:28:28Z</time>
      </trkpt>
      <trkpt lat="44.75706" lon="-0.32799">
        <ele>105</ele>
        <time>2012-09-02T12:28:30Z</time>
      </trkpt>
      <trkpt lat="44.75696" lon="-0.32808">
        <ele>106</ele>
        <time>2012-09-02T12:28:33Z</time>
      </trkpt>
      <trkpt lat="44.75687" lon="-0.32817">
        <ele>106</ele>
        <time>2012-09-02T12:28:36Z</time>
      </trkpt>
      <trkpt lat="44.75681" lon="-0.32828">
        <ele>106</ele>
        <time>2012-09-02T12:28:39Z</time>
      </trkpt>
      <trkpt lat="44.75683" lon="-0.32843">
        <ele>107</ele>
        <time>2012-09-02T12:28:43Z</time>
      </trkpt>
      <trkpt lat="44.7569" lon="-0.32853">
        <ele>107</ele>
        <time>2012-09-02T12:28:46Z</time>
      </trkpt>
      <trkpt lat="44.75699" lon="-0.32862">
        <ele>107</ele>
        <time>2012-09-02T12:28:49Z</time>
      </trkpt>
      <trkpt lat="44.75709" lon="-0.32871">
        <ele>107</ele>
        <time>2012-09-02T12:28:52Z</time>
      </trkpt>
      <trkpt lat="44.75719" lon="-0.32881">
        <ele>107</ele>
        <time>2012-09-02T12:28:55Z</time>
      </trkpt>
      <trkpt lat="44.75728" lon="-0.32891">
        <ele>107</ele>
        <time>2012-09-02T12:28:58Z</time>
      </trkpt>
      <trkpt lat="44.75736" lon="-0.329">
        <ele>107</ele>
        <time>2012-09-02T12:29:01Z</time>
      </trkpt>
      <trkpt lat="44.75746" lon="-0.32907">
        <ele>107</ele>
        <time>2012-09-02T12:29:04Z</time>
      </trkpt>
      <trkpt lat="44.75756" lon="-0.32912">
        <ele>107</ele>
        <time>2012-09-02T12:29:07Z</time>
      </trkpt>
      <trkpt lat="44.75768" lon="-0.32915">
        <ele>107</ele>
        <time>2012-09-02T12:29:10Z</time>
      </trkpt>
      <trkpt lat="44.75779" lon="-0.32919">
        <ele>107</ele>
        <time>2012-09-02T12:29:13Z</time>
      </trkpt>
      <trkpt lat="44.75791" lon="-0.3292">
        <ele>107</ele>
        <time>2012-09-02T12:29:16Z</time>
      </trkpt>
      <trkpt lat="44.75802" lon="-0.32921">
        <ele>107</ele>
        <time>2012-09-02T12:29:19Z</time>
      </trkpt>
      <trkpt lat="44.75809" lon="-0.32933">
        <ele>107</ele>
        <time>2012-09-02T12:29:22Z</time>
      </trkpt>
      <trkpt lat="44.75811" lon="-0.32948">
        <ele>107</ele>
        <time>2012-09-02T12:29:25Z</time>
      </trkpt>
      <trkpt lat="44.75813" lon="-0.32966">
        <ele>107</ele>
        <time>2012-09-02T12:29:28Z</time>
      </trkpt>
      <trkpt lat="44.75816" lon="-0.32983">
        <ele>107</ele>
        <time>2012-09-02T12:29:31Z</time>
      </trkpt>
      <trkpt lat="44.75821" lon="-0.32998">
        <ele>107</ele>
        <time>2012-09-02T12:29:34Z</time>
      </trkpt>
      <trkpt lat="44.75826" lon="-0.33014">
        <ele>106</ele>
        <time>2012-09-02T12:29:37Z</time>
      </trkpt>
      <trkpt lat="44.75834" lon="-0.33027">
        <ele>106</ele>
        <time>2012-09-02T12:29:41Z</time>
      </trkpt>
      <trkpt lat="44.75843" lon="-0.33034">
        <ele>106</ele>
        <time>2012-09-02T12:29:44Z</time>
      </trkpt>
      <trkpt lat="44.75852" lon="-0.3304">
        <ele>106</ele>
        <time>2012-09-02T12:29:47Z</time>
      </trkpt>
      <trkpt lat="44.75861" lon="-0.33049">
        <ele>106</ele>
        <time>2012-09-02T12:29:50Z</time>
      </trkpt>
      <trkpt lat="44.75869" lon="-0.3306">
        <ele>106</ele>
        <time>2012-09-02T12:29:53Z</time>
      </trkpt>
      <trkpt lat="44.75877" lon="-0.33072">
        <ele>106</ele>
        <time>2012-09-02T12:29:56Z</time>
      </trkpt>
      <trkpt lat="44.75886" lon="-0.33081">
        <ele>106</ele>
        <time>2012-09-02T12:29:59Z</time>
      </trkpt>
      <trkpt lat="44.75894" lon="-0.33093">
        <ele>106</ele>
        <time>2012-09-02T12:30:02Z</time>
      </trkpt>
      <trkpt lat="44.75902" lon="-0.33105">
        <ele>106</ele>
        <time>2012-09-02T12:30:05Z</time>
      </trkpt>
      <trkpt lat="44.75909" lon="-0.33116">
        <ele>106</ele>
        <time>2012-09-02T12:30:08Z</time>
      </trkpt>
      <trkpt lat="44.75916" lon="-0.33132">
        <ele>106</ele>
        <time>2012-09-02T12:30:11Z</time>
      </trkpt>
      <trkpt lat="44.75919" lon="-0.33147">
        <ele>106</ele>
        <time>2012-09-02T12:30:14Z</time>
      </trkpt>
      <trkpt lat="44.75924" lon="-0.33161">
        <ele>106</ele>
        <time>2012-09-02T12:30:17Z</time>
      </trkpt>
      <trkpt lat="44.7593" lon="-0.33175">
        <ele>105</ele>
        <time>2012-09-02T12:30:20Z</time>
      </trkpt>
      <trkpt lat="44.75933" lon="-0.3319">
        <ele>105</ele>
        <time>2012-09-02T12:30:23Z</time>
      </trkpt>
      <trkpt lat="44.75936" lon="-0.33206">
        <ele>105</ele>
        <time>2012-09-02T12:30:26Z</time>
      </trkpt>
      <trkpt lat="44.75941" lon="-0.33222">
        <ele>105</ele>
        <time>2012-09-02T12:30:29Z</time>
      </trkpt>
      <trkpt lat="44.75946" lon="-0.33238">
        <ele>105</ele>
        <time>2012-09-02T12:30:32Z</time>
      </trkpt>
      <trkpt lat="44.7595" lon="-0.33254">
        <ele>105</ele>
        <time>2012-09-02T12:30:35Z</time>
      </trkpt>
      <trkpt lat="44.75952" lon="-0.33273">
        <ele>105</ele>
        <time>2012-09-02T12:30:38Z</time>
      </trkpt>
      <trkpt lat="44.75952" lon="-0.33293">
        <ele>105</ele>
        <time>2012-09-02T12:30:41Z</time>
      </trkpt>
      <trkpt lat="44.75952" lon="-0.3331">
        <ele>104</ele>
        <time>2012-09-02T12:30:44Z</time>
      </trkpt>
      <trkpt lat="44.75953" lon="-0.33328">
        <ele>104</ele>
        <time>2012-09-02T12:30:47Z</time>
      </trkpt>
      <trkpt lat="44.75955" lon="-0.33343">
        <ele>104</ele>
        <time>2012-09-02T12:30:50Z</time>
      </trkpt>
      <trkpt lat="44.75955" lon="-0.33361">
        <ele>104</ele>
        <time>2012-09-02T12:30:53Z</time>
      </trkpt>
      <trkpt lat="44.75957" lon="-0.33378">
        <ele>104</ele>
        <time>2012-09-02T12:30:56Z</time>
      </trkpt>
      <trkpt lat="44.75957" lon="-0.33391">
        <ele>104</ele>
        <time>2012-09-02T12:30:58Z</time>
      </trkpt>
      <trkpt lat="44.75957" lon="-0.33405">
        <ele>103</ele>
        <time>2012-09-02T12:31:00Z</time>
      </trkpt>
      <trkpt lat="44.75957" lon="-0.33423">
        <ele>103</ele>
        <time>2012-09-02T12:31:03Z</time>
      </trkpt>
      <trkpt lat="44.75955" lon="-0.33441">
        <ele>102</ele>
        <time>2012-09-02T12:31:06Z</time>
      </trkpt>
      <trkpt lat="44.75954" lon="-0.3346">
        <ele>102</ele>
        <time>2012-09-02T12:31:09Z</time>
      </trkpt>
      <trkpt lat="44.75952" lon="-0.33478">
        <ele>101</ele>
        <time>2012-09-02T12:31:12Z</time>
      </trkpt>
      <trkpt lat="44.75951" lon="-0.33492">
        <ele>101</ele>
        <time>2012-09-02T12:31:14Z</time>
      </trkpt>
      <trkpt lat="44.75949" lon="-0.33506">
        <ele>101</ele>
        <time>2012-09-02T12:31:16Z</time>
      </trkpt>
      <trkpt lat="44.75948" lon="-0.3352">
        <ele>101</ele>
        <time>2012-09-02T12:31:18Z</time>
      </trkpt>
      <trkpt lat="44.75946" lon="-0.33539">
        <ele>101</ele>
        <time>2012-09-02T12:31:21Z</time>
      </trkpt>
      <trkpt lat="44.75944" lon="-0.33552">
        <ele>101</ele>
        <time>2012-09-02T12:31:23Z</time>
      </trkpt>
      <trkpt lat="44.75943" lon="-0.3357">
        <ele>101</ele>
        <time>2012-09-02T12:31:26Z</time>
      </trkpt>
      <trkpt lat="44.75942" lon="-0.33587">
        <ele>100</ele>
        <time>2012-09-02T12:31:29Z</time>
      </trkpt>
      <trkpt lat="44.75941" lon="-0.33605">
        <ele>100</ele>
        <time>2012-09-02T12:31:32Z</time>
      </trkpt>
      <trkpt lat="44.75939" lon="-0.33622">
        <ele>100</ele>
        <time>2012-09-02T12:31:35Z</time>
      </trkpt>
      <trkpt lat="44.75939" lon="-0.3364">
        <ele>100</ele>
        <time>2012-09-02T12:31:39Z</time>
      </trkpt>
      <trkpt lat="44.75937" lon="-0.33655">
        <ele>99</ele>
        <time>2012-09-02T12:31:42Z</time>
      </trkpt>
      <trkpt lat="44.75936" lon="-0.33672">
        <ele>99</ele>
        <time>2012-09-02T12:31:46Z</time>
      </trkpt>
      <trkpt lat="44.75935" lon="-0.33686">
        <ele>98</ele>
        <time>2012-09-02T12:31:50Z</time>
      </trkpt>
      <trkpt lat="44.75937" lon="-0.33702">
        <ele>98</ele>
        <time>2012-09-02T12:31:54Z</time>
      </trkpt>
      <trkpt lat="44.75941" lon="-0.33717">
        <ele>98</ele>
        <time>2012-09-02T12:31:57Z</time>
      </trkpt>
      <trkpt lat="44.75945" lon="-0.33731">
        <ele>98</ele>
        <time>2012-09-02T12:32:00Z</time>
      </trkpt>
      <trkpt lat="44.75941" lon="-0.33743">
        <ele>98</ele>
        <time>2012-09-02T12:32:03Z</time>
      </trkpt>
      <trkpt lat="44.75934" lon="-0.33753">
        <ele>97</ele>
        <time>2012-09-02T12:32:06Z</time>
      </trkpt>
      <trkpt lat="44.75923" lon="-0.33757">
        <ele>97</ele>
        <time>2012-09-02T12:32:10Z</time>
      </trkpt>
      <trkpt lat="44.75914" lon="-0.33752">
        <ele>96</ele>
        <time>2012-09-02T12:32:13Z</time>
      </trkpt>
      <trkpt lat="44.759" lon="-0.33749">
        <ele>95</ele>
        <time>2012-09-02T12:32:16Z</time>
      </trkpt>
      <trkpt lat="44.75889" lon="-0.33752">
        <ele>93</ele>
        <time>2012-09-02T12:32:18Z</time>
      </trkpt>
      <trkpt lat="44.75878" lon="-0.33755">
        <ele>91</ele>
        <time>2012-09-02T12:32:20Z</time>
      </trkpt>
      <trkpt lat="44.75865" lon="-0.3376">
        <ele>89</ele>
        <time>2012-09-02T12:32:22Z</time>
      </trkpt>
      <trkpt lat="44.75854" lon="-0.33767">
        <ele>87</ele>
        <time>2012-09-02T12:32:24Z</time>
      </trkpt>
      <trkpt lat="44.75843" lon="-0.3377">
        <ele>84</ele>
        <time>2012-09-02T12:32:26Z</time>
      </trkpt>
      <trkpt lat="44.75831" lon="-0.33774">
        <ele>82</ele>
        <time>2012-09-02T12:32:28Z</time>
      </trkpt>
      <trkpt lat="44.75818" lon="-0.33776">
        <ele>80</ele>
        <time>2012-09-02T12:32:30Z</time>
      </trkpt>
      <trkpt lat="44.75808" lon="-0.33775">
        <ele>79</ele>
        <time>2012-09-02T12:32:32Z</time>
      </trkpt>
      <trkpt lat="44.75799" lon="-0.33779">
        <ele>78</ele>
        <time>2012-09-02T12:32:35Z</time>
      </trkpt>
      <trkpt lat="44.75796" lon="-0.33793">
        <ele>77</ele>
        <time>2012-09-02T12:32:38Z</time>
      </trkpt>
      <trkpt lat="44.75795" lon="-0.33811">
        <ele>77</ele>
        <time>2012-09-02T12:32:41Z</time>
      </trkpt>
      <trkpt lat="44.75794" lon="-0.33825">
        <ele>76</ele>
        <time>2012-09-02T12:32:43Z</time>
      </trkpt>
      <trkpt lat="44.75795" lon="-0.33839">
        <ele>76</ele>
        <time>2012-09-02T12:32:45Z</time>
      </trkpt>
      <trkpt lat="44.75797" lon="-0.33858">
        <ele>76</ele>
        <time>2012-09-02T12:32:48Z</time>
      </trkpt>
      <trkpt lat="44.75793" lon="-0.33873">
        <ele>75</ele>
        <time>2012-09-02T12:32:51Z</time>
      </trkpt>
      <trkpt lat="44.75787" lon="-0.33885">
        <ele>74</ele>
        <time>2012-09-02T12:32:54Z</time>
      </trkpt>
      <trkpt lat="44.75784" lon="-0.339">
        <ele>73</ele>
        <time>2012-09-02T12:32:57Z</time>
      </trkpt>
      <trkpt lat="44.75778" lon="-0.33916">
        <ele>72</ele>
        <time>2012-09-02T12:33:01Z</time>
      </trkpt>
      <trkpt lat="44.75774" lon="-0.3393">
        <ele>72</ele>
        <time>2012-09-02T12:33:05Z</time>
      </trkpt>
      <trkpt lat="44.75773" lon="-0.33944">
        <ele>71</ele>
        <time>2012-09-02T12:33:08Z</time>
      </trkpt>
      <trkpt lat="44.75769" lon="-0.33957">
        <ele>71</ele>
        <time>2012-09-02T12:33:10Z</time>
      </trkpt>
      <trkpt lat="44.75769" lon="-0.33974">
        <ele>71</ele>
        <time>2012-09-02T12:33:13Z</time>
      </trkpt>
      <trkpt lat="44.75767" lon="-0.33987">
        <ele>70</ele>
        <time>2012-09-02T12:33:15Z</time>
      </trkpt>
      <trkpt lat="44.75767" lon="-0.34007">
        <ele>70</ele>
        <time>2012-09-02T12:33:19Z</time>
      </trkpt>
      <trkpt lat="44.75769" lon="-0.34025">
        <ele>70</ele>
        <time>2012-09-02T12:33:22Z</time>
      </trkpt>
      <trkpt lat="44.75768" lon="-0.34044">
        <ele>69</ele>
        <time>2012-09-02T12:33:25Z</time>
      </trkpt>
      <trkpt lat="44.75766" lon="-0.34061">
        <ele>68</ele>
        <time>2012-09-02T12:33:29Z</time>
      </trkpt>
      <trkpt lat="44.75765" lon="-0.34075">
        <ele>68</ele>
        <time>2012-09-02T12:33:32Z</time>
      </trkpt>
      <trkpt lat="44.75769" lon="-0.34093">
        <ele>67</ele>
        <time>2012-09-02T12:33:35Z</time>
      </trkpt>
      <trkpt lat="44.75774" lon="-0.34106">
        <ele>67</ele>
        <time>2012-09-02T12:33:39Z</time>
      </trkpt>
      <trkpt lat="44.75777" lon="-0.34123">
        <ele>67</ele>
        <time>2012-09-02T12:33:44Z</time>
      </trkpt>
      <trkpt lat="44.75784" lon="-0.34132">
        <ele>67</ele>
        <time>2012-09-02T12:33:47Z</time>
      </trkpt>
      <trkpt lat="44.75786" lon="-0.34145">
        <ele>67</ele>
        <time>2012-09-02T12:33:50Z</time>
      </trkpt>
      <trkpt lat="44.7579" lon="-0.34158">
        <ele>67</ele>
        <time>2012-09-02T12:33:54Z</time>
      </trkpt>
      <trkpt lat="44.7579" lon="-0.34177">
        <ele>66</ele>
        <time>2012-09-02T12:33:57Z</time>
      </trkpt>
      <trkpt lat="44.7579" lon="-0.34192">
        <ele>66</ele>
        <time>2012-09-02T12:34:00Z</time>
      </trkpt>
      <trkpt lat="44.7579" lon="-0.34206">
        <ele>65</ele>
        <time>2012-09-02T12:34:03Z</time>
      </trkpt>
      <trkpt lat="44.75786" lon="-0.3422">
        <ele>65</ele>
        <time>2012-09-02T12:34:06Z</time>
      </trkpt>
      <trkpt lat="44.75785" lon="-0.34235">
        <ele>65</ele>
        <time>2012-09-02T12:34:11Z</time>
      </trkpt>
      <trkpt lat="44.7579" lon="-0.34247">
        <ele>65</ele>
        <time>2012-09-02T12:34:16Z</time>
      </trkpt>
      <trkpt lat="44.75799" lon="-0.34261">
        <ele>66</ele>
        <time>2012-09-02T12:34:20Z</time>
      </trkpt>
      <trkpt lat="44.75801" lon="-0.34278">
        <ele>67</ele>
        <time>2012-09-02T12:34:22Z</time>
      </trkpt>
      <trkpt lat="44.758" lon="-0.34291">
        <ele>67</ele>
        <time>2012-09-02T12:34:24Z</time>
      </trkpt>
      <trkpt lat="44.75796" lon="-0.34311">
        <ele>67</ele>
        <time>2012-09-02T12:34:28Z</time>
      </trkpt>
      <trkpt lat="44.75795" lon="-0.34328">
        <ele>68</ele>
        <time>2012-09-02T12:34:31Z</time>
      </trkpt>
      <trkpt lat="44.75792" lon="-0.34353">
        <ele>66</ele>
        <time>2012-09-02T12:34:35Z</time>
      </trkpt>
      <trkpt lat="44.75785" lon="-0.34373">
        <ele>65</ele>
        <time>2012-09-02T12:34:37Z</time>
      </trkpt>
      <trkpt lat="44.75783" lon="-0.34387">
        <ele>64</ele>
        <time>2012-09-02T12:34:39Z</time>
      </trkpt>
      <trkpt lat="44.75781" lon="-0.34403">
        <ele>64</ele>
        <time>2012-09-02T12:34:42Z</time>
      </trkpt>
      <trkpt lat="44.75778" lon="-0.34415">
        <ele>63</ele>
        <time>2012-09-02T12:34:44Z</time>
      </trkpt>
      <trkpt lat="44.75776" lon="-0.34433">
        <ele>62</ele>
        <time>2012-09-02T12:34:47Z</time>
      </trkpt>
      <trkpt lat="44.75778" lon="-0.34448">
        <ele>62</ele>
        <time>2012-09-02T12:34:50Z</time>
      </trkpt>
      <trkpt lat="44.75777" lon="-0.34464">
        <ele>62</ele>
        <time>2012-09-02T12:34:53Z</time>
      </trkpt>
      <trkpt lat="44.75776" lon="-0.34474">
        <ele>62</ele>
        <time>2012-09-02T12:34:57Z</time>
      </trkpt>
      <trkpt lat="44.75781" lon="-0.3448">
        <ele>62</ele>
        <time>2012-09-02T12:35:36Z</time>
      </trkpt>
      <trkpt lat="44.7578" lon="-0.34494">
        <ele>62</ele>
        <time>2012-09-02T12:35:40Z</time>
      </trkpt>
      <trkpt lat="44.75779" lon="-0.34511">
        <ele>62</ele>
        <time>2012-09-02T12:35:44Z</time>
      </trkpt>
      <trkpt lat="44.75779" lon="-0.34524">
        <ele>61</ele>
        <time>2012-09-02T12:35:47Z</time>
      </trkpt>
      <trkpt lat="44.75785" lon="-0.34539">
        <ele>61</ele>
        <time>2012-09-02T12:35:51Z</time>
      </trkpt>
      <trkpt lat="44.7579" lon="-0.34553">
        <ele>61</ele>
        <time>2012-09-02T12:35:54Z</time>
      </trkpt>
      <trkpt lat="44.75795" lon="-0.34568">
        <ele>61</ele>
        <time>2012-09-02T12:35:58Z</time>
      </trkpt>
      <trkpt lat="44.75799" lon="-0.34581">
        <ele>60</ele>
        <time>2012-09-02T12:36:01Z</time>
      </trkpt>
      <trkpt lat="44.75795" lon="-0.34593">
        <ele>60</ele>
        <time>2012-09-02T12:37:14Z</time>
      </trkpt>
      <trkpt lat="44.75789" lon="-0.34604">
        <ele>61</ele>
        <time>2012-09-02T12:37:23Z</time>
      </trkpt>
      <trkpt lat="44.75783" lon="-0.34606">
        <ele>61</ele>
        <time>2012-09-02T12:37:30Z</time>
      </trkpt>
      <trkpt lat="44.75784" lon="-0.34594">
        <ele>61</ele>
        <time>2012-09-02T12:38:04Z</time>
      </trkpt>
      <trkpt lat="44.7578" lon="-0.34582">
        <ele>61</ele>
        <time>2012-09-02T12:38:14Z</time>
      </trkpt>
      <trkpt lat="44.75774" lon="-0.34568">
        <ele>61</ele>
        <time>2012-09-02T12:38:21Z</time>
      </trkpt>
      <trkpt lat="44.75768" lon="-0.34554">
        <ele>61</ele>
        <time>2012-09-02T12:38:26Z</time>
      </trkpt>
      <trkpt lat="44.75763" lon="-0.34541">
        <ele>61</ele>
        <time>2012-09-02T12:38:30Z</time>
      </trkpt>
      <trkpt lat="44.7576" lon="-0.34528">
        <ele>61</ele>
        <time>2012-09-02T12:38:35Z</time>
      </trkpt>
      <trkpt lat="44.75756" lon="-0.34513">
        <ele>61</ele>
        <time>2012-09-02T12:38:40Z</time>
      </trkpt>
      <trkpt lat="44.75748" lon="-0.34507">
        <ele>62</ele>
        <time>2012-09-02T12:39:10Z</time>
      </trkpt>
      <trkpt lat="44.75738" lon="-0.34504">
        <ele>63</ele>
        <time>2012-09-02T12:39:19Z</time>
      </trkpt>
      <trkpt lat="44.75728" lon="-0.34504">
        <ele>63</ele>
        <time>2012-09-02T12:39:25Z</time>
      </trkpt>
      <trkpt lat="44.75719" lon="-0.34509">
        <ele>64</ele>
        <time>2012-09-02T12:39:30Z</time>
      </trkpt>
      <trkpt lat="44.75709" lon="-0.34507">
        <ele>65</ele>
        <time>2012-09-02T12:39:35Z</time>
      </trkpt>
      <trkpt lat="44.75699" lon="-0.34509">
        <ele>66</ele>
        <time>2012-09-02T12:39:39Z</time>
      </trkpt>
      <trkpt lat="44.75689" lon="-0.34512">
        <ele>67</ele>
        <time>2012-09-02T12:39:45Z</time>
      </trkpt>
      <trkpt lat="44.75681" lon="-0.34521">
        <ele>68</ele>
        <time>2012-09-02T12:39:48Z</time>
      </trkpt>
      <trkpt lat="44.75672" lon="-0.34527">
        <ele>68</ele>
        <time>2012-09-02T12:39:53Z</time>
      </trkpt>
      <trkpt lat="44.75661" lon="-0.34527">
        <ele>69</ele>
        <time>2012-09-02T12:39:57Z</time>
      </trkpt>
      <trkpt lat="44.75652" lon="-0.34537">
        <ele>70</ele>
        <time>2012-09-02T12:40:03Z</time>
      </trkpt>
      <trkpt lat="44.75642" lon="-0.34546">
        <ele>71</ele>
        <time>2012-09-02T12:40:07Z</time>
      </trkpt>
      <trkpt lat="44.75633" lon="-0.3455">
        <ele>71</ele>
        <time>2012-09-02T12:40:10Z</time>
      </trkpt>
      <trkpt lat="44.75623" lon="-0.34547">
        <ele>72</ele>
        <time>2012-09-02T12:40:15Z</time>
      </trkpt>
      <trkpt lat="44.75608" lon="-0.34539">
        <ele>72</ele>
        <time>2012-09-02T12:40:20Z</time>
      </trkpt>
      <trkpt lat="44.75597" lon="-0.34539">
        <ele>72</ele>
        <time>2012-09-02T12:40:23Z</time>
      </trkpt>
      <trkpt lat="44.75584" lon="-0.34537">
        <ele>72</ele>
        <time>2012-09-02T12:40:27Z</time>
      </trkpt>
      <trkpt lat="44.75568" lon="-0.34551">
        <ele>73</ele>
        <time>2012-09-02T12:40:33Z</time>
      </trkpt>
      <trkpt lat="44.75566" lon="-0.34565">
        <ele>74</ele>
        <time>2012-09-02T12:40:35Z</time>
      </trkpt>
      <trkpt lat="44.75562" lon="-0.34578">
        <ele>75</ele>
        <time>2012-09-02T12:40:40Z</time>
      </trkpt>
      <trkpt lat="44.75555" lon="-0.34589">
        <ele>76</ele>
        <time>2012-09-02T12:40:44Z</time>
      </trkpt>
      <trkpt lat="44.75546" lon="-0.34598">
        <ele>78</ele>
        <time>2012-09-02T12:40:48Z</time>
      </trkpt>
      <trkpt lat="44.75536" lon="-0.34603">
        <ele>78</ele>
        <time>2012-09-02T12:40:52Z</time>
      </trkpt>
      <trkpt lat="44.75526" lon="-0.34612">
        <ele>80</ele>
        <time>2012-09-02T12:40:57Z</time>
      </trkpt>
      <trkpt lat="44.75518" lon="-0.34623">
        <ele>81</ele>
        <time>2012-09-02T12:41:04Z</time>
      </trkpt>
      <trkpt lat="44.75509" lon="-0.34634">
        <ele>82</ele>
        <time>2012-09-02T12:41:09Z</time>
      </trkpt>
      <trkpt lat="44.755" lon="-0.34642">
        <ele>83</ele>
        <time>2012-09-02T12:41:13Z</time>
      </trkpt>
      <trkpt lat="44.75491" lon="-0.34635">
        <ele>83</ele>
        <time>2012-09-02T12:41:19Z</time>
      </trkpt>
      <trkpt lat="44.75482" lon="-0.34621">
        <ele>82</ele>
        <time>2012-09-02T12:41:23Z</time>
      </trkpt>
      <trkpt lat="44.75472" lon="-0.3462">
        <ele>82</ele>
        <time>2012-09-02T12:41:28Z</time>
      </trkpt>
      <trkpt lat="44.75463" lon="-0.34621">
        <ele>83</ele>
        <time>2012-09-02T12:41:37Z</time>
      </trkpt>
      <trkpt lat="44.75454" lon="-0.34618">
        <ele>83</ele>
        <time>2012-09-02T12:42:01Z</time>
      </trkpt>
      <trkpt lat="44.75445" lon="-0.34625">
        <ele>84</ele>
        <time>2012-09-02T12:42:07Z</time>
      </trkpt>
      <trkpt lat="44.75441" lon="-0.34637">
        <ele>85</ele>
        <time>2012-09-02T12:42:16Z</time>
      </trkpt>
      <trkpt lat="44.75431" lon="-0.34643">
        <ele>86</ele>
        <time>2012-09-02T12:42:23Z</time>
      </trkpt>
      <trkpt lat="44.75423" lon="-0.34651">
        <ele>87</ele>
        <time>2012-09-02T12:42:33Z</time>
      </trkpt>
      <trkpt lat="44.75413" lon="-0.34652">
        <ele>88</ele>
        <time>2012-09-02T12:43:51Z</time>
      </trkpt>
      <trkpt lat="44.75402" lon="-0.34653">
        <ele>89</ele>
        <time>2012-09-02T12:43:58Z</time>
      </trkpt>
      <trkpt lat="44.75392" lon="-0.34659">
        <ele>90</ele>
        <time>2012-09-02T12:44:04Z</time>
      </trkpt>
      <trkpt lat="44.75383" lon="-0.34663">
        <ele>91</ele>
        <time>2012-09-02T12:44:10Z</time>
      </trkpt>
      <trkpt lat="44.75373" lon="-0.34669">
        <ele>91</ele>
        <time>2012-09-02T12:44:16Z</time>
      </trkpt>
      <trkpt lat="44.75365" lon="-0.34677">
        <ele>92</ele>
        <time>2012-09-02T12:44:20Z</time>
      </trkpt>
      <trkpt lat="44.75356" lon="-0.34686">
        <ele>93</ele>
        <time>2012-09-02T12:44:26Z</time>
      </trkpt>
      <trkpt lat="44.75346" lon="-0.34693">
        <ele>93</ele>
        <time>2012-09-02T12:44:31Z</time>
      </trkpt>
      <trkpt lat="44.75337" lon="-0.347">
        <ele>94</ele>
        <time>2012-09-02T12:44:36Z</time>
      </trkpt>
      <trkpt lat="44.75328" lon="-0.34706">
        <ele>94</ele>
        <time>2012-09-02T12:44:41Z</time>
      </trkpt>
      <trkpt lat="44.75319" lon="-0.34714">
        <ele>94</ele>
        <time>2012-09-02T12:44:45Z</time>
      </trkpt>
      <trkpt lat="44.75311" lon="-0.34721">
        <ele>94</ele>
        <time>2012-09-02T12:44:50Z</time>
      </trkpt>
      <trkpt lat="44.75303" lon="-0.3473">
        <ele>94</ele>
        <time>2012-09-02T12:44:55Z</time>
      </trkpt>
      <trkpt lat="44.753" lon="-0.34716">
        <ele>94</ele>
        <time>2012-09-02T12:45:04Z</time>
      </trkpt>
      <trkpt lat="44.75299" lon="-0.347">
        <ele>94</ele>
        <time>2012-09-02T12:45:09Z</time>
      </trkpt>
      <trkpt lat="44.75298" lon="-0.34686">
        <ele>95</ele>
        <time>2012-09-02T12:45:12Z</time>
      </trkpt>
      <trkpt lat="44.75295" lon="-0.34671">
        <ele>95</ele>
        <time>2012-09-02T12:45:15Z</time>
      </trkpt>
      <trkpt lat="44.75294" lon="-0.34653">
        <ele>95</ele>
        <time>2012-09-02T12:45:18Z</time>
      </trkpt>
      <trkpt lat="44.75292" lon="-0.34637">
        <ele>95</ele>
        <time>2012-09-02T12:45:21Z</time>
      </trkpt>
      <trkpt lat="44.75292" lon="-0.34621">
        <ele>95</ele>
        <time>2012-09-02T12:45:25Z</time>
      </trkpt>
      <trkpt lat="44.7529" lon="-0.34605">
        <ele>95</ele>
        <time>2012-09-02T12:45:29Z</time>
      </trkpt>
      <trkpt lat="44.7529" lon="-0.34589">
        <ele>95</ele>
        <time>2012-09-02T12:45:33Z</time>
      </trkpt>
      <trkpt lat="44.75283" lon="-0.3458">
        <ele>95</ele>
        <time>2012-09-02T12:45:39Z</time>
      </trkpt>
      <trkpt lat="44.75274" lon="-0.34584">
        <ele>95</ele>
        <time>2012-09-02T12:45:43Z</time>
      </trkpt>
      <trkpt lat="44.75264" lon="-0.3459">
        <ele>95</ele>
        <time>2012-09-02T12:45:47Z</time>
      </trkpt>
      <trkpt lat="44.75254" lon="-0.34595">
        <ele>94</ele>
        <time>2012-09-02T12:45:51Z</time>
      </trkpt>
      <trkpt lat="44.75244" lon="-0.34601">
        <ele>93</ele>
        <time>2012-09-02T12:45:54Z</time>
      </trkpt>
      <trkpt lat="44.75234" lon="-0.34608">
        <ele>91</ele>
        <time>2012-09-02T12:45:57Z</time>
      </trkpt>
      <trkpt lat="44.75225" lon="-0.34599">
        <ele>90</ele>
        <time>2012-09-02T12:46:02Z</time>
      </trkpt>
      <trkpt lat="44.75222" lon="-0.34586">
        <ele>91</ele>
        <time>2012-09-02T12:46:07Z</time>
      </trkpt>
      <trkpt lat="44.75218" lon="-0.34573">
        <ele>91</ele>
        <time>2012-09-02T12:46:11Z</time>
      </trkpt>
      <trkpt lat="44.75214" lon="-0.34557">
        <ele>91</ele>
        <time>2012-09-02T12:46:15Z</time>
      </trkpt>
      <trkpt lat="44.75208" lon="-0.34541">
        <ele>91</ele>
        <time>2012-09-02T12:46:19Z</time>
      </trkpt>
      <trkpt lat="44.75205" lon="-0.34527">
        <ele>91</ele>
        <time>2012-09-02T12:46:25Z</time>
      </trkpt>
      <trkpt lat="44.75199" lon="-0.34538">
        <ele>90</ele>
        <time>2012-09-02T12:46:53Z</time>
      </trkpt>
      <trkpt lat="44.75189" lon="-0.34536">
        <ele>88</ele>
        <time>2012-09-02T12:46:57Z</time>
      </trkpt>
      <trkpt lat="44.75178" lon="-0.34533">
        <ele>87</ele>
        <time>2012-09-02T12:47:03Z</time>
      </trkpt>
      <trkpt lat="44.75173" lon="-0.34546">
        <ele>86</ele>
        <time>2012-09-02T12:47:10Z</time>
      </trkpt>
      <trkpt lat="44.75168" lon="-0.34557">
        <ele>85</ele>
        <time>2012-09-02T12:47:16Z</time>
      </trkpt>
      <trkpt lat="44.75162" lon="-0.3457">
        <ele>84</ele>
        <time>2012-09-02T12:47:21Z</time>
      </trkpt>
      <trkpt lat="44.7516" lon="-0.34583">
        <ele>84</ele>
        <time>2012-09-02T12:47:25Z</time>
      </trkpt>
      <trkpt lat="44.75159" lon="-0.34599">
        <ele>83</ele>
        <time>2012-09-02T12:47:28Z</time>
      </trkpt>
      <trkpt lat="44.75158" lon="-0.34613">
        <ele>82</ele>
        <time>2012-09-02T12:47:33Z</time>
      </trkpt>
      <trkpt lat="44.7516" lon="-0.34628">
        <ele>82</ele>
        <time>2012-09-02T12:47:49Z</time>
      </trkpt>
      <trkpt lat="44.75153" lon="-0.34637">
        <ele>83</ele>
        <time>2012-09-02T12:48:04Z</time>
      </trkpt>
      <trkpt lat="44.75148" lon="-0.34649">
        <ele>83</ele>
        <time>2012-09-02T12:48:17Z</time>
      </trkpt>
      <trkpt lat="44.75146" lon="-0.34636">
        <ele>84</ele>
        <time>2012-09-02T12:49:53Z</time>
      </trkpt>
      <trkpt lat="44.75144" lon="-0.34622">
        <ele>84</ele>
        <time>2012-09-02T12:50:49Z</time>
      </trkpt>
      <trkpt lat="44.75141" lon="-0.34607">
        <ele>85</ele>
        <time>2012-09-02T12:50:55Z</time>
      </trkpt>
      <trkpt lat="44.75139" lon="-0.34592">
        <ele>85</ele>
        <time>2012-09-02T12:51:00Z</time>
      </trkpt>
      <trkpt lat="44.75136" lon="-0.34579">
        <ele>86</ele>
        <time>2012-09-02T12:51:04Z</time>
      </trkpt>
      <trkpt lat="44.75134" lon="-0.34563">
        <ele>86</ele>
        <time>2012-09-02T12:51:09Z</time>
      </trkpt>
      <trkpt lat="44.75128" lon="-0.34551">
        <ele>86</ele>
        <time>2012-09-02T12:51:13Z</time>
      </trkpt>
      <trkpt lat="44.75131" lon="-0.34538">
        <ele>86</ele>
        <time>2012-09-02T12:51:17Z</time>
      </trkpt>
      <trkpt lat="44.7513" lon="-0.34521">
        <ele>86</ele>
        <time>2012-09-02T12:51:22Z</time>
      </trkpt>
      <trkpt lat="44.75129" lon="-0.34508">
        <ele>87</ele>
        <time>2012-09-02T12:51:26Z</time>
      </trkpt>
      <trkpt lat="44.75125" lon="-0.34494">
        <ele>87</ele>
        <time>2012-09-02T12:51:30Z</time>
      </trkpt>
      <trkpt lat="44.75115" lon="-0.34486">
        <ele>88</ele>
        <time>2012-09-02T12:51:34Z</time>
      </trkpt>
      <trkpt lat="44.75105" lon="-0.34489">
        <ele>89</ele>
        <time>2012-09-02T12:51:38Z</time>
      </trkpt>
      <trkpt lat="44.75094" lon="-0.34491">
        <ele>91</ele>
        <time>2012-09-02T12:51:42Z</time>
      </trkpt>
      <trkpt lat="44.75083" lon="-0.34494">
        <ele>92</ele>
        <time>2012-09-02T12:51:47Z</time>
      </trkpt>
      <trkpt lat="44.75071" lon="-0.34495">
        <ele>93</ele>
        <time>2012-09-02T12:51:52Z</time>
      </trkpt>
      <trkpt lat="44.75062" lon="-0.34495">
        <ele>94</ele>
        <time>2012-09-02T12:51:56Z</time>
      </trkpt>
      <trkpt lat="44.7505" lon="-0.34497">
        <ele>95</ele>
        <time>2012-09-02T12:52:01Z</time>
      </trkpt>
      <trkpt lat="44.7504" lon="-0.34499">
        <ele>95</ele>
        <time>2012-09-02T12:52:05Z</time>
      </trkpt>
      <trkpt lat="44.7503" lon="-0.34499">
        <ele>96</ele>
        <time>2012-09-02T12:52:09Z</time>
      </trkpt>
      <trkpt lat="44.75019" lon="-0.34498">
        <ele>96</ele>
        <time>2012-09-02T12:52:13Z</time>
      </trkpt>
      <trkpt lat="44.75011" lon="-0.34489">
        <ele>97</ele>
        <time>2012-09-02T12:52:17Z</time>
      </trkpt>
      <trkpt lat="44.75004" lon="-0.34478">
        <ele>97</ele>
        <time>2012-09-02T12:52:22Z</time>
      </trkpt>
      <trkpt lat="44.74997" lon="-0.34469">
        <ele>98</ele>
        <time>2012-09-02T12:52:26Z</time>
      </trkpt>
      <trkpt lat="44.74988" lon="-0.3446">
        <ele>98</ele>
        <time>2012-09-02T12:52:30Z</time>
      </trkpt>
      <trkpt lat="44.74978" lon="-0.3445">
        <ele>99</ele>
        <time>2012-09-02T12:52:34Z</time>
      </trkpt>
      <trkpt lat="44.7497" lon="-0.34441">
        <ele>99</ele>
        <time>2012-09-02T12:52:38Z</time>
      </trkpt>
      <trkpt lat="44.74963" lon="-0.34432">
        <ele>99</ele>
        <time>2012-09-02T12:52:43Z</time>
      </trkpt>
      <trkpt lat="44.74954" lon="-0.34423">
        <ele>100</ele>
        <time>2012-09-02T12:52:47Z</time>
      </trkpt>
      <trkpt lat="44.74946" lon="-0.34413">
        <ele>100</ele>
        <time>2012-09-02T12:52:51Z</time>
      </trkpt>
      <trkpt lat="44.74937" lon="-0.34407">
        <ele>100</ele>
        <time>2012-09-02T12:52:54Z</time>
      </trkpt>
      <trkpt lat="44.74927" lon="-0.344">
        <ele>100</ele>
        <time>2012-09-02T12:52:57Z</time>
      </trkpt>
      <trkpt lat="44.74918" lon="-0.34394">
        <ele>101</ele>
        <time>2012-09-02T12:53:00Z</time>
      </trkpt>
      <trkpt lat="44.74908" lon="-0.34388">
        <ele>101</ele>
        <time>2012-09-02T12:53:03Z</time>
      </trkpt>
      <trkpt lat="44.74899" lon="-0.34381">
        <ele>101</ele>
        <time>2012-09-02T12:53:06Z</time>
      </trkpt>
      <trkpt lat="44.74889" lon="-0.34376">
        <ele>101</ele>
        <time>2012-09-02T12:53:09Z</time>
      </trkpt>
      <trkpt lat="44.74879" lon="-0.34369">
        <ele>101</ele>
        <time>2012-09-02T12:53:12Z</time>
      </trkpt>
      <trkpt lat="44.7487" lon="-0.34362">
        <ele>101</ele>
        <time>2012-09-02T12:53:15Z</time>
      </trkpt>
      <trkpt lat="44.74859" lon="-0.34356">
        <ele>101</ele>
        <time>2012-09-02T12:53:18Z</time>
      </trkpt>
      <trkpt lat="44.74848" lon="-0.3435">
        <ele>101</ele>
        <time>2012-09-02T12:53:21Z</time>
      </trkpt>
      <trkpt lat="44.74838" lon="-0.34343">
        <ele>102</ele>
        <time>2012-09-02T12:53:24Z</time>
      </trkpt>
      <trkpt lat="44.74827" lon="-0.34335">
        <ele>102</ele>
        <time>2012-09-02T12:53:28Z</time>
      </trkpt>
      <trkpt lat="44.74817" lon="-0.34331">
        <ele>102</ele>
        <time>2012-09-02T12:53:33Z</time>
      </trkpt>
      <trkpt lat="44.74808" lon="-0.3434">
        <ele>102</ele>
        <time>2012-09-02T12:53:37Z</time>
      </trkpt>
      <trkpt lat="44.74803" lon="-0.34352">
        <ele>102</ele>
        <time>2012-09-02T12:53:40Z</time>
      </trkpt>
      <trkpt lat="44.74792" lon="-0.34357">
        <ele>102</ele>
        <time>2012-09-02T12:53:45Z</time>
      </trkpt>
      <trkpt lat="44.74783" lon="-0.34363">
        <ele>102</ele>
        <time>2012-09-02T12:53:48Z</time>
      </trkpt>
      <trkpt lat="44.74778" lon="-0.34376">
        <ele>101</ele>
        <time>2012-09-02T12:53:51Z</time>
      </trkpt>
      <trkpt lat="44.74773" lon="-0.34388">
        <ele>101</ele>
        <time>2012-09-02T12:53:54Z</time>
      </trkpt>
      <trkpt lat="44.74766" lon="-0.344">
        <ele>101</ele>
        <time>2012-09-02T12:53:57Z</time>
      </trkpt>
      <trkpt lat="44.74757" lon="-0.34406">
        <ele>101</ele>
        <time>2012-09-02T12:54:01Z</time>
      </trkpt>
      <trkpt lat="44.7475" lon="-0.344">
        <ele>101</ele>
        <time>2012-09-02T12:55:48Z</time>
      </trkpt>
      <trkpt lat="44.74741" lon="-0.34397">
        <ele>101</ele>
        <time>2012-09-02T12:55:55Z</time>
      </trkpt>
      <trkpt lat="44.7473" lon="-0.34393">
        <ele>101</ele>
        <time>2012-09-02T12:56:01Z</time>
      </trkpt>
      <trkpt lat="44.7472" lon="-0.34389">
        <ele>101</ele>
        <time>2012-09-02T12:56:05Z</time>
      </trkpt>
      <trkpt lat="44.7471" lon="-0.34387">
        <ele>100</ele>
        <time>2012-09-02T12:56:09Z</time>
      </trkpt>
      <trkpt lat="44.747" lon="-0.34382">
        <ele>100</ele>
        <time>2012-09-02T12:56:13Z</time>
      </trkpt>
      <trkpt lat="44.7469" lon="-0.34379">
        <ele>100</ele>
        <time>2012-09-02T12:56:16Z</time>
      </trkpt>
      <trkpt lat="44.7468" lon="-0.34374">
        <ele>99</ele>
        <time>2012-09-02T12:56:19Z</time>
      </trkpt>
      <trkpt lat="44.74671" lon="-0.34371">
        <ele>99</ele>
        <time>2012-09-02T12:56:23Z</time>
      </trkpt>
      <trkpt lat="44.74661" lon="-0.34375">
        <ele>98</ele>
        <time>2012-09-02T12:56:30Z</time>
      </trkpt>
      <trkpt lat="44.74665" lon="-0.34388">
        <ele>98</ele>
        <time>2012-09-02T12:56:42Z</time>
      </trkpt>
      <trkpt lat="44.74662" lon="-0.34402">
        <ele>98</ele>
        <time>2012-09-02T12:56:47Z</time>
      </trkpt>
      <trkpt lat="44.74659" lon="-0.34418">
        <ele>98</ele>
        <time>2012-09-02T12:56:52Z</time>
      </trkpt>
      <trkpt lat="44.74657" lon="-0.34433">
        <ele>98</ele>
        <time>2012-09-02T12:56:56Z</time>
      </trkpt>
      <trkpt lat="44.74653" lon="-0.34449">
        <ele>98</ele>
        <time>2012-09-02T12:57:01Z</time>
      </trkpt>
      <trkpt lat="44.74643" lon="-0.3445">
        <ele>97</ele>
        <time>2012-09-02T12:57:07Z</time>
      </trkpt>
      <trkpt lat="44.74634" lon="-0.34447">
        <ele>97</ele>
        <time>2012-09-02T12:57:11Z</time>
      </trkpt>
      <trkpt lat="44.74621" lon="-0.3444">
        <ele>95</ele>
        <time>2012-09-02T12:57:14Z</time>
      </trkpt>
      <trkpt lat="44.74611" lon="-0.34434">
        <ele>94</ele>
        <time>2012-09-02T12:57:16Z</time>
      </trkpt>
      <trkpt lat="44.74598" lon="-0.3443">
        <ele>92</ele>
        <time>2012-09-02T12:57:19Z</time>
      </trkpt>
      <trkpt lat="44.74588" lon="-0.34429">
        <ele>91</ele>
        <time>2012-09-02T12:57:22Z</time>
      </trkpt>
      <trkpt lat="44.74579" lon="-0.34436">
        <ele>91</ele>
        <time>2012-09-02T12:57:25Z</time>
      </trkpt>
      <trkpt lat="44.74571" lon="-0.34448">
        <ele>91</ele>
        <time>2012-09-02T12:57:28Z</time>
      </trkpt>
      <trkpt lat="44.74567" lon="-0.34463">
        <ele>91</ele>
        <time>2012-09-02T12:57:31Z</time>
      </trkpt>
      <trkpt lat="44.74559" lon="-0.34474">
        <ele>91</ele>
        <time>2012-09-02T12:57:35Z</time>
      </trkpt>
      <trkpt lat="44.74549" lon="-0.34469">
        <ele>90</ele>
        <time>2012-09-02T12:57:39Z</time>
      </trkpt>
      <trkpt lat="44.74539" lon="-0.34465">
        <ele>89</ele>
        <time>2012-09-02T12:57:42Z</time>
      </trkpt>
      <trkpt lat="44.74527" lon="-0.3446">
        <ele>88</ele>
        <time>2012-09-02T12:57:45Z</time>
      </trkpt>
      <trkpt lat="44.74516" lon="-0.34457">
        <ele>87</ele>
        <time>2012-09-02T12:57:49Z</time>
      </trkpt>
      <trkpt lat="44.74508" lon="-0.3445">
        <ele>86</ele>
        <time>2012-09-02T12:58:07Z</time>
      </trkpt>
      <trkpt lat="44.74507" lon="-0.34434">
        <ele>84</ele>
        <time>2012-09-02T12:58:27Z</time>
      </trkpt>
      <trkpt lat="44.74507" lon="-0.34421">
        <ele>84</ele>
        <time>2012-09-02T12:58:31Z</time>
      </trkpt>
      <trkpt lat="44.74504" lon="-0.34405">
        <ele>82</ele>
        <time>2012-09-02T12:58:34Z</time>
      </trkpt>
      <trkpt lat="44.745" lon="-0.3439">
        <ele>81</ele>
        <time>2012-09-02T12:58:38Z</time>
      </trkpt>
      <trkpt lat="44.74496" lon="-0.34378">
        <ele>81</ele>
        <time>2012-09-02T12:58:42Z</time>
      </trkpt>
      <trkpt lat="44.74484" lon="-0.3437">
        <ele>80</ele>
        <time>2012-09-02T12:58:45Z</time>
      </trkpt>
      <trkpt lat="44.74475" lon="-0.34359">
        <ele>79</ele>
        <time>2012-09-02T12:58:49Z</time>
      </trkpt>
      <trkpt lat="44.74469" lon="-0.34347">
        <ele>78</ele>
        <time>2012-09-02T12:58:54Z</time>
      </trkpt>
      <trkpt lat="44.74459" lon="-0.34339">
        <ele>76</ele>
        <time>2012-09-02T12:58:58Z</time>
      </trkpt>
      <trkpt lat="44.74443" lon="-0.34344">
        <ele>74</ele>
        <time>2012-09-02T12:59:03Z</time>
      </trkpt>
      <trkpt lat="44.74432" lon="-0.34352">
        <ele>73</ele>
        <time>2012-09-02T12:59:05Z</time>
      </trkpt>
      <trkpt lat="44.74423" lon="-0.34364">
        <ele>71</ele>
        <time>2012-09-02T12:59:08Z</time>
      </trkpt>
      <trkpt lat="44.74415" lon="-0.3437">
        <ele>70</ele>
        <time>2012-09-02T12:59:11Z</time>
      </trkpt>
      <trkpt lat="44.74409" lon="-0.34382">
        <ele>69</ele>
        <time>2012-09-02T12:59:14Z</time>
      </trkpt>
      <trkpt lat="44.74399" lon="-0.3439">
        <ele>69</ele>
        <time>2012-09-02T12:59:21Z</time>
      </trkpt>
      <trkpt lat="44.74392" lon="-0.34399">
        <ele>69</ele>
        <time>2012-09-02T12:59:25Z</time>
      </trkpt>
      <trkpt lat="44.74388" lon="-0.34412">
        <ele>69</ele>
        <time>2012-09-02T12:59:29Z</time>
      </trkpt>
      <trkpt lat="44.74383" lon="-0.34423">
        <ele>69</ele>
        <time>2012-09-02T12:59:33Z</time>
      </trkpt>
      <trkpt lat="44.7438" lon="-0.34437">
        <ele>68</ele>
        <time>2012-09-02T12:59:38Z</time>
      </trkpt>
      <trkpt lat="44.74376" lon="-0.3445">
        <ele>68</ele>
        <time>2012-09-02T12:59:42Z</time>
      </trkpt>
      <trkpt lat="44.74371" lon="-0.34462">
        <ele>67</ele>
        <time>2012-09-02T12:59:45Z</time>
      </trkpt>
      <trkpt lat="44.74363" lon="-0.34475">
        <ele>66</ele>
        <time>2012-09-02T12:59:49Z</time>
      </trkpt>
      <trkpt lat="44.74357" lon="-0.34486">
        <ele>66</ele>
        <time>2012-09-02T12:59:52Z</time>
      </trkpt>
      <trkpt lat="44.74351" lon="-0.34497">
        <ele>66</ele>
        <time>2012-09-02T12:59:57Z</time>
      </trkpt>
      <trkpt lat="44.74342" lon="-0.34504">
        <ele>66</ele>
        <time>2012-09-02T13:00:02Z</time>
      </trkpt>
      <trkpt lat="44.74336" lon="-0.34514">
        <ele>65</ele>
        <time>2012-09-02T13:00:08Z</time>
      </trkpt>
      <trkpt lat="44.74331" lon="-0.34527">
        <ele>65</ele>
        <time>2012-09-02T13:00:13Z</time>
      </trkpt>
      <trkpt lat="44.74326" lon="-0.34539">
        <ele>65</ele>
        <time>2012-09-02T13:00:17Z</time>
      </trkpt>
      <trkpt lat="44.74321" lon="-0.3455">
        <ele>64</ele>
        <time>2012-09-02T13:00:21Z</time>
      </trkpt>
      <trkpt lat="44.74322" lon="-0.34566">
        <ele>64</ele>
        <time>2012-09-02T13:00:29Z</time>
      </trkpt>
      <trkpt lat="44.74328" lon="-0.34577">
        <ele>64</ele>
        <time>2012-09-02T13:00:35Z</time>
      </trkpt>
      <trkpt lat="44.74338" lon="-0.34582">
        <ele>65</ele>
        <time>2012-09-02T13:00:40Z</time>
      </trkpt>
      <trkpt lat="44.74349" lon="-0.34588">
        <ele>66</ele>
        <time>2012-09-02T13:00:46Z</time>
      </trkpt>
      <trkpt lat="44.74356" lon="-0.34596">
        <ele>67</ele>
        <time>2012-09-02T13:00:50Z</time>
      </trkpt>
      <trkpt lat="44.74365" lon="-0.34602">
        <ele>68</ele>
        <time>2012-09-02T13:00:55Z</time>
      </trkpt>
      <trkpt lat="44.7437" lon="-0.34615">
        <ele>70</ele>
        <time>2012-09-02T13:01:01Z</time>
      </trkpt>
      <trkpt lat="44.74374" lon="-0.34627">
        <ele>70</ele>
        <time>2012-09-02T13:01:07Z</time>
      </trkpt>
      <trkpt lat="44.74377" lon="-0.3463">
        <ele>71</ele>
        <time>2012-09-02T13:01:18Z</time>
      </trkpt>
      <trkpt lat="44.74378" lon="-0.34635">
        <ele>71</ele>
        <time>2012-09-02T13:02:49Z</time>
      </trkpt>
      <trkpt lat="44.74377" lon="-0.34638">
        <ele>71</ele>
        <time>2012-09-02T13:03:29Z</time>
      </trkpt>
      <trkpt lat="44.74367" lon="-0.34641">
        <ele>70</ele>
        <time>2012-09-02T13:04:09Z</time>
      </trkpt>
      <trkpt lat="44.74355" lon="-0.3464">
        <ele>68</ele>
        <time>2012-09-02T13:04:15Z</time>
      </trkpt>
      <trkpt lat="44.74346" lon="-0.34644">
        <ele>68</ele>
        <time>2012-09-02T13:04:26Z</time>
      </trkpt>
      <trkpt lat="44.74329" lon="-0.34628">
        <ele>66</ele>
        <time>2012-09-02T13:16:08Z</time>
      </trkpt>
      <trkpt lat="44.74321" lon="-0.34618">
        <ele>65</ele>
        <time>2012-09-02T13:16:12Z</time>
      </trkpt>
      <trkpt lat="44.74303" lon="-0.3461">
        <ele>64</ele>
        <time>2012-09-02T13:16:17Z</time>
      </trkpt>
      <trkpt lat="44.74285" lon="-0.34599">
        <ele>63</ele>
        <time>2012-09-02T13:16:22Z</time>
      </trkpt>
      <trkpt lat="44.74274" lon="-0.34599">
        <ele>63</ele>
        <time>2012-09-02T13:16:25Z</time>
      </trkpt>
      <trkpt lat="44.74262" lon="-0.34595">
        <ele>63</ele>
        <time>2012-09-02T13:16:33Z</time>
      </trkpt>
      <trkpt lat="44.74253" lon="-0.34598">
        <ele>63</ele>
        <time>2012-09-02T13:16:37Z</time>
      </trkpt>
      <trkpt lat="44.74242" lon="-0.34598">
        <ele>63</ele>
        <time>2012-09-02T13:16:43Z</time>
      </trkpt>
      <trkpt lat="44.74228" lon="-0.34602">
        <ele>63</ele>
        <time>2012-09-02T13:16:51Z</time>
      </trkpt>
      <trkpt lat="44.74219" lon="-0.34616">
        <ele>62</ele>
        <time>2012-09-02T13:16:57Z</time>
      </trkpt>
      <trkpt lat="44.74212" lon="-0.34628">
        <ele>62</ele>
        <time>2012-09-02T13:16:59Z</time>
      </trkpt>
      <trkpt lat="44.74203" lon="-0.34635">
        <ele>63</ele>
        <time>2012-09-02T13:17:03Z</time>
      </trkpt>
      <trkpt lat="44.74194" lon="-0.34644">
        <ele>63</ele>
        <time>2012-09-02T13:17:09Z</time>
      </trkpt>
      <trkpt lat="44.74187" lon="-0.34655">
        <ele>62</ele>
        <time>2012-09-02T13:17:13Z</time>
      </trkpt>
      <trkpt lat="44.74178" lon="-0.34664">
        <ele>62</ele>
        <time>2012-09-02T13:17:17Z</time>
      </trkpt>
      <trkpt lat="44.7417" lon="-0.34673">
        <ele>62</ele>
        <time>2012-09-02T13:17:21Z</time>
      </trkpt>
      <trkpt lat="44.7416" lon="-0.34683">
        <ele>63</ele>
        <time>2012-09-02T13:17:24Z</time>
      </trkpt>
      <trkpt lat="44.74153" lon="-0.34699">
        <ele>62</ele>
        <time>2012-09-02T13:17:27Z</time>
      </trkpt>
      <trkpt lat="44.74146" lon="-0.34712">
        <ele>62</ele>
        <time>2012-09-02T13:17:29Z</time>
      </trkpt>
      <trkpt lat="44.74143" lon="-0.34728">
        <ele>60</ele>
        <time>2012-09-02T13:17:32Z</time>
      </trkpt>
      <trkpt lat="44.74135" lon="-0.34741">
        <ele>59</ele>
        <time>2012-09-02T13:17:36Z</time>
      </trkpt>
      <trkpt lat="44.7413" lon="-0.34756">
        <ele>58</ele>
        <time>2012-09-02T13:17:42Z</time>
      </trkpt>
      <trkpt lat="44.74124" lon="-0.34772">
        <ele>58</ele>
        <time>2012-09-02T13:17:45Z</time>
      </trkpt>
      <trkpt lat="44.74111" lon="-0.34783">
        <ele>58</ele>
        <time>2012-09-02T13:17:52Z</time>
      </trkpt>
      <trkpt lat="44.74102" lon="-0.3479">
        <ele>57</ele>
        <time>2012-09-02T13:17:58Z</time>
      </trkpt>
      <trkpt lat="44.74095" lon="-0.34799">
        <ele>57</ele>
        <time>2012-09-02T13:18:07Z</time>
      </trkpt>
      <trkpt lat="44.74091" lon="-0.34813">
        <ele>55</ele>
        <time>2012-09-02T13:18:13Z</time>
      </trkpt>
      <trkpt lat="44.74086" lon="-0.34825">
        <ele>56</ele>
        <time>2012-09-02T13:18:20Z</time>
      </trkpt>
      <trkpt lat="44.74076" lon="-0.34826">
        <ele>56</ele>
        <time>2012-09-02T13:18:28Z</time>
      </trkpt>
      <trkpt lat="44.74067" lon="-0.34821">
        <ele>56</ele>
        <time>2012-09-02T13:20:18Z</time>
      </trkpt>
      <trkpt lat="44.74059" lon="-0.34831">
        <ele>57</ele>
        <time>2012-09-02T13:20:30Z</time>
      </trkpt>
      <trkpt lat="44.7405" lon="-0.34839">
        <ele>57</ele>
        <time>2012-09-02T13:20:34Z</time>
      </trkpt>
      <trkpt lat="44.7404" lon="-0.34844">
        <ele>56</ele>
        <time>2012-09-02T13:20:37Z</time>
      </trkpt>
      <trkpt lat="44.74031" lon="-0.34847">
        <ele>56</ele>
        <time>2012-09-02T13:20:40Z</time>
      </trkpt>
      <trkpt lat="44.74021" lon="-0.34854">
        <ele>55</ele>
        <time>2012-09-02T13:20:43Z</time>
      </trkpt>
      <trkpt lat="44.74009" lon="-0.34857">
        <ele>55</ele>
        <time>2012-09-02T13:20:47Z</time>
      </trkpt>
      <trkpt lat="44.73998" lon="-0.34861">
        <ele>53</ele>
        <time>2012-09-02T13:20:50Z</time>
      </trkpt>
      <trkpt lat="44.73988" lon="-0.34864">
        <ele>53</ele>
        <time>2012-09-02T13:20:53Z</time>
      </trkpt>
      <trkpt lat="44.73977" lon="-0.34867">
        <ele>53</ele>
        <time>2012-09-02T13:20:56Z</time>
      </trkpt>
      <trkpt lat="44.73966" lon="-0.34871">
        <ele>53</ele>
        <time>2012-09-02T13:21:00Z</time>
      </trkpt>
      <trkpt lat="44.73956" lon="-0.34877">
        <ele>54</ele>
        <time>2012-09-02T13:21:04Z</time>
      </trkpt>
      <trkpt lat="44.73953" lon="-0.3489">
        <ele>55</ele>
        <time>2012-09-02T13:21:10Z</time>
      </trkpt>
      <trkpt lat="44.73956" lon="-0.34903">
        <ele>56</ele>
        <time>2012-09-02T13:21:18Z</time>
      </trkpt>
      <trkpt lat="44.73956" lon="-0.34918">
        <ele>58</ele>
        <time>2012-09-02T13:21:26Z</time>
      </trkpt>
      <trkpt lat="44.73947" lon="-0.34922">
        <ele>58</ele>
        <time>2012-09-02T13:21:34Z</time>
      </trkpt>
      <trkpt lat="44.73938" lon="-0.34927">
        <ele>59</ele>
        <time>2012-09-02T13:21:39Z</time>
      </trkpt>
      <trkpt lat="44.73925" lon="-0.34923">
        <ele>58</ele>
        <time>2012-09-02T13:21:46Z</time>
      </trkpt>
      <trkpt lat="44.73916" lon="-0.34918">
        <ele>57</ele>
        <time>2012-09-02T13:22:20Z</time>
      </trkpt>
      <trkpt lat="44.73915" lon="-0.34902">
        <ele>56</ele>
        <time>2012-09-02T13:22:32Z</time>
      </trkpt>
      <trkpt lat="44.739" lon="-0.34891">
        <ele>54</ele>
        <time>2012-09-02T13:22:41Z</time>
      </trkpt>
      <trkpt lat="44.73895" lon="-0.34877">
        <ele>53</ele>
        <time>2012-09-02T13:22:43Z</time>
      </trkpt>
      <trkpt lat="44.73885" lon="-0.34869">
        <ele>52</ele>
        <time>2012-09-02T13:22:48Z</time>
      </trkpt>
      <trkpt lat="44.73876" lon="-0.34865">
        <ele>52</ele>
        <time>2012-09-02T13:22:53Z</time>
      </trkpt>
      <trkpt lat="44.73868" lon="-0.34872">
        <ele>53</ele>
        <time>2012-09-02T13:22:57Z</time>
      </trkpt>
      <trkpt lat="44.73872" lon="-0.34885">
        <ele>55</ele>
        <time>2012-09-02T13:23:02Z</time>
      </trkpt>
      <trkpt lat="44.73877" lon="-0.34899">
        <ele>56</ele>
        <time>2012-09-02T13:23:07Z</time>
      </trkpt>
      <trkpt lat="44.73879" lon="-0.34911">
        <ele>58</ele>
        <time>2012-09-02T13:23:12Z</time>
      </trkpt>
      <trkpt lat="44.73877" lon="-0.34925">
        <ele>60</ele>
        <time>2012-09-02T13:23:20Z</time>
      </trkpt>
      <trkpt lat="44.73865" lon="-0.34925">
        <ele>60</ele>
        <time>2012-09-02T13:23:26Z</time>
      </trkpt>
      <trkpt lat="44.73856" lon="-0.34921">
        <ele>60</ele>
        <time>2012-09-02T13:23:31Z</time>
      </trkpt>
      <trkpt lat="44.73844" lon="-0.34922">
        <ele>61</ele>
        <time>2012-09-02T13:23:36Z</time>
      </trkpt>
      <trkpt lat="44.73835" lon="-0.34928">
        <ele>62</ele>
        <time>2012-09-02T13:23:42Z</time>
      </trkpt>
      <trkpt lat="44.73826" lon="-0.34932">
        <ele>62</ele>
        <time>2012-09-02T13:23:46Z</time>
      </trkpt>
      <trkpt lat="44.73815" lon="-0.34937">
        <ele>63</ele>
        <time>2012-09-02T13:23:52Z</time>
      </trkpt>
      <trkpt lat="44.73809" lon="-0.34927">
        <ele>63</ele>
        <time>2012-09-02T13:24:14Z</time>
      </trkpt>
      <trkpt lat="44.73799" lon="-0.34924">
        <ele>62</ele>
        <time>2012-09-02T13:24:27Z</time>
      </trkpt>
      <trkpt lat="44.73785" lon="-0.3492">
        <ele>61</ele>
        <time>2012-09-02T13:24:32Z</time>
      </trkpt>
      <trkpt lat="44.73772" lon="-0.34919">
        <ele>61</ele>
        <time>2012-09-02T13:24:35Z</time>
      </trkpt>
      <trkpt lat="44.73765" lon="-0.3491">
        <ele>59</ele>
        <time>2012-09-02T13:24:44Z</time>
      </trkpt>
      <trkpt lat="44.73756" lon="-0.34907">
        <ele>58</ele>
        <time>2012-09-02T13:25:06Z</time>
      </trkpt>
      <trkpt lat="44.73753" lon="-0.34894">
        <ele>57</ele>
        <time>2012-09-02T13:25:17Z</time>
      </trkpt>
      <trkpt lat="44.73754" lon="-0.3488">
        <ele>56</ele>
        <time>2012-09-02T13:25:32Z</time>
      </trkpt>
      <trkpt lat="44.73749" lon="-0.34867">
        <ele>54</ele>
        <time>2012-09-02T13:25:39Z</time>
      </trkpt>
      <trkpt lat="44.73743" lon="-0.34856">
        <ele>53</ele>
        <time>2012-09-02T13:25:54Z</time>
      </trkpt>
      <trkpt lat="44.73735" lon="-0.34845">
        <ele>52</ele>
        <time>2012-09-02T13:26:14Z</time>
      </trkpt>
      <trkpt lat="44.73725" lon="-0.34845">
        <ele>52</ele>
        <time>2012-09-02T13:26:26Z</time>
      </trkpt>
      <trkpt lat="44.73728" lon="-0.34831">
        <ele>51</ele>
        <time>2012-09-02T13:26:46Z</time>
      </trkpt>
      <trkpt lat="44.73719" lon="-0.34836">
        <ele>51</ele>
        <time>2012-09-02T13:26:55Z</time>
      </trkpt>
      <trkpt lat="44.73708" lon="-0.34838">
        <ele>51</ele>
        <time>2012-09-02T13:27:01Z</time>
      </trkpt>
      <trkpt lat="44.737" lon="-0.34848">
        <ele>50</ele>
        <time>2012-09-02T13:27:06Z</time>
      </trkpt>
      <trkpt lat="44.73694" lon="-0.34862">
        <ele>50</ele>
        <time>2012-09-02T13:27:09Z</time>
      </trkpt>
      <trkpt lat="44.73684" lon="-0.34877">
        <ele>50</ele>
        <time>2012-09-02T13:27:14Z</time>
      </trkpt>
      <trkpt lat="44.73682" lon="-0.34891">
        <ele>50</ele>
        <time>2012-09-02T13:27:24Z</time>
      </trkpt>
      <trkpt lat="44.73674" lon="-0.349">
        <ele>50</ele>
        <time>2012-09-02T13:27:36Z</time>
      </trkpt>
      <trkpt lat="44.73673" lon="-0.34923">
        <ele>51</ele>
        <time>2012-09-02T13:27:50Z</time>
      </trkpt>
      <trkpt lat="44.73674" lon="-0.34936">
        <ele>51</ele>
        <time>2012-09-02T13:27:53Z</time>
      </trkpt>
      <trkpt lat="44.73673" lon="-0.34951">
        <ele>52</ele>
        <time>2012-09-02T13:28:02Z</time>
      </trkpt>
      <trkpt lat="44.73667" lon="-0.34966">
        <ele>52</ele>
        <time>2012-09-02T13:28:09Z</time>
      </trkpt>
      <trkpt lat="44.73666" lon="-0.3498">
        <ele>53</ele>
        <time>2012-09-02T13:28:15Z</time>
      </trkpt>
      <trkpt lat="44.73662" lon="-0.34992">
        <ele>54</ele>
        <time>2012-09-02T13:28:27Z</time>
      </trkpt>
      <trkpt lat="44.73656" lon="-0.35003">
        <ele>55</ele>
        <time>2012-09-02T13:28:39Z</time>
      </trkpt>
      <trkpt lat="44.73646" lon="-0.34999">
        <ele>55</ele>
        <time>2012-09-02T13:28:46Z</time>
      </trkpt>
      <trkpt lat="44.73639" lon="-0.35012">
        <ele>56</ele>
        <time>2012-09-02T13:28:55Z</time>
      </trkpt>
      <trkpt lat="44.73632" lon="-0.35025">
        <ele>57</ele>
        <time>2012-09-02T13:29:00Z</time>
      </trkpt>
      <trkpt lat="44.73629" lon="-0.35038">
        <ele>59</ele>
        <time>2012-09-02T13:29:05Z</time>
      </trkpt>
      <trkpt lat="44.73623" lon="-0.35051">
        <ele>60</ele>
        <time>2012-09-02T13:29:11Z</time>
      </trkpt>
      <trkpt lat="44.73619" lon="-0.35064">
        <ele>61</ele>
        <time>2012-09-02T13:29:15Z</time>
      </trkpt>
      <trkpt lat="44.73619" lon="-0.35077">
        <ele>62</ele>
        <time>2012-09-02T13:29:22Z</time>
      </trkpt>
      <trkpt lat="44.73614" lon="-0.35093">
        <ele>63</ele>
        <time>2012-09-02T13:29:30Z</time>
      </trkpt>
      <trkpt lat="44.73603" lon="-0.3509">
        <ele>63</ele>
        <time>2012-09-02T13:29:35Z</time>
      </trkpt>
      <trkpt lat="44.73593" lon="-0.35089">
        <ele>63</ele>
        <time>2012-09-02T13:29:38Z</time>
      </trkpt>
      <trkpt lat="44.73585" lon="-0.35101">
        <ele>64</ele>
        <time>2012-09-02T13:29:44Z</time>
      </trkpt>
      <trkpt lat="44.73578" lon="-0.35114">
        <ele>65</ele>
        <time>2012-09-02T13:29:50Z</time>
      </trkpt>
      <trkpt lat="44.73577" lon="-0.35128">
        <ele>66</ele>
        <time>2012-09-02T13:29:56Z</time>
      </trkpt>
      <trkpt lat="44.73577" lon="-0.35141">
        <ele>67</ele>
        <time>2012-09-02T13:30:03Z</time>
      </trkpt>
      <trkpt lat="44.73575" lon="-0.35146">
        <ele>67</ele>
        <time>2012-09-02T13:38:42Z</time>
      </trkpt>
      <trkpt lat="44.73575" lon="-0.35162">
        <ele>68</ele>
        <time>2012-09-02T13:38:56Z</time>
      </trkpt>
      <trkpt lat="44.73577" lon="-0.35175">
        <ele>69</ele>
        <time>2012-09-02T13:39:00Z</time>
      </trkpt>
      <trkpt lat="44.73581" lon="-0.35192">
        <ele>71</ele>
        <time>2012-09-02T13:39:06Z</time>
      </trkpt>
      <trkpt lat="44.73583" lon="-0.35207">
        <ele>72</ele>
        <time>2012-09-02T13:39:11Z</time>
      </trkpt>
      <trkpt lat="44.73589" lon="-0.35218">
        <ele>74</ele>
        <time>2012-09-02T13:39:18Z</time>
      </trkpt>
      <trkpt lat="44.73594" lon="-0.35231">
        <ele>75</ele>
        <time>2012-09-02T13:39:25Z</time>
      </trkpt>
      <trkpt lat="44.736" lon="-0.35244">
        <ele>77</ele>
        <time>2012-09-02T13:39:31Z</time>
      </trkpt>
      <trkpt lat="44.73608" lon="-0.35254">
        <ele>78</ele>
        <time>2012-09-02T13:39:37Z</time>
      </trkpt>
      <trkpt lat="44.73615" lon="-0.35264">
        <ele>80</ele>
        <time>2012-09-02T13:39:44Z</time>
      </trkpt>
      <trkpt lat="44.73625" lon="-0.35266">
        <ele>81</ele>
        <time>2012-09-02T13:39:58Z</time>
      </trkpt>
      <trkpt lat="44.73634" lon="-0.3527">
        <ele>82</ele>
        <time>2012-09-02T13:40:31Z</time>
      </trkpt>
      <trkpt lat="44.7364" lon="-0.3528">
        <ele>83</ele>
        <time>2012-09-02T13:40:59Z</time>
      </trkpt>
      <trkpt lat="44.73646" lon="-0.35289">
        <ele>84</ele>
        <time>2012-09-02T13:41:05Z</time>
      </trkpt>
      <trkpt lat="44.73654" lon="-0.35299">
        <ele>85</ele>
        <time>2012-09-02T13:41:11Z</time>
      </trkpt>
      <trkpt lat="44.7366" lon="-0.35311">
        <ele>86</ele>
        <time>2012-09-02T13:41:17Z</time>
      </trkpt>
      <trkpt lat="44.73666" lon="-0.35323">
        <ele>87</ele>
        <time>2012-09-02T13:41:24Z</time>
      </trkpt>
      <trkpt lat="44.73664" lon="-0.35336">
        <ele>88</ele>
        <time>2012-09-02T13:41:33Z</time>
      </trkpt>
      <trkpt lat="44.73669" lon="-0.3535">
        <ele>89</ele>
        <time>2012-09-02T13:41:41Z</time>
      </trkpt>
      <trkpt lat="44.73673" lon="-0.35364">
        <ele>89</ele>
        <time>2012-09-02T13:41:48Z</time>
      </trkpt>
      <trkpt lat="44.73676" lon="-0.35377">
        <ele>89</ele>
        <time>2012-09-02T13:41:53Z</time>
      </trkpt>
      <trkpt lat="44.73678" lon="-0.3539">
        <ele>89</ele>
        <time>2012-09-02T13:41:59Z</time>
      </trkpt>
      <trkpt lat="44.73683" lon="-0.35403">
        <ele>89</ele>
        <time>2012-09-02T13:42:06Z</time>
      </trkpt>
      <trkpt lat="44.73687" lon="-0.35415">
        <ele>89</ele>
        <time>2012-09-02T13:42:14Z</time>
      </trkpt>
      <trkpt lat="44.73692" lon="-0.35427">
        <ele>89</ele>
        <time>2012-09-02T13:42:22Z</time>
      </trkpt>
      <trkpt lat="44.73698" lon="-0.35439">
        <ele>89</ele>
        <time>2012-09-02T13:42:29Z</time>
      </trkpt>
      <trkpt lat="44.73703" lon="-0.35451">
        <ele>90</ele>
        <time>2012-09-02T13:42:36Z</time>
      </trkpt>
      <trkpt lat="44.73708" lon="-0.35464">
        <ele>90</ele>
        <time>2012-09-02T13:42:42Z</time>
      </trkpt>
      <trkpt lat="44.73714" lon="-0.35474">
        <ele>90</ele>
        <time>2012-09-02T13:42:51Z</time>
      </trkpt>
      <trkpt lat="44.73715" lon="-0.35487">
        <ele>90</ele>
        <time>2012-09-02T13:43:51Z</time>
      </trkpt>
      <trkpt lat="44.73721" lon="-0.35499">
        <ele>90</ele>
        <time>2012-09-02T13:45:06Z</time>
      </trkpt>
      <trkpt lat="44.73727" lon="-0.3551">
        <ele>91</ele>
        <time>2012-09-02T13:45:11Z</time>
      </trkpt>
      <trkpt lat="44.73733" lon="-0.35522">
        <ele>91</ele>
        <time>2012-09-02T13:45:16Z</time>
      </trkpt>
      <trkpt lat="44.73739" lon="-0.35534">
        <ele>91</ele>
        <time>2012-09-02T13:45:20Z</time>
      </trkpt>
      <trkpt lat="44.73745" lon="-0.35546">
        <ele>92</ele>
        <time>2012-09-02T13:45:24Z</time>
      </trkpt>
      <trkpt lat="44.73751" lon="-0.35559">
        <ele>92</ele>
        <time>2012-09-02T13:45:28Z</time>
      </trkpt>
      <trkpt lat="44.73755" lon="-0.35572">
        <ele>92</ele>
        <time>2012-09-02T13:45:32Z</time>
      </trkpt>
      <trkpt lat="44.7376" lon="-0.35585">
        <ele>92</ele>
        <time>2012-09-02T13:45:36Z</time>
      </trkpt>
      <trkpt lat="44.73763" lon="-0.35599">
        <ele>92</ele>
        <time>2012-09-02T13:45:40Z</time>
      </trkpt>
      <trkpt lat="44.73763" lon="-0.35615">
        <ele>93</ele>
        <time>2012-09-02T13:45:44Z</time>
      </trkpt>
      <trkpt lat="44.73765" lon="-0.35631">
        <ele>93</ele>
        <time>2012-09-02T13:45:48Z</time>
      </trkpt>
      <trkpt lat="44.73767" lon="-0.35647">
        <ele>93</ele>
        <time>2012-09-02T13:45:52Z</time>
      </trkpt>
      <trkpt lat="44.73769" lon="-0.35664">
        <ele>93</ele>
        <time>2012-09-02T13:45:56Z</time>
      </trkpt>
      <trkpt lat="44.73772" lon="-0.35678">
        <ele>93</ele>
        <time>2012-09-02T13:45:59Z</time>
      </trkpt>
      <trkpt lat="44.73774" lon="-0.35693">
        <ele>94</ele>
        <time>2012-09-02T13:46:02Z</time>
      </trkpt>
      <trkpt lat="44.73776" lon="-0.3571">
        <ele>93</ele>
        <time>2012-09-02T13:46:05Z</time>
      </trkpt>
      <trkpt lat="44.73779" lon="-0.35727">
        <ele>93</ele>
        <time>2012-09-02T13:46:08Z</time>
      </trkpt>
      <trkpt lat="44.73781" lon="-0.35744">
        <ele>94</ele>
        <time>2012-09-02T13:46:11Z</time>
      </trkpt>
      <trkpt lat="44.73783" lon="-0.35759">
        <ele>93</ele>
        <time>2012-09-02T13:46:14Z</time>
      </trkpt>
      <trkpt lat="44.73785" lon="-0.35774">
        <ele>93</ele>
        <time>2012-09-02T13:46:17Z</time>
      </trkpt>
      <trkpt lat="44.73787" lon="-0.35788">
        <ele>93</ele>
        <time>2012-09-02T13:46:20Z</time>
      </trkpt>
      <trkpt lat="44.73787" lon="-0.35802">
        <ele>93</ele>
        <time>2012-09-02T13:46:25Z</time>
      </trkpt>
      <trkpt lat="44.73779" lon="-0.3581">
        <ele>92</ele>
        <time>2012-09-02T13:46:29Z</time>
      </trkpt>
      <trkpt lat="44.73769" lon="-0.35815">
        <ele>92</ele>
        <time>2012-09-02T13:46:32Z</time>
      </trkpt>
      <trkpt lat="44.7376" lon="-0.35819">
        <ele>92</ele>
        <time>2012-09-02T13:46:35Z</time>
      </trkpt>
      <trkpt lat="44.73749" lon="-0.35825">
        <ele>91</ele>
        <time>2012-09-02T13:46:38Z</time>
      </trkpt>
      <trkpt lat="44.7374" lon="-0.35831">
        <ele>91</ele>
        <time>2012-09-02T13:46:41Z</time>
      </trkpt>
      <trkpt lat="44.73729" lon="-0.35837">
        <ele>91</ele>
        <time>2012-09-02T13:46:45Z</time>
      </trkpt>
      <trkpt lat="44.73719" lon="-0.35844">
        <ele>91</ele>
        <time>2012-09-02T13:46:49Z</time>
      </trkpt>
      <trkpt lat="44.73709" lon="-0.3585">
        <ele>91</ele>
        <time>2012-09-02T13:46:53Z</time>
      </trkpt>
      <trkpt lat="44.737" lon="-0.35856">
        <ele>91</ele>
        <time>2012-09-02T13:46:56Z</time>
      </trkpt>
      <trkpt lat="44.73691" lon="-0.3586">
        <ele>91</ele>
        <time>2012-09-02T13:46:59Z</time>
      </trkpt>
      <trkpt lat="44.73679" lon="-0.35862">
        <ele>91</ele>
        <time>2012-09-02T13:47:03Z</time>
      </trkpt>
      <trkpt lat="44.73671" lon="-0.35868">
        <ele>91</ele>
        <time>2012-09-02T13:47:07Z</time>
      </trkpt>
      <trkpt lat="44.73662" lon="-0.35874">
        <ele>91</ele>
        <time>2012-09-02T13:47:11Z</time>
      </trkpt>
      <trkpt lat="44.73653" lon="-0.35881">
        <ele>91</ele>
        <time>2012-09-02T13:47:16Z</time>
      </trkpt>
      <trkpt lat="44.73644" lon="-0.3589">
        <ele>91</ele>
        <time>2012-09-02T13:47:21Z</time>
      </trkpt>
      <trkpt lat="44.73634" lon="-0.35897">
        <ele>91</ele>
        <time>2012-09-02T13:47:25Z</time>
      </trkpt>
      <trkpt lat="44.73624" lon="-0.35901">
        <ele>91</ele>
        <time>2012-09-02T13:47:28Z</time>
      </trkpt>
      <trkpt lat="44.73615" lon="-0.35905">
        <ele>90</ele>
        <time>2012-09-02T13:47:31Z</time>
      </trkpt>
      <trkpt lat="44.73606" lon="-0.35909">
        <ele>90</ele>
        <time>2012-09-02T13:47:34Z</time>
      </trkpt>
      <trkpt lat="44.73596" lon="-0.35913">
        <ele>90</ele>
        <time>2012-09-02T13:47:37Z</time>
      </trkpt>
      <trkpt lat="44.73585" lon="-0.35916">
        <ele>90</ele>
        <time>2012-09-02T13:47:40Z</time>
      </trkpt>
      <trkpt lat="44.73575" lon="-0.35921">
        <ele>90</ele>
        <time>2012-09-02T13:47:43Z</time>
      </trkpt>
      <trkpt lat="44.73564" lon="-0.35927">
        <ele>90</ele>
        <time>2012-09-02T13:47:46Z</time>
      </trkpt>
      <trkpt lat="44.73553" lon="-0.35934">
        <ele>90</ele>
        <time>2012-09-02T13:47:49Z</time>
      </trkpt>
      <trkpt lat="44.73543" lon="-0.35939">
        <ele>90</ele>
        <time>2012-09-02T13:47:52Z</time>
      </trkpt>
      <trkpt lat="44.73533" lon="-0.35943">
        <ele>90</ele>
        <time>2012-09-02T13:47:55Z</time>
      </trkpt>
      <trkpt lat="44.73523" lon="-0.35948">
        <ele>90</ele>
        <time>2012-09-02T13:47:58Z</time>
      </trkpt>
      <trkpt lat="44.73512" lon="-0.35952">
        <ele>90</ele>
        <time>2012-09-02T13:48:01Z</time>
      </trkpt>
      <trkpt lat="44.73501" lon="-0.35956">
        <ele>90</ele>
        <time>2012-09-02T13:48:04Z</time>
      </trkpt>
      <trkpt lat="44.73486" lon="-0.35962">
        <ele>90</ele>
        <time>2012-09-02T13:48:08Z</time>
      </trkpt>
      <trkpt lat="44.73473" lon="-0.35969">
        <ele>90</ele>
        <time>2012-09-02T13:48:11Z</time>
      </trkpt>
      <trkpt lat="44.73461" lon="-0.35972">
        <ele>90</ele>
        <time>2012-09-02T13:48:14Z</time>
      </trkpt>
      <trkpt lat="44.7345" lon="-0.35978">
        <ele>90</ele>
        <time>2012-09-02T13:48:17Z</time>
      </trkpt>
      <trkpt lat="44.73439" lon="-0.35982">
        <ele>89</ele>
        <time>2012-09-02T13:48:20Z</time>
      </trkpt>
      <trkpt lat="44.73427" lon="-0.35987">
        <ele>89</ele>
        <time>2012-09-02T13:48:23Z</time>
      </trkpt>
      <trkpt lat="44.73417" lon="-0.3599">
        <ele>89</ele>
        <time>2012-09-02T13:48:25Z</time>
      </trkpt>
      <trkpt lat="44.73407" lon="-0.35994">
        <ele>89</ele>
        <time>2012-09-02T13:48:27Z</time>
      </trkpt>
      <trkpt lat="44.73397" lon="-0.35997">
        <ele>89</ele>
        <time>2012-09-02T13:48:29Z</time>
      </trkpt>
      <trkpt lat="44.73386" lon="-0.36001">
        <ele>89</ele>
        <time>2012-09-02T13:48:31Z</time>
      </trkpt>
      <trkpt lat="44.73376" lon="-0.36005">
        <ele>88</ele>
        <time>2012-09-02T13:48:33Z</time>
      </trkpt>
      <trkpt lat="44.73366" lon="-0.3601">
        <ele>88</ele>
        <time>2012-09-02T13:48:35Z</time>
      </trkpt>
      <trkpt lat="44.73355" lon="-0.36014">
        <ele>88</ele>
        <time>2012-09-02T13:48:37Z</time>
      </trkpt>
      <trkpt lat="44.7335" lon="-0.36068">
        <ele>86</ele>
        <time>2012-09-02T13:49:13Z</time>
      </trkpt>
      <trkpt lat="44.73352" lon="-0.36083">
        <ele>86</ele>
        <time>2012-09-02T13:49:17Z</time>
      </trkpt>
      <trkpt lat="44.73356" lon="-0.36097">
        <ele>86</ele>
        <time>2012-09-02T13:49:21Z</time>
      </trkpt>
      <trkpt lat="44.73359" lon="-0.36111">
        <ele>85</ele>
        <time>2012-09-02T13:49:25Z</time>
      </trkpt>
      <trkpt lat="44.73361" lon="-0.36124">
        <ele>85</ele>
        <time>2012-09-02T13:49:29Z</time>
      </trkpt>
      <trkpt lat="44.73359" lon="-0.36128">
        <ele>85</ele>
        <time>2012-09-02T13:49:34Z</time>
      </trkpt>
      <trkpt lat="44.73357" lon="-0.36126">
        <ele>85</ele>
        <time>2012-09-02T13:49:44Z</time>
      </trkpt>
      <trkpt lat="44.73347" lon="-0.36129">
        <ele>84</ele>
        <time>2012-09-02T13:50:10Z</time>
      </trkpt>
      <trkpt lat="44.73338" lon="-0.36137">
        <ele>82</ele>
        <time>2012-09-02T13:50:15Z</time>
      </trkpt>
      <trkpt lat="44.73329" lon="-0.36142">
        <ele>81</ele>
        <time>2012-09-02T13:50:19Z</time>
      </trkpt>
      <trkpt lat="44.73318" lon="-0.36146">
        <ele>81</ele>
        <time>2012-09-02T13:50:46Z</time>
      </trkpt>
      <trkpt lat="44.73308" lon="-0.36149">
        <ele>81</ele>
        <time>2012-09-02T13:50:51Z</time>
      </trkpt>
      <trkpt lat="44.73298" lon="-0.36153">
        <ele>80</ele>
        <time>2012-09-02T13:50:55Z</time>
      </trkpt>
      <trkpt lat="44.73288" lon="-0.36154">
        <ele>80</ele>
        <time>2012-09-02T13:50:59Z</time>
      </trkpt>
      <trkpt lat="44.73278" lon="-0.36156">
        <ele>81</ele>
        <time>2012-09-02T13:51:03Z</time>
      </trkpt>
      <trkpt lat="44.73267" lon="-0.36158">
        <ele>82</ele>
        <time>2012-09-02T13:51:07Z</time>
      </trkpt>
      <trkpt lat="44.73256" lon="-0.36159">
        <ele>83</ele>
        <time>2012-09-02T13:51:11Z</time>
      </trkpt>
      <trkpt lat="44.73245" lon="-0.36162">
        <ele>84</ele>
        <time>2012-09-02T13:51:15Z</time>
      </trkpt>
      <trkpt lat="44.73235" lon="-0.36167">
        <ele>85</ele>
        <time>2012-09-02T13:51:19Z</time>
      </trkpt>
      <trkpt lat="44.73226" lon="-0.36176">
        <ele>85</ele>
        <time>2012-09-02T13:51:23Z</time>
      </trkpt>
      <trkpt lat="44.73217" lon="-0.36185">
        <ele>85</ele>
        <time>2012-09-02T13:51:27Z</time>
      </trkpt>
      <trkpt lat="44.73211" lon="-0.36197">
        <ele>84</ele>
        <time>2012-09-02T13:51:31Z</time>
      </trkpt>
      <trkpt lat="44.73206" lon="-0.36209">
        <ele>84</ele>
        <time>2012-09-02T13:51:35Z</time>
      </trkpt>
      <trkpt lat="44.73202" lon="-0.36223">
        <ele>83</ele>
        <time>2012-09-02T13:51:39Z</time>
      </trkpt>
      <trkpt lat="44.73193" lon="-0.3623">
        <ele>83</ele>
        <time>2012-09-02T13:51:43Z</time>
      </trkpt>
      <trkpt lat="44.73182" lon="-0.36234">
        <ele>84</ele>
        <time>2012-09-02T13:51:47Z</time>
      </trkpt>
      <trkpt lat="44.73171" lon="-0.36236">
        <ele>85</ele>
        <time>2012-09-02T13:51:51Z</time>
      </trkpt>
      <trkpt lat="44.73161" lon="-0.36243">
        <ele>85</ele>
        <time>2012-09-02T13:51:55Z</time>
      </trkpt>
      <trkpt lat="44.73149" lon="-0.36245">
        <ele>86</ele>
        <time>2012-09-02T13:51:59Z</time>
      </trkpt>
      <trkpt lat="44.73137" lon="-0.36244">
        <ele>87</ele>
        <time>2012-09-02T13:52:02Z</time>
      </trkpt>
      <trkpt lat="44.73126" lon="-0.36248">
        <ele>88</ele>
        <time>2012-09-02T13:52:05Z</time>
      </trkpt>
      <trkpt lat="44.73117" lon="-0.36257">
        <ele>88</ele>
        <time>2012-09-02T13:52:09Z</time>
      </trkpt>
      <trkpt lat="44.73109" lon="-0.36266">
        <ele>89</ele>
        <time>2012-09-02T13:52:12Z</time>
      </trkpt>
      <trkpt lat="44.73107" lon="-0.36281">
        <ele>89</ele>
        <time>2012-09-02T13:52:15Z</time>
      </trkpt>
      <trkpt lat="44.73107" lon="-0.36296">
        <ele>89</ele>
        <time>2012-09-02T13:52:19Z</time>
      </trkpt>
      <trkpt lat="44.7311" lon="-0.36314">
        <ele>89</ele>
        <time>2012-09-02T13:52:23Z</time>
      </trkpt>
      <trkpt lat="44.73113" lon="-0.3633">
        <ele>89</ele>
        <time>2012-09-02T13:52:26Z</time>
      </trkpt>
      <trkpt lat="44.73117" lon="-0.36343">
        <ele>88</ele>
        <time>2012-09-02T13:52:29Z</time>
      </trkpt>
      <trkpt lat="44.73118" lon="-0.36357">
        <ele>88</ele>
        <time>2012-09-02T13:52:32Z</time>
      </trkpt>
      <trkpt lat="44.73112" lon="-0.36368">
        <ele>89</ele>
        <time>2012-09-02T13:52:35Z</time>
      </trkpt>
      <trkpt lat="44.731" lon="-0.36376">
        <ele>90</ele>
        <time>2012-09-02T13:52:38Z</time>
      </trkpt>
      <trkpt lat="44.73091" lon="-0.36381">
        <ele>90</ele>
        <time>2012-09-02T13:52:41Z</time>
      </trkpt>
      <trkpt lat="44.73089" lon="-0.36394">
        <ele>89</ele>
        <time>2012-09-02T13:52:46Z</time>
      </trkpt>
      <trkpt lat="44.73096" lon="-0.36402">
        <ele>89</ele>
        <time>2012-09-02T13:52:51Z</time>
      </trkpt>
      <trkpt lat="44.73107" lon="-0.36408">
        <ele>89</ele>
        <time>2012-09-02T13:52:56Z</time>
      </trkpt>
      <trkpt lat="44.73111" lon="-0.36421">
        <ele>88</ele>
        <time>2012-09-02T13:53:01Z</time>
      </trkpt>
      <trkpt lat="44.73105" lon="-0.36435">
        <ele>88</ele>
        <time>2012-09-02T13:53:04Z</time>
      </trkpt>
      <trkpt lat="44.73096" lon="-0.36446">
        <ele>88</ele>
        <time>2012-09-02T13:53:07Z</time>
      </trkpt>
      <trkpt lat="44.73092" lon="-0.36462">
        <ele>87</ele>
        <time>2012-09-02T13:53:11Z</time>
      </trkpt>
      <trkpt lat="44.73089" lon="-0.36475">
        <ele>86</ele>
        <time>2012-09-02T13:53:14Z</time>
      </trkpt>
      <trkpt lat="44.73089" lon="-0.36489">
        <ele>85</ele>
        <time>2012-09-02T13:53:17Z</time>
      </trkpt>
      <trkpt lat="44.73099" lon="-0.36495">
        <ele>84</ele>
        <time>2012-09-02T13:53:20Z</time>
      </trkpt>
      <trkpt lat="44.73108" lon="-0.36499">
        <ele>83</ele>
        <time>2012-09-02T13:53:24Z</time>
      </trkpt>
      <trkpt lat="44.73119" lon="-0.36502">
        <ele>82</ele>
        <time>2012-09-02T13:53:31Z</time>
      </trkpt>
      <trkpt lat="44.73128" lon="-0.36497">
        <ele>82</ele>
        <time>2012-09-02T13:53:35Z</time>
      </trkpt>
      <trkpt lat="44.73135" lon="-0.36488">
        <ele>82</ele>
        <time>2012-09-02T13:53:41Z</time>
      </trkpt>
      <trkpt lat="44.73144" lon="-0.36481">
        <ele>83</ele>
        <time>2012-09-02T13:53:47Z</time>
      </trkpt>
      <trkpt lat="44.73154" lon="-0.36478">
        <ele>82</ele>
        <time>2012-09-02T13:53:51Z</time>
      </trkpt>
      <trkpt lat="44.73167" lon="-0.36479">
        <ele>80</ele>
        <time>2012-09-02T13:53:55Z</time>
      </trkpt>
      <trkpt lat="44.73176" lon="-0.36486">
        <ele>77</ele>
        <time>2012-09-02T13:53:58Z</time>
      </trkpt>
      <trkpt lat="44.73182" lon="-0.36498">
        <ele>75</ele>
        <time>2012-09-02T13:54:02Z</time>
      </trkpt>
      <trkpt lat="44.73188" lon="-0.36511">
        <ele>72</ele>
        <time>2012-09-02T13:54:07Z</time>
      </trkpt>
      <trkpt lat="44.73197" lon="-0.36525">
        <ele>68</ele>
        <time>2012-09-02T13:54:11Z</time>
      </trkpt>
      <trkpt lat="44.73192" lon="-0.36537">
        <ele>68</ele>
        <time>2012-09-02T13:54:16Z</time>
      </trkpt>
      <trkpt lat="44.73181" lon="-0.36539">
        <ele>70</ele>
        <time>2012-09-02T13:54:19Z</time>
      </trkpt>
      <trkpt lat="44.73171" lon="-0.3654">
        <ele>71</ele>
        <time>2012-09-02T13:54:22Z</time>
      </trkpt>
      <trkpt lat="44.73178" lon="-0.3655">
        <ele>69</ele>
        <time>2012-09-02T13:54:30Z</time>
      </trkpt>
      <trkpt lat="44.73178" lon="-0.36567">
        <ele>66</ele>
        <time>2012-09-02T13:54:34Z</time>
      </trkpt>
      <trkpt lat="44.7318" lon="-0.36581">
        <ele>64</ele>
        <time>2012-09-02T13:54:37Z</time>
      </trkpt>
      <trkpt lat="44.73172" lon="-0.3659">
        <ele>64</ele>
        <time>2012-09-02T13:54:43Z</time>
      </trkpt>
      <trkpt lat="44.73165" lon="-0.36603">
        <ele>63</ele>
        <time>2012-09-02T13:54:47Z</time>
      </trkpt>
      <trkpt lat="44.73155" lon="-0.36613">
        <ele>63</ele>
        <time>2012-09-02T13:54:51Z</time>
      </trkpt>
      <trkpt lat="44.73145" lon="-0.36613">
        <ele>65</ele>
        <time>2012-09-02T13:54:54Z</time>
      </trkpt>
      <trkpt lat="44.73133" lon="-0.36616">
        <ele>65</ele>
        <time>2012-09-02T13:54:58Z</time>
      </trkpt>
      <trkpt lat="44.73126" lon="-0.36626">
        <ele>65</ele>
        <time>2012-09-02T13:55:01Z</time>
      </trkpt>
      <trkpt lat="44.73121" lon="-0.36639">
        <ele>64</ele>
        <time>2012-09-02T13:55:05Z</time>
      </trkpt>
      <trkpt lat="44.7311" lon="-0.36648">
        <ele>64</ele>
        <time>2012-09-02T13:55:09Z</time>
      </trkpt>
      <trkpt lat="44.73099" lon="-0.36647">
        <ele>66</ele>
        <time>2012-09-02T13:55:13Z</time>
      </trkpt>
      <trkpt lat="44.73089" lon="-0.36652">
        <ele>66</ele>
        <time>2012-09-02T13:55:18Z</time>
      </trkpt>
      <trkpt lat="44.73083" lon="-0.36666">
        <ele>65</ele>
        <time>2012-09-02T13:55:25Z</time>
      </trkpt>
      <trkpt lat="44.73085" lon="-0.36681">
        <ele>64</ele>
        <time>2012-09-02T13:55:29Z</time>
      </trkpt>
      <trkpt lat="44.73093" lon="-0.36691">
        <ele>63</ele>
        <time>2012-09-02T13:55:33Z</time>
      </trkpt>
      <trkpt lat="44.73101" lon="-0.36702">
        <ele>60</ele>
        <time>2012-09-02T13:55:38Z</time>
      </trkpt>
      <trkpt lat="44.73105" lon="-0.36714">
        <ele>58</ele>
        <time>2012-09-02T13:55:42Z</time>
      </trkpt>
      <trkpt lat="44.73095" lon="-0.36724">
        <ele>59</ele>
        <time>2012-09-02T13:55:47Z</time>
      </trkpt>
      <trkpt lat="44.73082" lon="-0.36727">
        <ele>60</ele>
        <time>2012-09-02T13:55:51Z</time>
      </trkpt>
      <trkpt lat="44.73071" lon="-0.36727">
        <ele>61</ele>
        <time>2012-09-02T13:55:55Z</time>
      </trkpt>
      <trkpt lat="44.73064" lon="-0.36737">
        <ele>61</ele>
        <time>2012-09-02T13:56:00Z</time>
      </trkpt>
      <trkpt lat="44.73053" lon="-0.36742">
        <ele>60</ele>
        <time>2012-09-02T13:56:04Z</time>
      </trkpt>
      <trkpt lat="44.73042" lon="-0.36738">
        <ele>61</ele>
        <time>2012-09-02T13:56:08Z</time>
      </trkpt>
      <trkpt lat="44.73034" lon="-0.36745">
        <ele>59</ele>
        <time>2012-09-02T13:56:24Z</time>
      </trkpt>
      <trkpt lat="44.73024" lon="-0.36751">
        <ele>58</ele>
        <time>2012-09-02T13:58:02Z</time>
      </trkpt>
      <trkpt lat="44.73025" lon="-0.3675">
        <ele>58</ele>
        <time>2012-09-02T13:58:45Z</time>
      </trkpt>
      <trkpt lat="44.7302" lon="-0.36747">
        <ele>58</ele>
        <time>2012-09-02T13:59:44Z</time>
      </trkpt>
      <trkpt lat="44.73018" lon="-0.36745">
        <ele>58</ele>
        <time>2012-09-02T14:00:01Z</time>
      </trkpt>
      <trkpt lat="44.73009" lon="-0.36737">
        <ele>59</ele>
        <time>2012-09-02T14:00:07Z</time>
      </trkpt>
      <trkpt lat="44.73003" lon="-0.36727">
        <ele>60</ele>
        <time>2012-09-02T14:00:12Z</time>
      </trkpt>
      <trkpt lat="44.72992" lon="-0.36724">
        <ele>59</ele>
        <time>2012-09-02T14:00:15Z</time>
      </trkpt>
      <trkpt lat="44.72979" lon="-0.36725">
        <ele>59</ele>
        <time>2012-09-02T14:00:19Z</time>
      </trkpt>
      <trkpt lat="44.72969" lon="-0.36728">
        <ele>58</ele>
        <time>2012-09-02T14:00:21Z</time>
      </trkpt>
      <trkpt lat="44.72959" lon="-0.36731">
        <ele>57</ele>
        <time>2012-09-02T14:00:24Z</time>
      </trkpt>
      <trkpt lat="44.72949" lon="-0.36733">
        <ele>56</ele>
        <time>2012-09-02T14:00:27Z</time>
      </trkpt>
      <trkpt lat="44.72939" lon="-0.36735">
        <ele>56</ele>
        <time>2012-09-02T14:00:31Z</time>
      </trkpt>
      <trkpt lat="44.72945" lon="-0.36753">
        <ele>54</ele>
        <time>2012-09-02T14:00:36Z</time>
      </trkpt>
      <trkpt lat="44.7295" lon="-0.36765">
        <ele>52</ele>
        <time>2012-09-02T14:00:38Z</time>
      </trkpt>
      <trkpt lat="44.72952" lon="-0.36782">
        <ele>50</ele>
        <time>2012-09-02T14:00:41Z</time>
      </trkpt>
      <trkpt lat="44.72955" lon="-0.368">
        <ele>50</ele>
        <time>2012-09-02T14:00:44Z</time>
      </trkpt>
      <trkpt lat="44.72962" lon="-0.36809">
        <ele>49</ele>
        <time>2012-09-02T14:00:46Z</time>
      </trkpt>
      <trkpt lat="44.7297" lon="-0.36817">
        <ele>49</ele>
        <time>2012-09-02T14:00:48Z</time>
      </trkpt>
      <trkpt lat="44.7298" lon="-0.36816">
        <ele>49</ele>
        <time>2012-09-02T14:00:51Z</time>
      </trkpt>
      <trkpt lat="44.72991" lon="-0.36812">
        <ele>49</ele>
        <time>2012-09-02T14:00:55Z</time>
      </trkpt>
      <trkpt lat="44.73" lon="-0.36823">
        <ele>48</ele>
        <time>2012-09-02T14:01:00Z</time>
      </trkpt>
      <trkpt lat="44.73009" lon="-0.36826">
        <ele>48</ele>
        <time>2012-09-02T14:01:03Z</time>
      </trkpt>
      <trkpt lat="44.73016" lon="-0.36835">
        <ele>47</ele>
        <time>2012-09-02T14:01:07Z</time>
      </trkpt>
      <trkpt lat="44.73026" lon="-0.36839">
        <ele>47</ele>
        <time>2012-09-02T14:01:12Z</time>
      </trkpt>
      <trkpt lat="44.73035" lon="-0.36835">
        <ele>48</ele>
        <time>2012-09-02T14:01:15Z</time>
      </trkpt>
      <trkpt lat="44.73047" lon="-0.36833">
        <ele>49</ele>
        <time>2012-09-02T14:01:18Z</time>
      </trkpt>
      <trkpt lat="44.73056" lon="-0.36836">
        <ele>48</ele>
        <time>2012-09-02T14:01:24Z</time>
      </trkpt>
      <trkpt lat="44.73067" lon="-0.36833">
        <ele>49</ele>
        <time>2012-09-02T14:01:32Z</time>
      </trkpt>
      <trkpt lat="44.73078" lon="-0.36834">
        <ele>49</ele>
        <time>2012-09-02T14:01:37Z</time>
      </trkpt>
      <trkpt lat="44.73089" lon="-0.36834">
        <ele>49</ele>
        <time>2012-09-02T14:01:40Z</time>
      </trkpt>
      <trkpt lat="44.73099" lon="-0.36842">
        <ele>46</ele>
        <time>2012-09-02T14:01:44Z</time>
      </trkpt>
      <trkpt lat="44.73103" lon="-0.36858">
        <ele>44</ele>
        <time>2012-09-02T14:01:48Z</time>
      </trkpt>
      <trkpt lat="44.73097" lon="-0.36869">
        <ele>44</ele>
        <time>2012-09-02T14:01:51Z</time>
      </trkpt>
      <trkpt lat="44.73092" lon="-0.3688">
        <ele>43</ele>
        <time>2012-09-02T14:01:56Z</time>
      </trkpt>
      <trkpt lat="44.73093" lon="-0.36894">
        <ele>42</ele>
        <time>2012-09-02T14:02:09Z</time>
      </trkpt>
      <trkpt lat="44.73097" lon="-0.36907">
        <ele>40</ele>
        <time>2012-09-02T14:02:20Z</time>
      </trkpt>
      <trkpt lat="44.73105" lon="-0.36916">
        <ele>40</ele>
        <time>2012-09-02T14:02:43Z</time>
      </trkpt>
      <trkpt lat="44.73101" lon="-0.3693">
        <ele>41</ele>
        <time>2012-09-02T14:02:56Z</time>
      </trkpt>
      <trkpt lat="44.73099" lon="-0.36947">
        <ele>41</ele>
        <time>2012-09-02T14:03:01Z</time>
      </trkpt>
      <trkpt lat="44.73102" lon="-0.36962">
        <ele>42</ele>
        <time>2012-09-02T14:03:06Z</time>
      </trkpt>
      <trkpt lat="44.73112" lon="-0.36982">
        <ele>41</ele>
        <time>2012-09-02T14:03:11Z</time>
      </trkpt>
      <trkpt lat="44.7312" lon="-0.36991">
        <ele>39</ele>
        <time>2012-09-02T14:03:14Z</time>
      </trkpt>
      <trkpt lat="44.73126" lon="-0.37003">
        <ele>38</ele>
        <time>2012-09-02T14:03:19Z</time>
      </trkpt>
      <trkpt lat="44.7313" lon="-0.37015">
        <ele>37</ele>
        <time>2012-09-02T14:03:24Z</time>
      </trkpt>
      <trkpt lat="44.73127" lon="-0.37029">
        <ele>37</ele>
        <time>2012-09-02T14:03:30Z</time>
      </trkpt>
      <trkpt lat="44.73121" lon="-0.37039">
        <ele>39</ele>
        <time>2012-09-02T14:03:33Z</time>
      </trkpt>
      <trkpt lat="44.73124" lon="-0.37055">
        <ele>37</ele>
        <time>2012-09-02T14:03:38Z</time>
      </trkpt>
      <trkpt lat="44.73124" lon="-0.37069">
        <ele>37</ele>
        <time>2012-09-02T14:03:41Z</time>
      </trkpt>
      <trkpt lat="44.73123" lon="-0.37083">
        <ele>37</ele>
        <time>2012-09-02T14:03:44Z</time>
      </trkpt>
      <trkpt lat="44.7312" lon="-0.37097">
        <ele>37</ele>
        <time>2012-09-02T14:03:48Z</time>
      </trkpt>
      <trkpt lat="44.73109" lon="-0.37094">
        <ele>39</ele>
        <time>2012-09-02T14:03:54Z</time>
      </trkpt>
      <trkpt lat="44.73099" lon="-0.37094">
        <ele>41</ele>
        <time>2012-09-02T14:04:12Z</time>
      </trkpt>
      <trkpt lat="44.73089" lon="-0.37096">
        <ele>43</ele>
        <time>2012-09-02T14:04:24Z</time>
      </trkpt>
      <trkpt lat="44.7308" lon="-0.37101">
        <ele>44</ele>
        <time>2012-09-02T14:04:33Z</time>
      </trkpt>
      <trkpt lat="44.73071" lon="-0.37098">
        <ele>46</ele>
        <time>2012-09-02T14:04:49Z</time>
      </trkpt>
      <trkpt lat="44.73061" lon="-0.37097">
        <ele>48</ele>
        <time>2012-09-02T14:04:57Z</time>
      </trkpt>
      <trkpt lat="44.73051" lon="-0.37098">
        <ele>50</ele>
        <time>2012-09-02T14:05:16Z</time>
      </trkpt>
      <trkpt lat="44.73039" lon="-0.37096">
        <ele>52</ele>
        <time>2012-09-02T14:05:22Z</time>
      </trkpt>
      <trkpt lat="44.7303" lon="-0.37098">
        <ele>53</ele>
        <time>2012-09-02T14:05:27Z</time>
      </trkpt>
      <trkpt lat="44.73019" lon="-0.371">
        <ele>53</ele>
        <time>2012-09-02T14:05:31Z</time>
      </trkpt>
      <trkpt lat="44.7301" lon="-0.37101">
        <ele>54</ele>
        <time>2012-09-02T14:05:34Z</time>
      </trkpt>
      <trkpt lat="44.73002" lon="-0.37108">
        <ele>53</ele>
        <time>2012-09-02T14:05:37Z</time>
      </trkpt>
      <trkpt lat="44.72993" lon="-0.37111">
        <ele>53</ele>
        <time>2012-09-02T14:05:42Z</time>
      </trkpt>
      <trkpt lat="44.72983" lon="-0.37113">
        <ele>54</ele>
        <time>2012-09-02T14:05:48Z</time>
      </trkpt>
      <trkpt lat="44.72972" lon="-0.37119">
        <ele>54</ele>
        <time>2012-09-02T14:05:53Z</time>
      </trkpt>
      <trkpt lat="44.72961" lon="-0.37123">
        <ele>54</ele>
        <time>2012-09-02T14:05:58Z</time>
      </trkpt>
      <trkpt lat="44.7295" lon="-0.37124">
        <ele>55</ele>
        <time>2012-09-02T14:06:02Z</time>
      </trkpt>
      <trkpt lat="44.72941" lon="-0.37128">
        <ele>55</ele>
        <time>2012-09-02T14:06:06Z</time>
      </trkpt>
      <trkpt lat="44.72933" lon="-0.37138">
        <ele>55</ele>
        <time>2012-09-02T14:06:11Z</time>
      </trkpt>
      <trkpt lat="44.7292" lon="-0.3714">
        <ele>56</ele>
        <time>2012-09-02T14:06:14Z</time>
      </trkpt>
      <trkpt lat="44.72913" lon="-0.37148">
        <ele>56</ele>
        <time>2012-09-02T14:06:19Z</time>
      </trkpt>
      <trkpt lat="44.72905" lon="-0.37169">
        <ele>55</ele>
        <time>2012-09-02T14:06:25Z</time>
      </trkpt>
      <trkpt lat="44.72896" lon="-0.37179">
        <ele>55</ele>
        <time>2012-09-02T14:06:28Z</time>
      </trkpt>
      <trkpt lat="44.72887" lon="-0.37178">
        <ele>56</ele>
        <time>2012-09-02T14:06:32Z</time>
      </trkpt>
      <trkpt lat="44.72877" lon="-0.3718">
        <ele>57</ele>
        <time>2012-09-02T14:06:37Z</time>
      </trkpt>
      <trkpt lat="44.72865" lon="-0.37182">
        <ele>58</ele>
        <time>2012-09-02T14:06:42Z</time>
      </trkpt>
      <trkpt lat="44.72855" lon="-0.37184">
        <ele>59</ele>
        <time>2012-09-02T14:06:47Z</time>
      </trkpt>
      <trkpt lat="44.72847" lon="-0.37189">
        <ele>60</ele>
        <time>2012-09-02T14:07:33Z</time>
      </trkpt>
      <trkpt lat="44.72855" lon="-0.37205">
        <ele>58</ele>
        <time>2012-09-02T14:11:18Z</time>
      </trkpt>
      <trkpt lat="44.72852" lon="-0.37221">
        <ele>57</ele>
        <time>2012-09-02T14:11:22Z</time>
      </trkpt>
      <trkpt lat="44.72843" lon="-0.37228">
        <ele>58</ele>
        <time>2012-09-02T14:11:27Z</time>
      </trkpt>
      <trkpt lat="44.72834" lon="-0.37235">
        <ele>58</ele>
        <time>2012-09-02T14:11:34Z</time>
      </trkpt>
      <trkpt lat="44.72825" lon="-0.37241">
        <ele>59</ele>
        <time>2012-09-02T14:11:39Z</time>
      </trkpt>
      <trkpt lat="44.72816" lon="-0.37246">
        <ele>60</ele>
        <time>2012-09-02T14:11:45Z</time>
      </trkpt>
      <trkpt lat="44.72806" lon="-0.37251">
        <ele>60</ele>
        <time>2012-09-02T14:11:51Z</time>
      </trkpt>
      <trkpt lat="44.72797" lon="-0.37257">
        <ele>61</ele>
        <time>2012-09-02T14:11:57Z</time>
      </trkpt>
      <trkpt lat="44.72788" lon="-0.37261">
        <ele>63</ele>
        <time>2012-09-02T14:12:04Z</time>
      </trkpt>
      <trkpt lat="44.72778" lon="-0.37264">
        <ele>64</ele>
        <time>2012-09-02T14:12:12Z</time>
      </trkpt>
      <trkpt lat="44.72768" lon="-0.37268">
        <ele>65</ele>
        <time>2012-09-02T14:12:19Z</time>
      </trkpt>
      <trkpt lat="44.72759" lon="-0.37268">
        <ele>67</ele>
        <time>2012-09-02T14:12:27Z</time>
      </trkpt>
      <trkpt lat="44.72749" lon="-0.3727">
        <ele>68</ele>
        <time>2012-09-02T14:12:35Z</time>
      </trkpt>
      <trkpt lat="44.7274" lon="-0.37273">
        <ele>70</ele>
        <time>2012-09-02T14:12:44Z</time>
      </trkpt>
      <trkpt lat="44.72729" lon="-0.37275">
        <ele>72</ele>
        <time>2012-09-02T14:12:53Z</time>
      </trkpt>
      <trkpt lat="44.72719" lon="-0.37277">
        <ele>73</ele>
        <time>2012-09-02T14:13:02Z</time>
      </trkpt>
      <trkpt lat="44.72709" lon="-0.37278">
        <ele>74</ele>
        <time>2012-09-02T14:13:11Z</time>
      </trkpt>
      <trkpt lat="44.72699" lon="-0.37281">
        <ele>75</ele>
        <time>2012-09-02T14:13:20Z</time>
      </trkpt>
      <trkpt lat="44.72689" lon="-0.37283">
        <ele>76</ele>
        <time>2012-09-02T14:13:30Z</time>
      </trkpt>
      <trkpt lat="44.72679" lon="-0.37283">
        <ele>77</ele>
        <time>2012-09-02T14:13:38Z</time>
      </trkpt>
      <trkpt lat="44.72678" lon="-0.37298">
        <ele>78</ele>
        <time>2012-09-02T14:14:25Z</time>
      </trkpt>
      <trkpt lat="44.72683" lon="-0.37311">
        <ele>78</ele>
        <time>2012-09-02T14:14:31Z</time>
      </trkpt>
      <trkpt lat="44.72689" lon="-0.37322">
        <ele>78</ele>
        <time>2012-09-02T14:14:37Z</time>
      </trkpt>
      <trkpt lat="44.72693" lon="-0.37336">
        <ele>78</ele>
        <time>2012-09-02T14:14:51Z</time>
      </trkpt>
      <trkpt lat="44.72697" lon="-0.37348">
        <ele>78</ele>
        <time>2012-09-02T14:14:57Z</time>
      </trkpt>
      <trkpt lat="44.72702" lon="-0.3736">
        <ele>79</ele>
        <time>2012-09-02T14:15:02Z</time>
      </trkpt>
      <trkpt lat="44.72706" lon="-0.37374">
        <ele>79</ele>
        <time>2012-09-02T14:15:06Z</time>
      </trkpt>
      <trkpt lat="44.72713" lon="-0.37389">
        <ele>79</ele>
        <time>2012-09-02T14:15:10Z</time>
      </trkpt>
      <trkpt lat="44.72719" lon="-0.374">
        <ele>79</ele>
        <time>2012-09-02T14:15:13Z</time>
      </trkpt>
      <trkpt lat="44.72726" lon="-0.37411">
        <ele>79</ele>
        <time>2012-09-02T14:15:16Z</time>
      </trkpt>
      <trkpt lat="44.72733" lon="-0.37423">
        <ele>78</ele>
        <time>2012-09-02T14:15:19Z</time>
      </trkpt>
      <trkpt lat="44.72738" lon="-0.37436">
        <ele>78</ele>
        <time>2012-09-02T14:15:22Z</time>
      </trkpt>
      <trkpt lat="44.72741" lon="-0.37452">
        <ele>79</ele>
        <time>2012-09-02T14:15:25Z</time>
      </trkpt>
      <trkpt lat="44.72745" lon="-0.37465">
        <ele>79</ele>
        <time>2012-09-02T14:15:28Z</time>
      </trkpt>
      <trkpt lat="44.72749" lon="-0.3748">
        <ele>79</ele>
        <time>2012-09-02T14:15:31Z</time>
      </trkpt>
      <trkpt lat="44.72755" lon="-0.37495">
        <ele>79</ele>
        <time>2012-09-02T14:15:34Z</time>
      </trkpt>
      <trkpt lat="44.72763" lon="-0.37507">
        <ele>79</ele>
        <time>2012-09-02T14:15:37Z</time>
      </trkpt>
      <trkpt lat="44.72774" lon="-0.37506">
        <ele>79</ele>
        <time>2012-09-02T14:15:40Z</time>
      </trkpt>
      <trkpt lat="44.72783" lon="-0.37499">
        <ele>79</ele>
        <time>2012-09-02T14:15:42Z</time>
      </trkpt>
      <trkpt lat="44.72793" lon="-0.3749">
        <ele>78</ele>
        <time>2012-09-02T14:15:44Z</time>
      </trkpt>
      <trkpt lat="44.72803" lon="-0.3748">
        <ele>77</ele>
        <time>2012-09-02T14:15:46Z</time>
      </trkpt>
      <trkpt lat="44.72813" lon="-0.37471">
        <ele>75</ele>
        <time>2012-09-02T14:15:48Z</time>
      </trkpt>
      <trkpt lat="44.72822" lon="-0.37462">
        <ele>74</ele>
        <time>2012-09-02T14:15:50Z</time>
      </trkpt>
      <trkpt lat="44.72832" lon="-0.3746">
        <ele>74</ele>
        <time>2012-09-02T14:15:52Z</time>
      </trkpt>
      <trkpt lat="44.72841" lon="-0.37466">
        <ele>74</ele>
        <time>2012-09-02T14:15:54Z</time>
      </trkpt>
      <trkpt lat="44.72848" lon="-0.37478">
        <ele>75</ele>
        <time>2012-09-02T14:15:57Z</time>
      </trkpt>
      <trkpt lat="44.72853" lon="-0.37492">
        <ele>76</ele>
        <time>2012-09-02T14:16:00Z</time>
      </trkpt>
      <trkpt lat="44.72861" lon="-0.37505">
        <ele>76</ele>
        <time>2012-09-02T14:16:03Z</time>
      </trkpt>
      <trkpt lat="44.72868" lon="-0.37519">
        <ele>76</ele>
        <time>2012-09-02T14:16:06Z</time>
      </trkpt>
      <trkpt lat="44.72873" lon="-0.37533">
        <ele>77</ele>
        <time>2012-09-02T14:16:09Z</time>
      </trkpt>
      <trkpt lat="44.7288" lon="-0.37551">
        <ele>76</ele>
        <time>2012-09-02T14:16:12Z</time>
      </trkpt>
      <trkpt lat="44.72885" lon="-0.37562">
        <ele>76</ele>
        <time>2012-09-02T14:16:14Z</time>
      </trkpt>
      <trkpt lat="44.7289" lon="-0.37575">
        <ele>75</ele>
        <time>2012-09-02T14:16:16Z</time>
      </trkpt>
      <trkpt lat="44.72896" lon="-0.37587">
        <ele>74</ele>
        <time>2012-09-02T14:16:18Z</time>
      </trkpt>
      <trkpt lat="44.72902" lon="-0.37603">
        <ele>73</ele>
        <time>2012-09-02T14:16:20Z</time>
      </trkpt>
      <trkpt lat="44.72909" lon="-0.3762">
        <ele>72</ele>
        <time>2012-09-02T14:16:22Z</time>
      </trkpt>
      <trkpt lat="44.72914" lon="-0.37638">
        <ele>71</ele>
        <time>2012-09-02T14:16:24Z</time>
      </trkpt>
      <trkpt lat="44.72921" lon="-0.37657">
        <ele>69</ele>
        <time>2012-09-02T14:16:26Z</time>
      </trkpt>
      <trkpt lat="44.72929" lon="-0.37679">
        <ele>68</ele>
        <time>2012-09-02T14:16:28Z</time>
      </trkpt>
      <trkpt lat="44.72935" lon="-0.377">
        <ele>66</ele>
        <time>2012-09-02T14:16:30Z</time>
      </trkpt>
      <trkpt lat="44.72942" lon="-0.37717">
        <ele>65</ele>
        <time>2012-09-02T14:16:32Z</time>
      </trkpt>
      <trkpt lat="44.72952" lon="-0.37727">
        <ele>63</ele>
        <time>2012-09-02T14:16:34Z</time>
      </trkpt>
      <trkpt lat="44.72969" lon="-0.37717">
        <ele>60</ele>
        <time>2012-09-02T14:16:36Z</time>
      </trkpt>
      <trkpt lat="44.72978" lon="-0.37712">
        <ele>59</ele>
        <time>2012-09-02T14:16:37Z</time>
      </trkpt>
      <trkpt lat="44.72996" lon="-0.37711">
        <ele>57</ele>
        <time>2012-09-02T14:16:39Z</time>
      </trkpt>
      <trkpt lat="44.73011" lon="-0.37715">
        <ele>56</ele>
        <time>2012-09-02T14:16:41Z</time>
      </trkpt>
      <trkpt lat="44.73028" lon="-0.37716">
        <ele>54</ele>
        <time>2012-09-02T14:16:43Z</time>
      </trkpt>
      <trkpt lat="44.73037" lon="-0.37715">
        <ele>54</ele>
        <time>2012-09-02T14:16:44Z</time>
      </trkpt>
      <trkpt lat="44.73046" lon="-0.37711">
        <ele>53</ele>
        <time>2012-09-02T14:16:45Z</time>
      </trkpt>
      <trkpt lat="44.73056" lon="-0.37708">
        <ele>52</ele>
        <time>2012-09-02T14:16:46Z</time>
      </trkpt>
      <trkpt lat="44.73066" lon="-0.37702">
        <ele>51</ele>
        <time>2012-09-02T14:16:47Z</time>
      </trkpt>
      <trkpt lat="44.73076" lon="-0.37698">
        <ele>50</ele>
        <time>2012-09-02T14:16:48Z</time>
      </trkpt>
      <trkpt lat="44.73087" lon="-0.37694">
        <ele>49</ele>
        <time>2012-09-02T14:16:49Z</time>
      </trkpt>
      <trkpt lat="44.73096" lon="-0.37692">
        <ele>48</ele>
        <time>2012-09-02T14:16:50Z</time>
      </trkpt>
      <trkpt lat="44.73106" lon="-0.37688">
        <ele>48</ele>
        <time>2012-09-02T14:16:51Z</time>
      </trkpt>
      <trkpt lat="44.73115" lon="-0.37685">
        <ele>47</ele>
        <time>2012-09-02T14:16:52Z</time>
      </trkpt>
      <trkpt lat="44.73126" lon="-0.37684">
        <ele>46</ele>
        <time>2012-09-02T14:16:53Z</time>
      </trkpt>
      <trkpt lat="44.73136" lon="-0.37684">
        <ele>44</ele>
        <time>2012-09-02T14:16:54Z</time>
      </trkpt>
      <trkpt lat="44.73146" lon="-0.37685">
        <ele>43</ele>
        <time>2012-09-02T14:16:55Z</time>
      </trkpt>
      <trkpt lat="44.73156" lon="-0.37687">
        <ele>41</ele>
        <time>2012-09-02T14:16:56Z</time>
      </trkpt>
      <trkpt lat="44.73174" lon="-0.37691">
        <ele>39</ele>
        <time>2012-09-02T14:16:58Z</time>
      </trkpt>
      <trkpt lat="44.73191" lon="-0.37697">
        <ele>36</ele>
        <time>2012-09-02T14:17:00Z</time>
      </trkpt>
      <trkpt lat="44.73209" lon="-0.3771">
        <ele>33</ele>
        <time>2012-09-02T14:17:03Z</time>
      </trkpt>
      <trkpt lat="44.73216" lon="-0.37731">
        <ele>31</ele>
        <time>2012-09-02T14:17:05Z</time>
      </trkpt>
      <trkpt lat="44.73224" lon="-0.37746">
        <ele>29</ele>
        <time>2012-09-02T14:17:07Z</time>
      </trkpt>
      <trkpt lat="44.73233" lon="-0.37763">
        <ele>28</ele>
        <time>2012-09-02T14:17:09Z</time>
      </trkpt>
      <trkpt lat="44.7324" lon="-0.37779">
        <ele>26</ele>
        <time>2012-09-02T14:17:11Z</time>
      </trkpt>
      <trkpt lat="44.7325" lon="-0.37798">
        <ele>24</ele>
        <time>2012-09-02T14:17:13Z</time>
      </trkpt>
      <trkpt lat="44.73253" lon="-0.3782">
        <ele>24</ele>
        <time>2012-09-02T14:17:15Z</time>
      </trkpt>
      <trkpt lat="44.73257" lon="-0.37841">
        <ele>23</ele>
        <time>2012-09-02T14:17:17Z</time>
      </trkpt>
      <trkpt lat="44.73258" lon="-0.37856">
        <ele>23</ele>
        <time>2012-09-02T14:17:19Z</time>
      </trkpt>
      <trkpt lat="44.73265" lon="-0.37865">
        <ele>23</ele>
        <time>2012-09-02T14:17:24Z</time>
      </trkpt>
      <trkpt lat="44.73275" lon="-0.37869">
        <ele>22</ele>
        <time>2012-09-02T14:17:29Z</time>
      </trkpt>
      <trkpt lat="44.73276" lon="-0.37883">
        <ele>22</ele>
        <time>2012-09-02T14:17:33Z</time>
      </trkpt>
      <trkpt lat="44.73276" lon="-0.37889">
        <ele>21</ele>
        <time>2012-09-02T14:17:41Z</time>
      </trkpt>
      <trkpt lat="44.73278" lon="-0.37891">
        <ele>21</ele>
        <time>2012-09-02T14:17:49Z</time>
      </trkpt>
      <trkpt lat="44.73275" lon="-0.37904">
        <ele>20</ele>
        <time>2012-09-02T14:18:11Z</time>
      </trkpt>
      <trkpt lat="44.73265" lon="-0.37908">
        <ele>20</ele>
        <time>2012-09-02T14:18:16Z</time>
      </trkpt>
      <trkpt lat="44.73255" lon="-0.37909">
        <ele>19</ele>
        <time>2012-09-02T14:18:19Z</time>
      </trkpt>
      <trkpt lat="44.73244" lon="-0.37913">
        <ele>19</ele>
        <time>2012-09-02T14:18:22Z</time>
      </trkpt>
      <trkpt lat="44.73235" lon="-0.37917">
        <ele>19</ele>
        <time>2012-09-02T14:18:24Z</time>
      </trkpt>
      <trkpt lat="44.73226" lon="-0.37922">
        <ele>19</ele>
        <time>2012-09-02T14:18:26Z</time>
      </trkpt>
      <trkpt lat="44.73213" lon="-0.37927">
        <ele>19</ele>
        <time>2012-09-02T14:18:29Z</time>
      </trkpt>
      <trkpt lat="44.73204" lon="-0.37933">
        <ele>20</ele>
        <time>2012-09-02T14:18:31Z</time>
      </trkpt>
      <trkpt lat="44.73194" lon="-0.37939">
        <ele>20</ele>
        <time>2012-09-02T14:18:33Z</time>
      </trkpt>
      <trkpt lat="44.73184" lon="-0.37941">
        <ele>20</ele>
        <time>2012-09-02T14:18:35Z</time>
      </trkpt>
      <trkpt lat="44.73173" lon="-0.37946">
        <ele>20</ele>
        <time>2012-09-02T14:18:37Z</time>
      </trkpt>
      <trkpt lat="44.73162" lon="-0.37953">
        <ele>20</ele>
        <time>2012-09-02T14:18:39Z</time>
      </trkpt>
      <trkpt lat="44.73149" lon="-0.3796">
        <ele>20</ele>
        <time>2012-09-02T14:18:41Z</time>
      </trkpt>
      <trkpt lat="44.7314" lon="-0.37966">
        <ele>20</ele>
        <time>2012-09-02T14:18:43Z</time>
      </trkpt>
      <trkpt lat="44.7313" lon="-0.37972">
        <ele>20</ele>
        <time>2012-09-02T14:18:45Z</time>
      </trkpt>
      <trkpt lat="44.73121" lon="-0.37976">
        <ele>20</ele>
        <time>2012-09-02T14:18:47Z</time>
      </trkpt>
      <trkpt lat="44.7311" lon="-0.37983">
        <ele>19</ele>
        <time>2012-09-02T14:18:49Z</time>
      </trkpt>
      <trkpt lat="44.73098" lon="-0.37987">
        <ele>19</ele>
        <time>2012-09-02T14:18:52Z</time>
      </trkpt>
      <trkpt lat="44.73088" lon="-0.37991">
        <ele>20</ele>
        <time>2012-09-02T14:18:56Z</time>
      </trkpt>
      <trkpt lat="44.73078" lon="-0.37994">
        <ele>20</ele>
        <time>2012-09-02T14:19:00Z</time>
      </trkpt>
      <trkpt lat="44.73067" lon="-0.37997">
        <ele>20</ele>
        <time>2012-09-02T14:19:03Z</time>
      </trkpt>
      <trkpt lat="44.73055" lon="-0.38003">
        <ele>20</ele>
        <time>2012-09-02T14:19:06Z</time>
      </trkpt>
      <trkpt lat="44.73042" lon="-0.3801">
        <ele>20</ele>
        <time>2012-09-02T14:19:09Z</time>
      </trkpt>
      <trkpt lat="44.7303" lon="-0.38017">
        <ele>20</ele>
        <time>2012-09-02T14:19:12Z</time>
      </trkpt>
      <trkpt lat="44.73018" lon="-0.38022">
        <ele>20</ele>
        <time>2012-09-02T14:19:15Z</time>
      </trkpt>
      <trkpt lat="44.73007" lon="-0.38028">
        <ele>20</ele>
        <time>2012-09-02T14:19:18Z</time>
      </trkpt>
      <trkpt lat="44.73001" lon="-0.38038">
        <ele>19</ele>
        <time>2012-09-02T14:19:22Z</time>
      </trkpt>
      <trkpt lat="44.73006" lon="-0.38051">
        <ele>18</ele>
        <time>2012-09-02T14:19:25Z</time>
      </trkpt>
      <trkpt lat="44.73013" lon="-0.38065">
        <ele>17</ele>
        <time>2012-09-02T14:19:28Z</time>
      </trkpt>
      <trkpt lat="44.73018" lon="-0.38082">
        <ele>17</ele>
        <time>2012-09-02T14:19:31Z</time>
      </trkpt>
      <trkpt lat="44.73023" lon="-0.38095">
        <ele>17</ele>
        <time>2012-09-02T14:19:34Z</time>
      </trkpt>
      <trkpt lat="44.73028" lon="-0.38107">
        <ele>17</ele>
        <time>2012-09-02T14:19:37Z</time>
      </trkpt>
      <trkpt lat="44.73034" lon="-0.38122">
        <ele>17</ele>
        <time>2012-09-02T14:19:42Z</time>
      </trkpt>
      <trkpt lat="44.73039" lon="-0.38134">
        <ele>17</ele>
        <time>2012-09-02T14:19:45Z</time>
      </trkpt>
      <trkpt lat="44.73045" lon="-0.38148">
        <ele>18</ele>
        <time>2012-09-02T14:19:49Z</time>
      </trkpt>
      <trkpt lat="44.73048" lon="-0.38164">
        <ele>18</ele>
        <time>2012-09-02T14:19:53Z</time>
      </trkpt>
      <trkpt lat="44.73051" lon="-0.38177">
        <ele>19</ele>
        <time>2012-09-02T14:19:56Z</time>
      </trkpt>
      <trkpt lat="44.73055" lon="-0.3819">
        <ele>20</ele>
        <time>2012-09-02T14:20:00Z</time>
      </trkpt>
      <trkpt lat="44.73055" lon="-0.38205">
        <ele>21</ele>
        <time>2012-09-02T14:20:04Z</time>
      </trkpt>
      <trkpt lat="44.73059" lon="-0.38219">
        <ele>23</ele>
        <time>2012-09-02T14:20:09Z</time>
      </trkpt>
      <trkpt lat="44.73062" lon="-0.38231">
        <ele>25</ele>
        <time>2012-09-02T14:20:14Z</time>
      </trkpt>
      <trkpt lat="44.73067" lon="-0.38244">
        <ele>27</ele>
        <time>2012-09-02T14:20:23Z</time>
      </trkpt>
      <trkpt lat="44.7307" lon="-0.38258">
        <ele>29</ele>
        <time>2012-09-02T14:20:29Z</time>
      </trkpt>
      <trkpt lat="44.73069" lon="-0.38272">
        <ele>31</ele>
        <time>2012-09-02T14:20:37Z</time>
      </trkpt>
      <trkpt lat="44.73067" lon="-0.38287">
        <ele>32</ele>
        <time>2012-09-02T14:20:49Z</time>
      </trkpt>
      <trkpt lat="44.73059" lon="-0.38298">
        <ele>33</ele>
        <time>2012-09-02T14:20:54Z</time>
      </trkpt>
      <trkpt lat="44.73053" lon="-0.3831">
        <ele>34</ele>
        <time>2012-09-02T14:20:59Z</time>
      </trkpt>
      <trkpt lat="44.73052" lon="-0.38323">
        <ele>35</ele>
        <time>2012-09-02T14:21:05Z</time>
      </trkpt>
      <trkpt lat="44.73052" lon="-0.38338">
        <ele>37</ele>
        <time>2012-09-02T14:21:14Z</time>
      </trkpt>
      <trkpt lat="44.73054" lon="-0.38352">
        <ele>38</ele>
        <time>2012-09-02T14:21:23Z</time>
      </trkpt>
      <trkpt lat="44.7306" lon="-0.38364">
        <ele>39</ele>
        <time>2012-09-02T14:21:31Z</time>
      </trkpt>
      <trkpt lat="44.7306" lon="-0.38379">
        <ele>39</ele>
        <time>2012-09-02T14:21:39Z</time>
      </trkpt>
      <trkpt lat="44.73064" lon="-0.38391">
        <ele>39</ele>
        <time>2012-09-02T14:21:46Z</time>
      </trkpt>
      <trkpt lat="44.73073" lon="-0.38398">
        <ele>40</ele>
        <time>2012-09-02T14:21:52Z</time>
      </trkpt>
      <trkpt lat="44.73084" lon="-0.384">
        <ele>40</ele>
        <time>2012-09-02T14:21:57Z</time>
      </trkpt>
      <trkpt lat="44.73093" lon="-0.38409">
        <ele>40</ele>
        <time>2012-09-02T14:22:02Z</time>
      </trkpt>
      <trkpt lat="44.73101" lon="-0.38419">
        <ele>41</ele>
        <time>2012-09-02T14:22:07Z</time>
      </trkpt>
      <trkpt lat="44.73108" lon="-0.38432">
        <ele>42</ele>
        <time>2012-09-02T14:22:13Z</time>
      </trkpt>
      <trkpt lat="44.73116" lon="-0.38442">
        <ele>42</ele>
        <time>2012-09-02T14:22:18Z</time>
      </trkpt>
      <trkpt lat="44.73123" lon="-0.38451">
        <ele>43</ele>
        <time>2012-09-02T14:22:22Z</time>
      </trkpt>
      <trkpt lat="44.73131" lon="-0.38461">
        <ele>44</ele>
        <time>2012-09-02T14:22:27Z</time>
      </trkpt>
      <trkpt lat="44.73139" lon="-0.3847">
        <ele>45</ele>
        <time>2012-09-02T14:22:32Z</time>
      </trkpt>
      <trkpt lat="44.73147" lon="-0.38478">
        <ele>46</ele>
        <time>2012-09-02T14:22:36Z</time>
      </trkpt>
      <trkpt lat="44.73154" lon="-0.38488">
        <ele>47</ele>
        <time>2012-09-02T14:22:41Z</time>
      </trkpt>
      <trkpt lat="44.73161" lon="-0.385">
        <ele>48</ele>
        <time>2012-09-02T14:22:47Z</time>
      </trkpt>
      <trkpt lat="44.73169" lon="-0.38508">
        <ele>49</ele>
        <time>2012-09-02T14:22:52Z</time>
      </trkpt>
      <trkpt lat="44.73176" lon="-0.38518">
        <ele>50</ele>
        <time>2012-09-02T14:22:57Z</time>
      </trkpt>
      <trkpt lat="44.73183" lon="-0.38528">
        <ele>51</ele>
        <time>2012-09-02T14:23:03Z</time>
      </trkpt>
      <trkpt lat="44.7319" lon="-0.38538">
        <ele>52</ele>
        <time>2012-09-02T14:23:09Z</time>
      </trkpt>
      <trkpt lat="44.73197" lon="-0.38548">
        <ele>53</ele>
        <time>2012-09-02T14:23:16Z</time>
      </trkpt>
      <trkpt lat="44.73205" lon="-0.38558">
        <ele>54</ele>
        <time>2012-09-02T14:23:22Z</time>
      </trkpt>
      <trkpt lat="44.73212" lon="-0.38567">
        <ele>56</ele>
        <time>2012-09-02T14:23:28Z</time>
      </trkpt>
      <trkpt lat="44.7322" lon="-0.38576">
        <ele>57</ele>
        <time>2012-09-02T14:23:35Z</time>
      </trkpt>
      <trkpt lat="44.73228" lon="-0.38585">
        <ele>58</ele>
        <time>2012-09-02T14:23:42Z</time>
      </trkpt>
      <trkpt lat="44.73235" lon="-0.38595">
        <ele>59</ele>
        <time>2012-09-02T14:23:49Z</time>
      </trkpt>
      <trkpt lat="44.73242" lon="-0.38605">
        <ele>60</ele>
        <time>2012-09-02T14:23:57Z</time>
      </trkpt>
      <trkpt lat="44.73249" lon="-0.38613">
        <ele>61</ele>
        <time>2012-09-02T14:24:03Z</time>
      </trkpt>
      <trkpt lat="44.73248" lon="-0.38617">
        <ele>61</ele>
        <time>2012-09-02T14:24:09Z</time>
      </trkpt>
      <trkpt lat="44.73247" lon="-0.38621">
        <ele>61</ele>
        <time>2012-09-02T14:24:32Z</time>
      </trkpt>
      <trkpt lat="44.73237" lon="-0.38626">
        <ele>61</ele>
        <time>2012-09-02T14:26:32Z</time>
      </trkpt>
      <trkpt lat="44.73228" lon="-0.38631">
        <ele>60</ele>
        <time>2012-09-02T14:26:39Z</time>
      </trkpt>
      <trkpt lat="44.73219" lon="-0.38635">
        <ele>59</ele>
        <time>2012-09-02T14:26:52Z</time>
      </trkpt>
      <trkpt lat="44.73209" lon="-0.38639">
        <ele>58</ele>
        <time>2012-09-02T14:27:05Z</time>
      </trkpt>
      <trkpt lat="44.73199" lon="-0.38644">
        <ele>56</ele>
        <time>2012-09-02T14:27:07Z</time>
      </trkpt>
      <trkpt lat="44.73187" lon="-0.38653">
        <ele>54</ele>
        <time>2012-09-02T14:27:10Z</time>
      </trkpt>
      <trkpt lat="44.73177" lon="-0.38664">
        <ele>52</ele>
        <time>2012-09-02T14:27:14Z</time>
      </trkpt>
      <trkpt lat="44.73178" lon="-0.38679">
        <ele>53</ele>
        <time>2012-09-02T14:27:18Z</time>
      </trkpt>
      <trkpt lat="44.73183" lon="-0.38692">
        <ele>53</ele>
        <time>2012-09-02T14:27:22Z</time>
      </trkpt>
      <trkpt lat="44.73188" lon="-0.38704">
        <ele>54</ele>
        <time>2012-09-02T14:27:26Z</time>
      </trkpt>
      <trkpt lat="44.7319" lon="-0.38717">
        <ele>54</ele>
        <time>2012-09-02T14:27:30Z</time>
      </trkpt>
      <trkpt lat="44.73194" lon="-0.3873">
        <ele>55</ele>
        <time>2012-09-02T14:27:34Z</time>
      </trkpt>
      <trkpt lat="44.73196" lon="-0.38745">
        <ele>55</ele>
        <time>2012-09-02T14:27:38Z</time>
      </trkpt>
      <trkpt lat="44.73197" lon="-0.38761">
        <ele>55</ele>
        <time>2012-09-02T14:27:42Z</time>
      </trkpt>
      <trkpt lat="44.73201" lon="-0.38774">
        <ele>56</ele>
        <time>2012-09-02T14:27:46Z</time>
      </trkpt>
      <trkpt lat="44.73199" lon="-0.38788">
        <ele>56</ele>
        <time>2012-09-02T14:27:51Z</time>
      </trkpt>
      <trkpt lat="44.73189" lon="-0.38797">
        <ele>55</ele>
        <time>2012-09-02T14:27:55Z</time>
      </trkpt>
      <trkpt lat="44.73178" lon="-0.38806">
        <ele>53</ele>
        <time>2012-09-02T14:27:58Z</time>
      </trkpt>
      <trkpt lat="44.73168" lon="-0.38814">
        <ele>51</ele>
        <time>2012-09-02T14:28:01Z</time>
      </trkpt>
      <trkpt lat="44.73158" lon="-0.3882">
        <ele>49</ele>
        <time>2012-09-02T14:28:06Z</time>
      </trkpt>
      <trkpt lat="44.73149" lon="-0.38829">
        <ele>47</ele>
        <time>2012-09-02T14:28:10Z</time>
      </trkpt>
      <trkpt lat="44.73141" lon="-0.38835">
        <ele>45</ele>
        <time>2012-09-02T14:28:13Z</time>
      </trkpt>
      <trkpt lat="44.73132" lon="-0.38843">
        <ele>44</ele>
        <time>2012-09-02T14:28:16Z</time>
      </trkpt>
      <trkpt lat="44.73123" lon="-0.38851">
        <ele>43</ele>
        <time>2012-09-02T14:28:19Z</time>
      </trkpt>
      <trkpt lat="44.7312" lon="-0.38864">
        <ele>42</ele>
        <time>2012-09-02T14:28:24Z</time>
      </trkpt>
      <trkpt lat="44.73122" lon="-0.38877">
        <ele>43</ele>
        <time>2012-09-02T14:28:28Z</time>
      </trkpt>
      <trkpt lat="44.73128" lon="-0.38889">
        <ele>43</ele>
        <time>2012-09-02T14:28:32Z</time>
      </trkpt>
      <trkpt lat="44.73133" lon="-0.38902">
        <ele>44</ele>
        <time>2012-09-02T14:28:36Z</time>
      </trkpt>
      <trkpt lat="44.73137" lon="-0.38919">
        <ele>43</ele>
        <time>2012-09-02T14:28:40Z</time>
      </trkpt>
      <trkpt lat="44.73135" lon="-0.38935">
        <ele>42</ele>
        <time>2012-09-02T14:28:44Z</time>
      </trkpt>
      <trkpt lat="44.73133" lon="-0.38952">
        <ele>41</ele>
        <time>2012-09-02T14:28:48Z</time>
      </trkpt>
      <trkpt lat="44.7313" lon="-0.38967">
        <ele>40</ele>
        <time>2012-09-02T14:28:51Z</time>
      </trkpt>
      <trkpt lat="44.73128" lon="-0.38982">
        <ele>40</ele>
        <time>2012-09-02T14:28:54Z</time>
      </trkpt>
      <trkpt lat="44.73128" lon="-0.38998">
        <ele>39</ele>
        <time>2012-09-02T14:28:58Z</time>
      </trkpt>
      <trkpt lat="44.73133" lon="-0.3901">
        <ele>40</ele>
        <time>2012-09-02T14:29:02Z</time>
      </trkpt>
      <trkpt lat="44.7314" lon="-0.39022">
        <ele>40</ele>
        <time>2012-09-02T14:29:06Z</time>
      </trkpt>
      <trkpt lat="44.73146" lon="-0.39037">
        <ele>41</ele>
        <time>2012-09-02T14:29:10Z</time>
      </trkpt>
      <trkpt lat="44.73152" lon="-0.39049">
        <ele>42</ele>
        <time>2012-09-02T14:29:14Z</time>
      </trkpt>
      <trkpt lat="44.73158" lon="-0.39061">
        <ele>42</ele>
        <time>2012-09-02T14:29:18Z</time>
      </trkpt>
      <trkpt lat="44.73166" lon="-0.39071">
        <ele>43</ele>
        <time>2012-09-02T14:29:22Z</time>
      </trkpt>
      <trkpt lat="44.73166" lon="-0.39087">
        <ele>42</ele>
        <time>2012-09-02T14:29:26Z</time>
      </trkpt>
      <trkpt lat="44.73167" lon="-0.391">
        <ele>41</ele>
        <time>2012-09-02T14:29:29Z</time>
      </trkpt>
      <trkpt lat="44.73171" lon="-0.39114">
        <ele>41</ele>
        <time>2012-09-02T14:29:32Z</time>
      </trkpt>
      <trkpt lat="44.73169" lon="-0.39129">
        <ele>40</ele>
        <time>2012-09-02T14:29:35Z</time>
      </trkpt>
      <trkpt lat="44.73178" lon="-0.39137">
        <ele>41</ele>
        <time>2012-09-02T14:29:38Z</time>
      </trkpt>
      <trkpt lat="44.73183" lon="-0.39149">
        <ele>42</ele>
        <time>2012-09-02T14:29:42Z</time>
      </trkpt>
      <trkpt lat="44.73181" lon="-0.39163">
        <ele>42</ele>
        <time>2012-09-02T14:29:46Z</time>
      </trkpt>
      <trkpt lat="44.7318" lon="-0.39177">
        <ele>43</ele>
        <time>2012-09-02T14:29:51Z</time>
      </trkpt>
      <trkpt lat="44.7318" lon="-0.39192">
        <ele>43</ele>
        <time>2012-09-02T14:29:56Z</time>
      </trkpt>
      <trkpt lat="44.7318" lon="-0.39209">
        <ele>43</ele>
        <time>2012-09-02T14:30:00Z</time>
      </trkpt>
      <trkpt lat="44.73182" lon="-0.39226">
        <ele>43</ele>
        <time>2012-09-02T14:30:04Z</time>
      </trkpt>
      <trkpt lat="44.73188" lon="-0.39239">
        <ele>44</ele>
        <time>2012-09-02T14:30:08Z</time>
      </trkpt>
      <trkpt lat="44.73195" lon="-0.3925">
        <ele>46</ele>
        <time>2012-09-02T14:30:12Z</time>
      </trkpt>
      <trkpt lat="44.73197" lon="-0.39263">
        <ele>46</ele>
        <time>2012-09-02T14:30:16Z</time>
      </trkpt>
      <trkpt lat="44.73206" lon="-0.39273">
        <ele>46</ele>
        <time>2012-09-02T14:30:21Z</time>
      </trkpt>
      <trkpt lat="44.73212" lon="-0.39283">
        <ele>46</ele>
        <time>2012-09-02T14:30:25Z</time>
      </trkpt>
      <trkpt lat="44.73219" lon="-0.39294">
        <ele>47</ele>
        <time>2012-09-02T14:30:30Z</time>
      </trkpt>
      <trkpt lat="44.73226" lon="-0.39305">
        <ele>47</ele>
        <time>2012-09-02T14:30:34Z</time>
      </trkpt>
      <trkpt lat="44.73231" lon="-0.39316">
        <ele>47</ele>
        <time>2012-09-02T14:30:38Z</time>
      </trkpt>
      <trkpt lat="44.73238" lon="-0.39326">
        <ele>48</ele>
        <time>2012-09-02T14:30:41Z</time>
      </trkpt>
      <trkpt lat="44.73245" lon="-0.39337">
        <ele>49</ele>
        <time>2012-09-02T14:30:45Z</time>
      </trkpt>
      <trkpt lat="44.73251" lon="-0.39349">
        <ele>49</ele>
        <time>2012-09-02T14:30:49Z</time>
      </trkpt>
      <trkpt lat="44.73258" lon="-0.39358">
        <ele>50</ele>
        <time>2012-09-02T14:30:52Z</time>
      </trkpt>
      <trkpt lat="44.73261" lon="-0.39372">
        <ele>49</ele>
        <time>2012-09-02T14:30:57Z</time>
      </trkpt>
      <trkpt lat="44.7326" lon="-0.39386">
        <ele>48</ele>
        <time>2012-09-02T14:31:02Z</time>
      </trkpt>
      <trkpt lat="44.73247" lon="-0.39393">
        <ele>46</ele>
        <time>2012-09-02T14:31:05Z</time>
      </trkpt>
      <trkpt lat="44.73238" lon="-0.39397">
        <ele>44</ele>
        <time>2012-09-02T14:31:07Z</time>
      </trkpt>
      <trkpt lat="44.73223" lon="-0.39398">
        <ele>42</ele>
        <time>2012-09-02T14:31:10Z</time>
      </trkpt>
      <trkpt lat="44.73207" lon="-0.39397">
        <ele>40</ele>
        <time>2012-09-02T14:31:12Z</time>
      </trkpt>
      <trkpt lat="44.73192" lon="-0.39393">
        <ele>41</ele>
        <time>2012-09-02T14:31:14Z</time>
      </trkpt>
      <trkpt lat="44.73178" lon="-0.3939">
        <ele>42</ele>
        <time>2012-09-02T14:31:16Z</time>
      </trkpt>
      <trkpt lat="44.73167" lon="-0.39393">
        <ele>43</ele>
        <time>2012-09-02T14:31:18Z</time>
      </trkpt>
      <trkpt lat="44.73161" lon="-0.39406">
        <ele>44</ele>
        <time>2012-09-02T14:31:21Z</time>
      </trkpt>
      <trkpt lat="44.73161" lon="-0.39421">
        <ele>45</ele>
        <time>2012-09-02T14:31:24Z</time>
      </trkpt>
      <trkpt lat="44.7316" lon="-0.39438">
        <ele>46</ele>
        <time>2012-09-02T14:31:28Z</time>
      </trkpt>
      <trkpt lat="44.73157" lon="-0.3945">
        <ele>48</ele>
        <time>2012-09-02T14:31:31Z</time>
      </trkpt>
      <trkpt lat="44.73155" lon="-0.39466">
        <ele>50</ele>
        <time>2012-09-02T14:31:36Z</time>
      </trkpt>
      <trkpt lat="44.73151" lon="-0.39479">
        <ele>52</ele>
        <time>2012-09-02T14:31:40Z</time>
      </trkpt>
      <trkpt lat="44.73149" lon="-0.39493">
        <ele>53</ele>
        <time>2012-09-02T14:31:44Z</time>
      </trkpt>
      <trkpt lat="44.73148" lon="-0.39506">
        <ele>55</ele>
        <time>2012-09-02T14:31:52Z</time>
      </trkpt>
      <trkpt lat="44.73146" lon="-0.3952">
        <ele>56</ele>
        <time>2012-09-02T14:31:57Z</time>
      </trkpt>
      <trkpt lat="44.73145" lon="-0.39533">
        <ele>58</ele>
        <time>2012-09-02T14:32:04Z</time>
      </trkpt>
      <trkpt lat="44.73144" lon="-0.39547">
        <ele>59</ele>
        <time>2012-09-02T14:32:11Z</time>
      </trkpt>
      <trkpt lat="44.73144" lon="-0.39561">
        <ele>61</ele>
        <time>2012-09-02T14:32:20Z</time>
      </trkpt>
      <trkpt lat="44.73139" lon="-0.39573">
        <ele>62</ele>
        <time>2012-09-02T14:32:27Z</time>
      </trkpt>
      <trkpt lat="44.73141" lon="-0.39586">
        <ele>62</ele>
        <time>2012-09-02T14:32:47Z</time>
      </trkpt>
      <trkpt lat="44.7315" lon="-0.39591">
        <ele>62</ele>
        <time>2012-09-02T14:33:02Z</time>
      </trkpt>
      <trkpt lat="44.73162" lon="-0.39595">
        <ele>61</ele>
        <time>2012-09-02T14:33:06Z</time>
      </trkpt>
      <trkpt lat="44.73169" lon="-0.39605">
        <ele>61</ele>
        <time>2012-09-02T14:33:11Z</time>
      </trkpt>
      <trkpt lat="44.73175" lon="-0.39617">
        <ele>60</ele>
        <time>2012-09-02T14:33:16Z</time>
      </trkpt>
      <trkpt lat="44.7318" lon="-0.39628">
        <ele>59</ele>
        <time>2012-09-02T14:33:29Z</time>
      </trkpt>
      <trkpt lat="44.73192" lon="-0.39636">
        <ele>57</ele>
        <time>2012-09-02T14:34:39Z</time>
      </trkpt>
      <trkpt lat="44.73193" lon="-0.39652">
        <ele>56</ele>
        <time>2012-09-02T14:34:44Z</time>
      </trkpt>
      <trkpt lat="44.73193" lon="-0.3967">
        <ele>55</ele>
        <time>2012-09-02T14:34:48Z</time>
      </trkpt>
      <trkpt lat="44.73202" lon="-0.39682">
        <ele>53</ele>
        <time>2012-09-02T14:34:51Z</time>
      </trkpt>
      <trkpt lat="44.73211" lon="-0.39691">
        <ele>53</ele>
        <time>2012-09-02T14:34:54Z</time>
      </trkpt>
      <trkpt lat="44.73221" lon="-0.39697">
        <ele>52</ele>
        <time>2012-09-02T14:34:58Z</time>
      </trkpt>
      <trkpt lat="44.73231" lon="-0.39698">
        <ele>52</ele>
        <time>2012-09-02T14:35:04Z</time>
      </trkpt>
      <trkpt lat="44.73237" lon="-0.39689">
        <ele>51</ele>
        <time>2012-09-02T14:35:26Z</time>
      </trkpt>
      <trkpt lat="44.73244" lon="-0.39678">
        <ele>50</ele>
        <time>2012-09-02T14:35:37Z</time>
      </trkpt>
      <trkpt lat="44.73255" lon="-0.39671">
        <ele>50</ele>
        <time>2012-09-02T14:35:40Z</time>
      </trkpt>
      <trkpt lat="44.7327" lon="-0.39671">
        <ele>49</ele>
        <time>2012-09-02T14:35:44Z</time>
      </trkpt>
      <trkpt lat="44.73284" lon="-0.39667">
        <ele>49</ele>
        <time>2012-09-02T14:35:47Z</time>
      </trkpt>
      <trkpt lat="44.73293" lon="-0.39671">
        <ele>49</ele>
        <time>2012-09-02T14:35:50Z</time>
      </trkpt>
      <trkpt lat="44.73303" lon="-0.39671">
        <ele>48</ele>
        <time>2012-09-02T14:35:53Z</time>
      </trkpt>
      <trkpt lat="44.73317" lon="-0.39671">
        <ele>48</ele>
        <time>2012-09-02T14:35:56Z</time>
      </trkpt>
      <trkpt lat="44.73327" lon="-0.39671">
        <ele>48</ele>
        <time>2012-09-02T14:36:00Z</time>
      </trkpt>
      <trkpt lat="44.73338" lon="-0.39671">
        <ele>48</ele>
        <time>2012-09-02T14:36:05Z</time>
      </trkpt>
      <trkpt lat="44.73349" lon="-0.39666">
        <ele>49</ele>
        <time>2012-09-02T14:36:10Z</time>
      </trkpt>
      <trkpt lat="44.73361" lon="-0.39662">
        <ele>50</ele>
        <time>2012-09-02T14:36:15Z</time>
      </trkpt>
      <trkpt lat="44.7337" lon="-0.3966">
        <ele>51</ele>
        <time>2012-09-02T14:36:20Z</time>
      </trkpt>
      <trkpt lat="44.73381" lon="-0.39658">
        <ele>52</ele>
        <time>2012-09-02T14:36:26Z</time>
      </trkpt>
      <trkpt lat="44.73391" lon="-0.39653">
        <ele>54</ele>
        <time>2012-09-02T14:36:34Z</time>
      </trkpt>
      <trkpt lat="44.734" lon="-0.3965">
        <ele>55</ele>
        <time>2012-09-02T14:36:40Z</time>
      </trkpt>
      <trkpt lat="44.7341" lon="-0.39649">
        <ele>56</ele>
        <time>2012-09-02T14:36:47Z</time>
      </trkpt>
      <trkpt lat="44.73419" lon="-0.39645">
        <ele>57</ele>
        <time>2012-09-02T14:36:54Z</time>
      </trkpt>
      <trkpt lat="44.73429" lon="-0.39642">
        <ele>58</ele>
        <time>2012-09-02T14:37:00Z</time>
      </trkpt>
      <trkpt lat="44.7344" lon="-0.39641">
        <ele>60</ele>
        <time>2012-09-02T14:37:07Z</time>
      </trkpt>
      <trkpt lat="44.7345" lon="-0.39639">
        <ele>61</ele>
        <time>2012-09-02T14:37:16Z</time>
      </trkpt>
      <trkpt lat="44.7346" lon="-0.39639">
        <ele>62</ele>
        <time>2012-09-02T14:37:24Z</time>
      </trkpt>
      <trkpt lat="44.7347" lon="-0.3964">
        <ele>63</ele>
        <time>2012-09-02T14:37:34Z</time>
      </trkpt>
      <trkpt lat="44.7348" lon="-0.39638">
        <ele>64</ele>
        <time>2012-09-02T14:37:42Z</time>
      </trkpt>
      <trkpt lat="44.7349" lon="-0.39638">
        <ele>66</ele>
        <time>2012-09-02T14:37:52Z</time>
      </trkpt>
      <trkpt lat="44.735" lon="-0.39639">
        <ele>67</ele>
        <time>2012-09-02T14:37:58Z</time>
      </trkpt>
      <trkpt lat="44.73511" lon="-0.39635">
        <ele>69</ele>
        <time>2012-09-02T14:38:04Z</time>
      </trkpt>
      <trkpt lat="44.73521" lon="-0.39638">
        <ele>71</ele>
        <time>2012-09-02T14:38:13Z</time>
      </trkpt>
      <trkpt lat="44.73531" lon="-0.39636">
        <ele>72</ele>
        <time>2012-09-02T14:38:20Z</time>
      </trkpt>
      <trkpt lat="44.73541" lon="-0.39635">
        <ele>73</ele>
        <time>2012-09-02T14:38:29Z</time>
      </trkpt>
      <trkpt lat="44.73551" lon="-0.39633">
        <ele>75</ele>
        <time>2012-09-02T14:38:37Z</time>
      </trkpt>
      <trkpt lat="44.73561" lon="-0.39633">
        <ele>76</ele>
        <time>2012-09-02T14:38:46Z</time>
      </trkpt>
      <trkpt lat="44.73571" lon="-0.39633">
        <ele>77</ele>
        <time>2012-09-02T14:38:57Z</time>
      </trkpt>
      <trkpt lat="44.7358" lon="-0.39633">
        <ele>77</ele>
        <time>2012-09-02T14:39:05Z</time>
      </trkpt>
      <trkpt lat="44.73591" lon="-0.39633">
        <ele>78</ele>
        <time>2012-09-02T14:39:13Z</time>
      </trkpt>
      <trkpt lat="44.73601" lon="-0.39633">
        <ele>79</ele>
        <time>2012-09-02T14:39:20Z</time>
      </trkpt>
      <trkpt lat="44.73611" lon="-0.39633">
        <ele>79</ele>
        <time>2012-09-02T14:39:28Z</time>
      </trkpt>
      <trkpt lat="44.73621" lon="-0.39633">
        <ele>80</ele>
        <time>2012-09-02T14:39:36Z</time>
      </trkpt>
      <trkpt lat="44.73631" lon="-0.39632">
        <ele>80</ele>
        <time>2012-09-02T14:39:44Z</time>
      </trkpt>
      <trkpt lat="44.73632" lon="-0.39618">
        <ele>81</ele>
        <time>2012-09-02T14:39:54Z</time>
      </trkpt>
      <trkpt lat="44.7363" lon="-0.39605">
        <ele>81</ele>
        <time>2012-09-02T14:41:59Z</time>
      </trkpt>
      <trkpt lat="44.7363" lon="-0.39591">
        <ele>81</ele>
        <time>2012-09-02T14:42:07Z</time>
      </trkpt>
      <trkpt lat="44.7363" lon="-0.39574">
        <ele>81</ele>
        <time>2012-09-02T14:42:12Z</time>
      </trkpt>
      <trkpt lat="44.73631" lon="-0.3956">
        <ele>81</ele>
        <time>2012-09-02T14:42:16Z</time>
      </trkpt>
      <trkpt lat="44.73633" lon="-0.39544">
        <ele>81</ele>
        <time>2012-09-02T14:42:20Z</time>
      </trkpt>
      <trkpt lat="44.73634" lon="-0.39527">
        <ele>81</ele>
        <time>2012-09-02T14:42:23Z</time>
      </trkpt>
      <trkpt lat="44.73632" lon="-0.39508">
        <ele>80</ele>
        <time>2012-09-02T14:42:26Z</time>
      </trkpt>
      <trkpt lat="44.73631" lon="-0.39494">
        <ele>80</ele>
        <time>2012-09-02T14:42:28Z</time>
      </trkpt>
      <trkpt lat="44.73631" lon="-0.39475">
        <ele>80</ele>
        <time>2012-09-02T14:42:31Z</time>
      </trkpt>
      <trkpt lat="44.73632" lon="-0.39456">
        <ele>79</ele>
        <time>2012-09-02T14:42:34Z</time>
      </trkpt>
      <trkpt lat="44.73631" lon="-0.39442">
        <ele>80</ele>
        <time>2012-09-02T14:42:36Z</time>
      </trkpt>
      <trkpt lat="44.73629" lon="-0.39424">
        <ele>80</ele>
        <time>2012-09-02T14:42:39Z</time>
      </trkpt>
      <trkpt lat="44.73626" lon="-0.39406">
        <ele>80</ele>
        <time>2012-09-02T14:42:42Z</time>
      </trkpt>
      <trkpt lat="44.73623" lon="-0.3939">
        <ele>80</ele>
        <time>2012-09-02T14:42:45Z</time>
      </trkpt>
      <trkpt lat="44.73618" lon="-0.39373">
        <ele>80</ele>
        <time>2012-09-02T14:42:48Z</time>
      </trkpt>
      <trkpt lat="44.73613" lon="-0.39358">
        <ele>80</ele>
        <time>2012-09-02T14:42:51Z</time>
      </trkpt>
      <trkpt lat="44.73609" lon="-0.39344">
        <ele>80</ele>
        <time>2012-09-02T14:42:54Z</time>
      </trkpt>
      <trkpt lat="44.73602" lon="-0.39331">
        <ele>80</ele>
        <time>2012-09-02T14:42:57Z</time>
      </trkpt>
      <trkpt lat="44.73596" lon="-0.39317">
        <ele>81</ele>
        <time>2012-09-02T14:43:00Z</time>
      </trkpt>
      <trkpt lat="44.7359" lon="-0.39306">
        <ele>81</ele>
        <time>2012-09-02T14:43:03Z</time>
      </trkpt>
      <trkpt lat="44.73593" lon="-0.39293">
        <ele>81</ele>
        <time>2012-09-02T14:43:08Z</time>
      </trkpt>
      <trkpt lat="44.73603" lon="-0.39287">
        <ele>82</ele>
        <time>2012-09-02T14:43:10Z</time>
      </trkpt>
      <trkpt lat="44.73613" lon="-0.39286">
        <ele>82</ele>
        <time>2012-09-02T14:43:13Z</time>
      </trkpt>
      <trkpt lat="44.73624" lon="-0.39283">
        <ele>82</ele>
        <time>2012-09-02T14:43:17Z</time>
      </trkpt>
      <trkpt lat="44.73633" lon="-0.39279">
        <ele>82</ele>
        <time>2012-09-02T14:43:20Z</time>
      </trkpt>
      <trkpt lat="44.73642" lon="-0.39274">
        <ele>81</ele>
        <time>2012-09-02T14:43:23Z</time>
      </trkpt>
      <trkpt lat="44.73651" lon="-0.39269">
        <ele>81</ele>
        <time>2012-09-02T14:43:26Z</time>
      </trkpt>
      <trkpt lat="44.73662" lon="-0.39263">
        <ele>80</ele>
        <time>2012-09-02T14:43:29Z</time>
      </trkpt>
      <trkpt lat="44.73672" lon="-0.39256">
        <ele>79</ele>
        <time>2012-09-02T14:43:32Z</time>
      </trkpt>
      <trkpt lat="44.73681" lon="-0.3926">
        <ele>79</ele>
        <time>2012-09-02T14:43:35Z</time>
      </trkpt>
      <trkpt lat="44.73691" lon="-0.39267">
        <ele>79</ele>
        <time>2012-09-02T14:43:38Z</time>
      </trkpt>
      <trkpt lat="44.73705" lon="-0.3927">
        <ele>78</ele>
        <time>2012-09-02T14:43:44Z</time>
      </trkpt>
      <trkpt lat="44.73719" lon="-0.39271">
        <ele>76</ele>
        <time>2012-09-02T14:43:46Z</time>
      </trkpt>
      <trkpt lat="44.7373" lon="-0.39271">
        <ele>74</ele>
        <time>2012-09-02T14:43:49Z</time>
      </trkpt>
      <trkpt lat="44.73739" lon="-0.39259">
        <ele>73</ele>
        <time>2012-09-02T14:43:52Z</time>
      </trkpt>
      <trkpt lat="44.73745" lon="-0.39245">
        <ele>72</ele>
        <time>2012-09-02T14:43:55Z</time>
      </trkpt>
      <trkpt lat="44.73751" lon="-0.39229">
        <ele>71</ele>
        <time>2012-09-02T14:43:59Z</time>
      </trkpt>
      <trkpt lat="44.7376" lon="-0.39213">
        <ele>69</ele>
        <time>2012-09-02T14:44:02Z</time>
      </trkpt>
      <trkpt lat="44.73769" lon="-0.39205">
        <ele>67</ele>
        <time>2012-09-02T14:44:04Z</time>
      </trkpt>
      <trkpt lat="44.73777" lon="-0.39196">
        <ele>66</ele>
        <time>2012-09-02T14:44:06Z</time>
      </trkpt>
      <trkpt lat="44.73785" lon="-0.39187">
        <ele>64</ele>
        <time>2012-09-02T14:44:09Z</time>
      </trkpt>
      <trkpt lat="44.7379" lon="-0.39175">
        <ele>63</ele>
        <time>2012-09-02T14:44:15Z</time>
      </trkpt>
      <trkpt lat="44.73793" lon="-0.39161">
        <ele>62</ele>
        <time>2012-09-02T14:44:28Z</time>
      </trkpt>
      <trkpt lat="44.73791" lon="-0.39145">
        <ele>61</ele>
        <time>2012-09-02T14:44:34Z</time>
      </trkpt>
      <trkpt lat="44.73782" lon="-0.39132">
        <ele>59</ele>
        <time>2012-09-02T14:44:38Z</time>
      </trkpt>
      <trkpt lat="44.73771" lon="-0.39123">
        <ele>59</ele>
        <time>2012-09-02T14:44:43Z</time>
      </trkpt>
      <trkpt lat="44.7377" lon="-0.3911">
        <ele>57</ele>
        <time>2012-09-02T14:44:47Z</time>
      </trkpt>
      <trkpt lat="44.73774" lon="-0.39095">
        <ele>55</ele>
        <time>2012-09-02T14:44:50Z</time>
      </trkpt>
      <trkpt lat="44.73771" lon="-0.39072">
        <ele>56</ele>
        <time>2012-09-02T14:44:55Z</time>
      </trkpt>
      <trkpt lat="44.73763" lon="-0.39065">
        <ele>58</ele>
        <time>2012-09-02T14:45:00Z</time>
      </trkpt>
      <trkpt lat="44.73761" lon="-0.39052">
        <ele>59</ele>
        <time>2012-09-02T14:45:10Z</time>
      </trkpt>
      <trkpt lat="44.73761" lon="-0.39037">
        <ele>61</ele>
        <time>2012-09-02T14:45:19Z</time>
      </trkpt>
      <trkpt lat="44.73756" lon="-0.39025">
        <ele>62</ele>
        <time>2012-09-02T14:45:24Z</time>
      </trkpt>
      <trkpt lat="44.73747" lon="-0.39018">
        <ele>64</ele>
        <time>2012-09-02T14:45:29Z</time>
      </trkpt>
      <trkpt lat="44.73747" lon="-0.39005">
        <ele>66</ele>
        <time>2012-09-02T14:45:39Z</time>
      </trkpt>
      <trkpt lat="44.7374" lon="-0.38994">
        <ele>68</ele>
        <time>2012-09-02T14:45:45Z</time>
      </trkpt>
      <trkpt lat="44.73742" lon="-0.38982">
        <ele>68</ele>
        <time>2012-09-02T14:45:56Z</time>
      </trkpt>
      <trkpt lat="44.73739" lon="-0.38969">
        <ele>70</ele>
        <time>2012-09-02T14:46:03Z</time>
      </trkpt>
      <trkpt lat="44.73733" lon="-0.38957">
        <ele>71</ele>
        <time>2012-09-02T14:46:11Z</time>
      </trkpt>
      <trkpt lat="44.73729" lon="-0.38951">
        <ele>72</ele>
        <time>2012-09-02T14:46:20Z</time>
      </trkpt>
      <trkpt lat="44.73732" lon="-0.38947">
        <ele>71</ele>
        <time>2012-09-02T14:51:21Z</time>
      </trkpt>
      <trkpt lat="44.73735" lon="-0.38934">
        <ele>71</ele>
        <time>2012-09-02T14:51:43Z</time>
      </trkpt>
      <trkpt lat="44.7374" lon="-0.3892">
        <ele>70</ele>
        <time>2012-09-02T14:51:47Z</time>
      </trkpt>
      <trkpt lat="44.73739" lon="-0.38902">
        <ele>70</ele>
        <time>2012-09-02T14:51:51Z</time>
      </trkpt>
      <trkpt lat="44.73735" lon="-0.3889">
        <ele>70</ele>
        <time>2012-09-02T14:51:56Z</time>
      </trkpt>
      <trkpt lat="44.7373" lon="-0.38878">
        <ele>70</ele>
        <time>2012-09-02T14:52:06Z</time>
      </trkpt>
      <trkpt lat="44.73736" lon="-0.3887">
        <ele>69</ele>
        <time>2012-09-02T14:54:20Z</time>
      </trkpt>
      <trkpt lat="44.73738" lon="-0.38863">
        <ele>69</ele>
        <time>2012-09-02T14:54:35Z</time>
      </trkpt>
      <trkpt lat="44.7374" lon="-0.38847">
        <ele>68</ele>
        <time>2012-09-02T14:54:39Z</time>
      </trkpt>
      <trkpt lat="44.73744" lon="-0.38832">
        <ele>67</ele>
        <time>2012-09-02T14:54:43Z</time>
      </trkpt>
      <trkpt lat="44.73747" lon="-0.38816">
        <ele>67</ele>
        <time>2012-09-02T14:54:46Z</time>
      </trkpt>
      <trkpt lat="44.73749" lon="-0.388">
        <ele>66</ele>
        <time>2012-09-02T14:54:49Z</time>
      </trkpt>
      <trkpt lat="44.73753" lon="-0.38785">
        <ele>66</ele>
        <time>2012-09-02T14:54:52Z</time>
      </trkpt>
      <trkpt lat="44.73762" lon="-0.38778">
        <ele>66</ele>
        <time>2012-09-02T14:54:58Z</time>
      </trkpt>
      <trkpt lat="44.73772" lon="-0.38785">
        <ele>64</ele>
        <time>2012-09-02T14:55:01Z</time>
      </trkpt>
      <trkpt lat="44.73782" lon="-0.38799">
        <ele>62</ele>
        <time>2012-09-02T14:55:04Z</time>
      </trkpt>
      <trkpt lat="44.73791" lon="-0.38811">
        <ele>60</ele>
        <time>2012-09-02T14:55:06Z</time>
      </trkpt>
      <trkpt lat="44.73801" lon="-0.38825">
        <ele>59</ele>
        <time>2012-09-02T14:55:08Z</time>
      </trkpt>
      <trkpt lat="44.73812" lon="-0.3884">
        <ele>57</ele>
        <time>2012-09-02T14:55:10Z</time>
      </trkpt>
      <trkpt lat="44.73822" lon="-0.38858">
        <ele>55</ele>
        <time>2012-09-02T14:55:12Z</time>
      </trkpt>
      <trkpt lat="44.73829" lon="-0.38867">
        <ele>54</ele>
        <time>2012-09-02T14:55:13Z</time>
      </trkpt>
      <trkpt lat="44.73842" lon="-0.38882">
        <ele>52</ele>
        <time>2012-09-02T14:55:15Z</time>
      </trkpt>
      <trkpt lat="44.73851" lon="-0.38888">
        <ele>51</ele>
        <time>2012-09-02T14:55:16Z</time>
      </trkpt>
      <trkpt lat="44.73864" lon="-0.38901">
        <ele>49</ele>
        <time>2012-09-02T14:55:18Z</time>
      </trkpt>
      <trkpt lat="44.73878" lon="-0.38914">
        <ele>47</ele>
        <time>2012-09-02T14:55:20Z</time>
      </trkpt>
      <trkpt lat="44.73886" lon="-0.38927">
        <ele>46</ele>
        <time>2012-09-02T14:55:22Z</time>
      </trkpt>
      <trkpt lat="44.73895" lon="-0.38939">
        <ele>45</ele>
        <time>2012-09-02T14:55:24Z</time>
      </trkpt>
      <trkpt lat="44.73904" lon="-0.38951">
        <ele>44</ele>
        <time>2012-09-02T14:55:26Z</time>
      </trkpt>
      <trkpt lat="44.73911" lon="-0.3896">
        <ele>43</ele>
        <time>2012-09-02T14:55:28Z</time>
      </trkpt>
      <trkpt lat="44.73918" lon="-0.38971">
        <ele>42</ele>
        <time>2012-09-02T14:55:31Z</time>
      </trkpt>
      <trkpt lat="44.73927" lon="-0.38982">
        <ele>41</ele>
        <time>2012-09-02T14:55:35Z</time>
      </trkpt>
      <trkpt lat="44.73934" lon="-0.38994">
        <ele>40</ele>
        <time>2012-09-02T14:55:38Z</time>
      </trkpt>
      <trkpt lat="44.73941" lon="-0.39008">
        <ele>39</ele>
        <time>2012-09-02T14:55:41Z</time>
      </trkpt>
      <trkpt lat="44.73956" lon="-0.39032">
        <ele>38</ele>
        <time>2012-09-02T14:55:46Z</time>
      </trkpt>
      <trkpt lat="44.73966" lon="-0.39038">
        <ele>36</ele>
        <time>2012-09-02T14:55:47Z</time>
      </trkpt>
      <trkpt lat="44.73975" lon="-0.39045">
        <ele>35</ele>
        <time>2012-09-02T14:55:49Z</time>
      </trkpt>
      <trkpt lat="44.73981" lon="-0.39056">
        <ele>34</ele>
        <time>2012-09-02T14:55:53Z</time>
      </trkpt>
      <trkpt lat="44.73978" lon="-0.39074">
        <ele>34</ele>
        <time>2012-09-02T14:55:59Z</time>
      </trkpt>
      <trkpt lat="44.73974" lon="-0.39086">
        <ele>35</ele>
        <time>2012-09-02T14:56:04Z</time>
      </trkpt>
      <trkpt lat="44.73973" lon="-0.391">
        <ele>35</ele>
        <time>2012-09-02T14:56:09Z</time>
      </trkpt>
      <trkpt lat="44.73975" lon="-0.39113">
        <ele>35</ele>
        <time>2012-09-02T14:56:15Z</time>
      </trkpt>
      <trkpt lat="44.73974" lon="-0.39128">
        <ele>36</ele>
        <time>2012-09-02T14:56:19Z</time>
      </trkpt>
      <trkpt lat="44.7397" lon="-0.39141">
        <ele>37</ele>
        <time>2012-09-02T14:56:23Z</time>
      </trkpt>
      <trkpt lat="44.73969" lon="-0.39155">
        <ele>38</ele>
        <time>2012-09-02T14:56:26Z</time>
      </trkpt>
      <trkpt lat="44.73968" lon="-0.39169">
        <ele>38</ele>
        <time>2012-09-02T14:56:29Z</time>
      </trkpt>
      <trkpt lat="44.73975" lon="-0.39182">
        <ele>37</ele>
        <time>2012-09-02T14:56:33Z</time>
      </trkpt>
      <trkpt lat="44.7398" lon="-0.39198">
        <ele>36</ele>
        <time>2012-09-02T14:56:38Z</time>
      </trkpt>
      <trkpt lat="44.73978" lon="-0.39213">
        <ele>36</ele>
        <time>2012-09-02T14:56:41Z</time>
      </trkpt>
      <trkpt lat="44.73971" lon="-0.39224">
        <ele>37</ele>
        <time>2012-09-02T14:56:46Z</time>
      </trkpt>
      <trkpt lat="44.7397" lon="-0.39238">
        <ele>38</ele>
        <time>2012-09-02T14:56:52Z</time>
      </trkpt>
      <trkpt lat="44.73969" lon="-0.39254">
        <ele>39</ele>
        <time>2012-09-02T14:56:57Z</time>
      </trkpt>
      <trkpt lat="44.73974" lon="-0.39266">
        <ele>38</ele>
        <time>2012-09-02T14:57:02Z</time>
      </trkpt>
      <trkpt lat="44.7398" lon="-0.39279">
        <ele>38</ele>
        <time>2012-09-02T14:57:06Z</time>
      </trkpt>
      <trkpt lat="44.7399" lon="-0.39283">
        <ele>38</ele>
        <time>2012-09-02T14:57:09Z</time>
      </trkpt>
      <trkpt lat="44.73995" lon="-0.39296">
        <ele>39</ele>
        <time>2012-09-02T14:57:13Z</time>
      </trkpt>
      <trkpt lat="44.73992" lon="-0.3931">
        <ele>40</ele>
        <time>2012-09-02T14:57:18Z</time>
      </trkpt>
      <trkpt lat="44.73986" lon="-0.39323">
        <ele>41</ele>
        <time>2012-09-02T14:57:24Z</time>
      </trkpt>
      <trkpt lat="44.73989" lon="-0.39336">
        <ele>41</ele>
        <time>2012-09-02T14:57:29Z</time>
      </trkpt>
      <trkpt lat="44.73988" lon="-0.39353">
        <ele>42</ele>
        <time>2012-09-02T14:57:34Z</time>
      </trkpt>
      <trkpt lat="44.73989" lon="-0.39367">
        <ele>42</ele>
        <time>2012-09-02T14:57:40Z</time>
      </trkpt>
      <trkpt lat="44.73988" lon="-0.39381">
        <ele>43</ele>
        <time>2012-09-02T14:57:44Z</time>
      </trkpt>
      <trkpt lat="44.73986" lon="-0.39395">
        <ele>43</ele>
        <time>2012-09-02T14:57:48Z</time>
      </trkpt>
      <trkpt lat="44.73985" lon="-0.39408">
        <ele>43</ele>
        <time>2012-09-02T14:57:51Z</time>
      </trkpt>
      <trkpt lat="44.73986" lon="-0.39424">
        <ele>43</ele>
        <time>2012-09-02T14:57:55Z</time>
      </trkpt>
      <trkpt lat="44.7399" lon="-0.39438">
        <ele>42</ele>
        <time>2012-09-02T14:57:59Z</time>
      </trkpt>
      <trkpt lat="44.7399" lon="-0.39455">
        <ele>42</ele>
        <time>2012-09-02T14:58:05Z</time>
      </trkpt>
      <trkpt lat="44.73986" lon="-0.39469">
        <ele>41</ele>
        <time>2012-09-02T14:58:09Z</time>
      </trkpt>
      <trkpt lat="44.73982" lon="-0.39483">
        <ele>41</ele>
        <time>2012-09-02T14:58:13Z</time>
      </trkpt>
      <trkpt lat="44.73988" lon="-0.39494">
        <ele>41</ele>
        <time>2012-09-02T14:58:18Z</time>
      </trkpt>
      <trkpt lat="44.73998" lon="-0.39495">
        <ele>41</ele>
        <time>2012-09-02T14:58:43Z</time>
      </trkpt>
      <trkpt lat="44.7401" lon="-0.39502">
        <ele>41</ele>
        <time>2012-09-02T14:58:51Z</time>
      </trkpt>
      <trkpt lat="44.74018" lon="-0.39512">
        <ele>41</ele>
        <time>2012-09-02T14:58:54Z</time>
      </trkpt>
      <trkpt lat="44.7402" lon="-0.39525">
        <ele>41</ele>
        <time>2012-09-02T14:58:58Z</time>
      </trkpt>
      <trkpt lat="44.74025" lon="-0.39537">
        <ele>42</ele>
        <time>2012-09-02T14:59:03Z</time>
      </trkpt>
      <trkpt lat="44.74036" lon="-0.3954">
        <ele>44</ele>
        <time>2012-09-02T14:59:10Z</time>
      </trkpt>
      <trkpt lat="44.74038" lon="-0.39553">
        <ele>44</ele>
        <time>2012-09-02T14:59:17Z</time>
      </trkpt>
      <trkpt lat="44.74039" lon="-0.39566">
        <ele>45</ele>
        <time>2012-09-02T14:59:22Z</time>
      </trkpt>
      <trkpt lat="44.74043" lon="-0.39579">
        <ele>45</ele>
        <time>2012-09-02T14:59:26Z</time>
      </trkpt>
      <trkpt lat="44.74045" lon="-0.39593">
        <ele>45</ele>
        <time>2012-09-02T14:59:30Z</time>
      </trkpt>
      <trkpt lat="44.74045" lon="-0.39608">
        <ele>45</ele>
        <time>2012-09-02T14:59:33Z</time>
      </trkpt>
      <trkpt lat="44.74049" lon="-0.39622">
        <ele>46</ele>
        <time>2012-09-02T14:59:38Z</time>
      </trkpt>
      <trkpt lat="44.74049" lon="-0.39636">
        <ele>46</ele>
        <time>2012-09-02T15:00:00Z</time>
      </trkpt>
      <trkpt lat="44.74049" lon="-0.39634">
        <ele>46</ele>
        <time>2012-09-02T15:00:42Z</time>
      </trkpt>
      <trkpt lat="44.74048" lon="-0.39634">
        <ele>46</ele>
        <time>2012-09-02T15:01:17Z</time>
      </trkpt>
      <trkpt lat="44.74057" lon="-0.39627">
        <ele>47</ele>
        <time>2012-09-02T15:01:59Z</time>
      </trkpt>
      <trkpt lat="44.74059" lon="-0.39614">
        <ele>48</ele>
        <time>2012-09-02T15:02:56Z</time>
      </trkpt>
      <trkpt lat="44.74061" lon="-0.396">
        <ele>48</ele>
        <time>2012-09-02T15:03:07Z</time>
      </trkpt>
      <trkpt lat="44.74063" lon="-0.39588">
        <ele>49</ele>
        <time>2012-09-02T15:03:24Z</time>
      </trkpt>
      <trkpt lat="44.74071" lon="-0.3958">
        <ele>51</ele>
        <time>2012-09-02T15:03:54Z</time>
      </trkpt>
      <trkpt lat="44.74074" lon="-0.39567">
        <ele>52</ele>
        <time>2012-09-02T15:04:10Z</time>
      </trkpt>
      <trkpt lat="44.74079" lon="-0.39555">
        <ele>53</ele>
        <time>2012-09-02T15:04:21Z</time>
      </trkpt>
      <trkpt lat="44.74087" lon="-0.39549">
        <ele>55</ele>
        <time>2012-09-02T15:04:31Z</time>
      </trkpt>
      <trkpt lat="44.74096" lon="-0.39543">
        <ele>58</ele>
        <time>2012-09-02T15:04:39Z</time>
      </trkpt>
      <trkpt lat="44.74106" lon="-0.39541">
        <ele>60</ele>
        <time>2012-09-02T15:04:44Z</time>
      </trkpt>
      <trkpt lat="44.74117" lon="-0.39543">
        <ele>60</ele>
        <time>2012-09-02T15:04:53Z</time>
      </trkpt>
      <trkpt lat="44.74127" lon="-0.39542">
        <ele>61</ele>
        <time>2012-09-02T15:05:01Z</time>
      </trkpt>
      <trkpt lat="44.74137" lon="-0.39542">
        <ele>62</ele>
        <time>2012-09-02T15:05:09Z</time>
      </trkpt>
      <trkpt lat="44.74139" lon="-0.39556">
        <ele>62</ele>
        <time>2012-09-02T15:05:27Z</time>
      </trkpt>
      <trkpt lat="44.74147" lon="-0.39562">
        <ele>64</ele>
        <time>2012-09-02T15:05:32Z</time>
      </trkpt>
      <trkpt lat="44.74157" lon="-0.39565">
        <ele>65</ele>
        <time>2012-09-02T15:05:38Z</time>
      </trkpt>
      <trkpt lat="44.74166" lon="-0.3957">
        <ele>66</ele>
        <time>2012-09-02T15:05:44Z</time>
      </trkpt>
      <trkpt lat="44.74174" lon="-0.3956">
        <ele>66</ele>
        <time>2012-09-02T15:05:53Z</time>
      </trkpt>
      <trkpt lat="44.74178" lon="-0.39547">
        <ele>66</ele>
        <time>2012-09-02T15:06:00Z</time>
      </trkpt>
      <trkpt lat="44.74181" lon="-0.39532">
        <ele>67</ele>
        <time>2012-09-02T15:06:06Z</time>
      </trkpt>
      <trkpt lat="44.74192" lon="-0.39532">
        <ele>68</ele>
        <time>2012-09-02T15:06:15Z</time>
      </trkpt>
      <trkpt lat="44.74198" lon="-0.39521">
        <ele>70</ele>
        <time>2012-09-02T15:06:23Z</time>
      </trkpt>
      <trkpt lat="44.74202" lon="-0.39508">
        <ele>72</ele>
        <time>2012-09-02T15:06:29Z</time>
      </trkpt>
      <trkpt lat="44.7421" lon="-0.39498">
        <ele>74</ele>
        <time>2012-09-02T15:06:36Z</time>
      </trkpt>
      <trkpt lat="44.7421" lon="-0.39484">
        <ele>75</ele>
        <time>2012-09-02T15:06:43Z</time>
      </trkpt>
      <trkpt lat="44.74207" lon="-0.3947">
        <ele>75</ele>
        <time>2012-09-02T15:06:48Z</time>
      </trkpt>
      <trkpt lat="44.74208" lon="-0.39456">
        <ele>77</ele>
        <time>2012-09-02T15:06:55Z</time>
      </trkpt>
      <trkpt lat="44.7421" lon="-0.39441">
        <ele>78</ele>
        <time>2012-09-02T15:07:03Z</time>
      </trkpt>
      <trkpt lat="44.74218" lon="-0.39434">
        <ele>79</ele>
        <time>2012-09-02T15:07:11Z</time>
      </trkpt>
      <trkpt lat="44.74228" lon="-0.3943">
        <ele>80</ele>
        <time>2012-09-02T15:07:16Z</time>
      </trkpt>
      <trkpt lat="44.74237" lon="-0.39426">
        <ele>81</ele>
        <time>2012-09-02T15:07:20Z</time>
      </trkpt>
      <trkpt lat="44.74249" lon="-0.39423">
        <ele>81</ele>
        <time>2012-09-02T15:07:24Z</time>
      </trkpt>
      <trkpt lat="44.74258" lon="-0.39418">
        <ele>81</ele>
        <time>2012-09-02T15:07:29Z</time>
      </trkpt>
      <trkpt lat="44.7427" lon="-0.39416">
        <ele>82</ele>
        <time>2012-09-02T15:07:34Z</time>
      </trkpt>
      <trkpt lat="44.74281" lon="-0.39416">
        <ele>82</ele>
        <time>2012-09-02T15:07:38Z</time>
      </trkpt>
      <trkpt lat="44.74292" lon="-0.39417">
        <ele>83</ele>
        <time>2012-09-02T15:07:43Z</time>
      </trkpt>
      <trkpt lat="44.74304" lon="-0.39414">
        <ele>83</ele>
        <time>2012-09-02T15:07:48Z</time>
      </trkpt>
      <trkpt lat="44.74313" lon="-0.39414">
        <ele>83</ele>
        <time>2012-09-02T15:07:52Z</time>
      </trkpt>
      <trkpt lat="44.74324" lon="-0.39411">
        <ele>83</ele>
        <time>2012-09-02T15:07:57Z</time>
      </trkpt>
      <trkpt lat="44.74334" lon="-0.3941">
        <ele>84</ele>
        <time>2012-09-02T15:08:14Z</time>
      </trkpt>
      <trkpt lat="44.7434" lon="-0.3942">
        <ele>84</ele>
        <time>2012-09-02T15:08:43Z</time>
      </trkpt>
      <trkpt lat="44.74351" lon="-0.39424">
        <ele>84</ele>
        <time>2012-09-02T15:08:48Z</time>
      </trkpt>
      <trkpt lat="44.7436" lon="-0.39433">
        <ele>84</ele>
        <time>2012-09-02T15:08:52Z</time>
      </trkpt>
      <trkpt lat="44.7436" lon="-0.39448">
        <ele>84</ele>
        <time>2012-09-02T15:08:55Z</time>
      </trkpt>
      <trkpt lat="44.74367" lon="-0.39459">
        <ele>84</ele>
        <time>2012-09-02T15:09:00Z</time>
      </trkpt>
      <trkpt lat="44.74376" lon="-0.39463">
        <ele>84</ele>
        <time>2012-09-02T15:09:04Z</time>
      </trkpt>
      <trkpt lat="44.74384" lon="-0.39475">
        <ele>84</ele>
        <time>2012-09-02T15:09:08Z</time>
      </trkpt>
      <trkpt lat="44.74387" lon="-0.39487">
        <ele>84</ele>
        <time>2012-09-02T15:09:12Z</time>
      </trkpt>
      <trkpt lat="44.74395" lon="-0.39498">
        <ele>84</ele>
        <time>2012-09-02T15:09:17Z</time>
      </trkpt>
      <trkpt lat="44.74405" lon="-0.39499">
        <ele>83</ele>
        <time>2012-09-02T15:09:20Z</time>
      </trkpt>
      <trkpt lat="44.74414" lon="-0.39503">
        <ele>82</ele>
        <time>2012-09-02T15:09:23Z</time>
      </trkpt>
      <trkpt lat="44.74426" lon="-0.39512">
        <ele>81</ele>
        <time>2012-09-02T15:09:27Z</time>
      </trkpt>
      <trkpt lat="44.74438" lon="-0.39513">
        <ele>80</ele>
        <time>2012-09-02T15:09:31Z</time>
      </trkpt>
      <trkpt lat="44.74447" lon="-0.3951">
        <ele>80</ele>
        <time>2012-09-02T15:09:35Z</time>
      </trkpt>
      <trkpt lat="44.74456" lon="-0.39509">
        <ele>79</ele>
        <time>2012-09-02T15:09:41Z</time>
      </trkpt>
      <trkpt lat="44.74466" lon="-0.39501">
        <ele>78</ele>
        <time>2012-09-02T15:09:46Z</time>
      </trkpt>
      <trkpt lat="44.74473" lon="-0.39489">
        <ele>77</ele>
        <time>2012-09-02T15:09:52Z</time>
      </trkpt>
      <trkpt lat="44.74484" lon="-0.39484">
        <ele>75</ele>
        <time>2012-09-02T15:09:56Z</time>
      </trkpt>
      <trkpt lat="44.74495" lon="-0.39482">
        <ele>74</ele>
        <time>2012-09-02T15:09:59Z</time>
      </trkpt>
      <trkpt lat="44.74503" lon="-0.39474">
        <ele>73</ele>
        <time>2012-09-02T15:10:02Z</time>
      </trkpt>
      <trkpt lat="44.74514" lon="-0.39468">
        <ele>71</ele>
        <time>2012-09-02T15:10:05Z</time>
      </trkpt>
      <trkpt lat="44.74523" lon="-0.39461">
        <ele>70</ele>
        <time>2012-09-02T15:10:07Z</time>
      </trkpt>
      <trkpt lat="44.7453" lon="-0.39452">
        <ele>69</ele>
        <time>2012-09-02T15:10:09Z</time>
      </trkpt>
      <trkpt lat="44.74533" lon="-0.39438">
        <ele>68</ele>
        <time>2012-09-02T15:10:15Z</time>
      </trkpt>
      <trkpt lat="44.7454" lon="-0.39427">
        <ele>66</ele>
        <time>2012-09-02T15:10:18Z</time>
      </trkpt>
      <trkpt lat="44.74552" lon="-0.39421">
        <ele>65</ele>
        <time>2012-09-02T15:10:22Z</time>
      </trkpt>
      <trkpt lat="44.74566" lon="-0.39422">
        <ele>63</ele>
        <time>2012-09-02T15:10:25Z</time>
      </trkpt>
      <trkpt lat="44.74574" lon="-0.39432">
        <ele>63</ele>
        <time>2012-09-02T15:10:28Z</time>
      </trkpt>
      <trkpt lat="44.74582" lon="-0.39439">
        <ele>62</ele>
        <time>2012-09-02T15:10:31Z</time>
      </trkpt>
      <trkpt lat="44.74592" lon="-0.39441">
        <ele>60</ele>
        <time>2012-09-02T15:10:34Z</time>
      </trkpt>
      <trkpt lat="44.74603" lon="-0.39437">
        <ele>59</ele>
        <time>2012-09-02T15:10:37Z</time>
      </trkpt>
      <trkpt lat="44.74614" lon="-0.39429">
        <ele>57</ele>
        <time>2012-09-02T15:10:41Z</time>
      </trkpt>
      <trkpt lat="44.74625" lon="-0.39418">
        <ele>56</ele>
        <time>2012-09-02T15:10:45Z</time>
      </trkpt>
      <trkpt lat="44.74634" lon="-0.39411">
        <ele>55</ele>
        <time>2012-09-02T15:10:51Z</time>
      </trkpt>
      <trkpt lat="44.74644" lon="-0.39415">
        <ele>54</ele>
        <time>2012-09-02T15:10:54Z</time>
      </trkpt>
      <trkpt lat="44.74655" lon="-0.39418">
        <ele>53</ele>
        <time>2012-09-02T15:10:57Z</time>
      </trkpt>
      <trkpt lat="44.74664" lon="-0.39415">
        <ele>53</ele>
        <time>2012-09-02T15:10:59Z</time>
      </trkpt>
      <trkpt lat="44.74674" lon="-0.39406">
        <ele>52</ele>
        <time>2012-09-02T15:11:02Z</time>
      </trkpt>
      <trkpt lat="44.74685" lon="-0.39411">
        <ele>51</ele>
        <time>2012-09-02T15:11:07Z</time>
      </trkpt>
      <trkpt lat="44.74696" lon="-0.39416">
        <ele>52</ele>
        <time>2012-09-02T15:11:12Z</time>
      </trkpt>
      <trkpt lat="44.74708" lon="-0.39418">
        <ele>53</ele>
        <time>2012-09-02T15:11:17Z</time>
      </trkpt>
      <trkpt lat="44.74717" lon="-0.39425">
        <ele>54</ele>
        <time>2012-09-02T15:11:22Z</time>
      </trkpt>
      <trkpt lat="44.74727" lon="-0.39433">
        <ele>56</ele>
        <time>2012-09-02T15:11:27Z</time>
      </trkpt>
      <trkpt lat="44.74737" lon="-0.39439">
        <ele>57</ele>
        <time>2012-09-02T15:11:31Z</time>
      </trkpt>
      <trkpt lat="44.74746" lon="-0.39443">
        <ele>58</ele>
        <time>2012-09-02T15:11:36Z</time>
      </trkpt>
      <trkpt lat="44.74755" lon="-0.3945">
        <ele>59</ele>
        <time>2012-09-02T15:11:42Z</time>
      </trkpt>
      <trkpt lat="44.74764" lon="-0.39455">
        <ele>60</ele>
        <time>2012-09-02T15:11:47Z</time>
      </trkpt>
      <trkpt lat="44.74771" lon="-0.39465">
        <ele>61</ele>
        <time>2012-09-02T15:11:52Z</time>
      </trkpt>
      <trkpt lat="44.74775" lon="-0.39478">
        <ele>62</ele>
        <time>2012-09-02T15:11:57Z</time>
      </trkpt>
      <trkpt lat="44.74767" lon="-0.3949">
        <ele>63</ele>
        <time>2012-09-02T15:12:05Z</time>
      </trkpt>
      <trkpt lat="44.74758" lon="-0.39498">
        <ele>64</ele>
        <time>2012-09-02T15:12:12Z</time>
      </trkpt>
      <trkpt lat="44.74751" lon="-0.3951">
        <ele>65</ele>
        <time>2012-09-02T15:12:17Z</time>
      </trkpt>
      <trkpt lat="44.74744" lon="-0.3952">
        <ele>66</ele>
        <time>2012-09-02T15:12:22Z</time>
      </trkpt>
      <trkpt lat="44.74733" lon="-0.39527">
        <ele>66</ele>
        <time>2012-09-02T15:12:28Z</time>
      </trkpt>
      <trkpt lat="44.74724" lon="-0.39533">
        <ele>66</ele>
        <time>2012-09-02T15:12:34Z</time>
      </trkpt>
      <trkpt lat="44.74716" lon="-0.39541">
        <ele>66</ele>
        <time>2012-09-02T15:12:39Z</time>
      </trkpt>
      <trkpt lat="44.7471" lon="-0.39554">
        <ele>66</ele>
        <time>2012-09-02T15:12:47Z</time>
      </trkpt>
      <trkpt lat="44.74704" lon="-0.39566">
        <ele>67</ele>
        <time>2012-09-02T15:12:52Z</time>
      </trkpt>
      <trkpt lat="44.74698" lon="-0.39578">
        <ele>67</ele>
        <time>2012-09-02T15:12:56Z</time>
      </trkpt>
      <trkpt lat="44.74694" lon="-0.39591">
        <ele>68</ele>
        <time>2012-09-02T15:13:00Z</time>
      </trkpt>
      <trkpt lat="44.74695" lon="-0.39605">
        <ele>69</ele>
        <time>2012-09-02T15:13:06Z</time>
      </trkpt>
      <trkpt lat="44.74693" lon="-0.39618">
        <ele>69</ele>
        <time>2012-09-02T15:13:12Z</time>
      </trkpt>
      <trkpt lat="44.74689" lon="-0.39633">
        <ele>70</ele>
        <time>2012-09-02T15:13:16Z</time>
      </trkpt>
      <trkpt lat="44.74682" lon="-0.39646">
        <ele>70</ele>
        <time>2012-09-02T15:13:19Z</time>
      </trkpt>
      <trkpt lat="44.74675" lon="-0.39657">
        <ele>70</ele>
        <time>2012-09-02T15:13:23Z</time>
      </trkpt>
      <trkpt lat="44.74669" lon="-0.3967">
        <ele>70</ele>
        <time>2012-09-02T15:13:27Z</time>
      </trkpt>
      <trkpt lat="44.74664" lon="-0.39687">
        <ele>70</ele>
        <time>2012-09-02T15:13:31Z</time>
      </trkpt>
      <trkpt lat="44.74668" lon="-0.39694">
        <ele>71</ele>
        <time>2012-09-02T15:13:37Z</time>
      </trkpt>
      <trkpt lat="44.74673" lon="-0.39695">
        <ele>71</ele>
        <time>2012-09-02T15:15:03Z</time>
      </trkpt>
      <trkpt lat="44.74671" lon="-0.39695">
        <ele>71</ele>
        <time>2012-09-02T15:15:53Z</time>
      </trkpt>
      <trkpt lat="44.74682" lon="-0.39693">
        <ele>71</ele>
        <time>2012-09-02T15:16:21Z</time>
      </trkpt>
      <trkpt lat="44.74692" lon="-0.3969">
        <ele>71</ele>
        <time>2012-09-02T15:16:26Z</time>
      </trkpt>
      <trkpt lat="44.74702" lon="-0.3969">
        <ele>71</ele>
        <time>2012-09-02T15:16:31Z</time>
      </trkpt>
      <trkpt lat="44.74713" lon="-0.39693">
        <ele>71</ele>
        <time>2012-09-02T15:16:35Z</time>
      </trkpt>
      <trkpt lat="44.74725" lon="-0.39694">
        <ele>71</ele>
        <time>2012-09-02T15:16:39Z</time>
      </trkpt>
      <trkpt lat="44.74735" lon="-0.39695">
        <ele>71</ele>
        <time>2012-09-02T15:16:42Z</time>
      </trkpt>
      <trkpt lat="44.74746" lon="-0.39695">
        <ele>71</ele>
        <time>2012-09-02T15:16:45Z</time>
      </trkpt>
      <trkpt lat="44.74755" lon="-0.39696">
        <ele>70</ele>
        <time>2012-09-02T15:16:48Z</time>
      </trkpt>
      <trkpt lat="44.74765" lon="-0.39698">
        <ele>70</ele>
        <time>2012-09-02T15:16:51Z</time>
      </trkpt>
      <trkpt lat="44.74778" lon="-0.39701">
        <ele>70</ele>
        <time>2012-09-02T15:16:54Z</time>
      </trkpt>
      <trkpt lat="44.74788" lon="-0.39702">
        <ele>70</ele>
        <time>2012-09-02T15:16:56Z</time>
      </trkpt>
      <trkpt lat="44.74798" lon="-0.39704">
        <ele>70</ele>
        <time>2012-09-02T15:16:58Z</time>
      </trkpt>
      <trkpt lat="44.7481" lon="-0.39704">
        <ele>70</ele>
        <time>2012-09-02T15:17:00Z</time>
      </trkpt>
      <trkpt lat="44.7482" lon="-0.39704">
        <ele>70</ele>
        <time>2012-09-02T15:17:02Z</time>
      </trkpt>
      <trkpt lat="44.7483" lon="-0.39702">
        <ele>70</ele>
        <time>2012-09-02T15:17:04Z</time>
      </trkpt>
      <trkpt lat="44.74841" lon="-0.39699">
        <ele>69</ele>
        <time>2012-09-02T15:17:06Z</time>
      </trkpt>
      <trkpt lat="44.74849" lon="-0.39693">
        <ele>69</ele>
        <time>2012-09-02T15:17:08Z</time>
      </trkpt>
      <trkpt lat="44.74861" lon="-0.39682">
        <ele>68</ele>
        <time>2012-09-02T15:17:10Z</time>
      </trkpt>
      <trkpt lat="44.74873" lon="-0.39667">
        <ele>66</ele>
        <time>2012-09-02T15:17:12Z</time>
      </trkpt>
      <trkpt lat="44.74885" lon="-0.39648">
        <ele>63</ele>
        <time>2012-09-02T15:17:14Z</time>
      </trkpt>
      <trkpt lat="44.74891" lon="-0.39637">
        <ele>62</ele>
        <time>2012-09-02T15:17:15Z</time>
      </trkpt>
      <trkpt lat="44.74896" lon="-0.39626">
        <ele>60</ele>
        <time>2012-09-02T15:17:16Z</time>
      </trkpt>
      <trkpt lat="44.74901" lon="-0.39614">
        <ele>59</ele>
        <time>2012-09-02T15:17:17Z</time>
      </trkpt>
      <trkpt lat="44.74904" lon="-0.396">
        <ele>58</ele>
        <time>2012-09-02T15:17:18Z</time>
      </trkpt>
      <trkpt lat="44.74908" lon="-0.39586">
        <ele>58</ele>
        <time>2012-09-02T15:17:19Z</time>
      </trkpt>
      <trkpt lat="44.74911" lon="-0.39571">
        <ele>57</ele>
        <time>2012-09-02T15:17:20Z</time>
      </trkpt>
      <trkpt lat="44.74913" lon="-0.39556">
        <ele>56</ele>
        <time>2012-09-02T15:17:21Z</time>
      </trkpt>
      <trkpt lat="44.74912" lon="-0.39542">
        <ele>56</ele>
        <time>2012-09-02T15:17:22Z</time>
      </trkpt>
      <trkpt lat="44.74913" lon="-0.39527">
        <ele>55</ele>
        <time>2012-09-02T15:17:23Z</time>
      </trkpt>
      <trkpt lat="44.74912" lon="-0.39512">
        <ele>55</ele>
        <time>2012-09-02T15:17:24Z</time>
      </trkpt>
      <trkpt lat="44.74912" lon="-0.39498">
        <ele>55</ele>
        <time>2012-09-02T15:17:25Z</time>
      </trkpt>
      <trkpt lat="44.74911" lon="-0.39483">
        <ele>55</ele>
        <time>2012-09-02T15:17:26Z</time>
      </trkpt>
      <trkpt lat="44.74911" lon="-0.39467">
        <ele>55</ele>
        <time>2012-09-02T15:17:27Z</time>
      </trkpt>
      <trkpt lat="44.7491" lon="-0.39451">
        <ele>55</ele>
        <time>2012-09-02T15:17:28Z</time>
      </trkpt>
      <trkpt lat="44.74909" lon="-0.39435">
        <ele>54</ele>
        <time>2012-09-02T15:17:29Z</time>
      </trkpt>
      <trkpt lat="44.74909" lon="-0.3942">
        <ele>54</ele>
        <time>2012-09-02T15:17:30Z</time>
      </trkpt>
      <trkpt lat="44.74909" lon="-0.39406">
        <ele>54</ele>
        <time>2012-09-02T15:17:31Z</time>
      </trkpt>
      <trkpt lat="44.74907" lon="-0.39391">
        <ele>53</ele>
        <time>2012-09-02T15:17:32Z</time>
      </trkpt>
      <trkpt lat="44.74906" lon="-0.39376">
        <ele>52</ele>
        <time>2012-09-02T15:17:33Z</time>
      </trkpt>
      <trkpt lat="44.74903" lon="-0.39362">
        <ele>52</ele>
        <time>2012-09-02T15:17:34Z</time>
      </trkpt>
      <trkpt lat="44.749" lon="-0.39348">
        <ele>51</ele>
        <time>2012-09-02T15:17:35Z</time>
      </trkpt>
      <trkpt lat="44.74896" lon="-0.39335">
        <ele>50</ele>
        <time>2012-09-02T15:17:36Z</time>
      </trkpt>
      <trkpt lat="44.74891" lon="-0.39321">
        <ele>50</ele>
        <time>2012-09-02T15:17:37Z</time>
      </trkpt>
      <trkpt lat="44.74885" lon="-0.3931">
        <ele>49</ele>
        <time>2012-09-02T15:17:38Z</time>
      </trkpt>
      <trkpt lat="44.74877" lon="-0.39299">
        <ele>49</ele>
        <time>2012-09-02T15:17:39Z</time>
      </trkpt>
      <trkpt lat="44.74868" lon="-0.39285">
        <ele>48</ele>
        <time>2012-09-02T15:17:40Z</time>
      </trkpt>
      <trkpt lat="44.7486" lon="-0.39274">
        <ele>48</ele>
        <time>2012-09-02T15:17:41Z</time>
      </trkpt>
      <trkpt lat="44.74851" lon="-0.39263">
        <ele>47</ele>
        <time>2012-09-02T15:17:42Z</time>
      </trkpt>
      <trkpt lat="44.74843" lon="-0.39251">
        <ele>46</ele>
        <time>2012-09-02T15:17:43Z</time>
      </trkpt>
      <trkpt lat="44.74835" lon="-0.39239">
        <ele>45</ele>
        <time>2012-09-02T15:17:44Z</time>
      </trkpt>
      <trkpt lat="44.74827" lon="-0.39229">
        <ele>44</ele>
        <time>2012-09-02T15:17:45Z</time>
      </trkpt>
      <trkpt lat="44.74819" lon="-0.39216">
        <ele>43</ele>
        <time>2012-09-02T15:17:46Z</time>
      </trkpt>
      <trkpt lat="44.7481" lon="-0.39204">
        <ele>42</ele>
        <time>2012-09-02T15:17:47Z</time>
      </trkpt>
      <trkpt lat="44.74803" lon="-0.39192">
        <ele>41</ele>
        <time>2012-09-02T15:17:48Z</time>
      </trkpt>
      <trkpt lat="44.74797" lon="-0.39177">
        <ele>40</ele>
        <time>2012-09-02T15:17:49Z</time>
      </trkpt>
      <trkpt lat="44.74794" lon="-0.39161">
        <ele>39</ele>
        <time>2012-09-02T15:17:50Z</time>
      </trkpt>
      <trkpt lat="44.74794" lon="-0.39146">
        <ele>38</ele>
        <time>2012-09-02T15:17:51Z</time>
      </trkpt>
      <trkpt lat="44.74798" lon="-0.39132">
        <ele>37</ele>
        <time>2012-09-02T15:17:52Z</time>
      </trkpt>
      <trkpt lat="44.7481" lon="-0.39111">
        <ele>36</ele>
        <time>2012-09-02T15:17:54Z</time>
      </trkpt>
      <trkpt lat="44.74816" lon="-0.39101">
        <ele>35</ele>
        <time>2012-09-02T15:17:55Z</time>
      </trkpt>
      <trkpt lat="44.74822" lon="-0.39091">
        <ele>35</ele>
        <time>2012-09-02T15:17:56Z</time>
      </trkpt>
      <trkpt lat="44.74829" lon="-0.39081">
        <ele>34</ele>
        <time>2012-09-02T15:17:57Z</time>
      </trkpt>
      <trkpt lat="44.74836" lon="-0.39071">
        <ele>34</ele>
        <time>2012-09-02T15:17:58Z</time>
      </trkpt>
      <trkpt lat="44.74843" lon="-0.39062">
        <ele>34</ele>
        <time>2012-09-02T15:17:59Z</time>
      </trkpt>
      <trkpt lat="44.74855" lon="-0.39046">
        <ele>34</ele>
        <time>2012-09-02T15:18:01Z</time>
      </trkpt>
      <trkpt lat="44.74867" lon="-0.3903">
        <ele>35</ele>
        <time>2012-09-02T15:18:03Z</time>
      </trkpt>
      <trkpt lat="44.74879" lon="-0.39013">
        <ele>36</ele>
        <time>2012-09-02T15:18:05Z</time>
      </trkpt>
      <trkpt lat="44.74889" lon="-0.38999">
        <ele>38</ele>
        <time>2012-09-02T15:18:07Z</time>
      </trkpt>
      <trkpt lat="44.74899" lon="-0.38986">
        <ele>40</ele>
        <time>2012-09-02T15:18:09Z</time>
      </trkpt>
      <trkpt lat="44.74907" lon="-0.38975">
        <ele>41</ele>
        <time>2012-09-02T15:18:12Z</time>
      </trkpt>
      <trkpt lat="44.74914" lon="-0.38964">
        <ele>43</ele>
        <time>2012-09-02T15:18:15Z</time>
      </trkpt>
      <trkpt lat="44.74922" lon="-0.38954">
        <ele>44</ele>
        <time>2012-09-02T15:18:18Z</time>
      </trkpt>
      <trkpt lat="44.7493" lon="-0.38943">
        <ele>46</ele>
        <time>2012-09-02T15:18:23Z</time>
      </trkpt>
      <trkpt lat="44.74938" lon="-0.38935">
        <ele>48</ele>
        <time>2012-09-02T15:18:27Z</time>
      </trkpt>
      <trkpt lat="44.74945" lon="-0.38924">
        <ele>49</ele>
        <time>2012-09-02T15:18:32Z</time>
      </trkpt>
      <trkpt lat="44.74951" lon="-0.38913">
        <ele>50</ele>
        <time>2012-09-02T15:18:37Z</time>
      </trkpt>
      <trkpt lat="44.74959" lon="-0.38904">
        <ele>50</ele>
        <time>2012-09-02T15:18:41Z</time>
      </trkpt>
      <trkpt lat="44.74966" lon="-0.38895">
        <ele>49</ele>
        <time>2012-09-02T15:18:45Z</time>
      </trkpt>
      <trkpt lat="44.74972" lon="-0.38885">
        <ele>50</ele>
        <time>2012-09-02T15:18:50Z</time>
      </trkpt>
      <trkpt lat="44.7498" lon="-0.38876">
        <ele>52</ele>
        <time>2012-09-02T15:18:56Z</time>
      </trkpt>
      <trkpt lat="44.74988" lon="-0.38863">
        <ele>53</ele>
        <time>2012-09-02T15:19:02Z</time>
      </trkpt>
      <trkpt lat="44.74994" lon="-0.38853">
        <ele>54</ele>
        <time>2012-09-02T15:19:09Z</time>
      </trkpt>
      <trkpt lat="44.75001" lon="-0.38844">
        <ele>54</ele>
        <time>2012-09-02T15:19:15Z</time>
      </trkpt>
      <trkpt lat="44.75009" lon="-0.38834">
        <ele>52</ele>
        <time>2012-09-02T15:19:20Z</time>
      </trkpt>
      <trkpt lat="44.75017" lon="-0.38824">
        <ele>53</ele>
        <time>2012-09-02T15:19:25Z</time>
      </trkpt>
      <trkpt lat="44.75023" lon="-0.38813">
        <ele>54</ele>
        <time>2012-09-02T15:19:30Z</time>
      </trkpt>
      <trkpt lat="44.75029" lon="-0.388">
        <ele>56</ele>
        <time>2012-09-02T15:19:34Z</time>
      </trkpt>
      <trkpt lat="44.75034" lon="-0.38788">
        <ele>58</ele>
        <time>2012-09-02T15:19:38Z</time>
      </trkpt>
      <trkpt lat="44.75039" lon="-0.38776">
        <ele>60</ele>
        <time>2012-09-02T15:19:42Z</time>
      </trkpt>
      <trkpt lat="44.75043" lon="-0.38764">
        <ele>61</ele>
        <time>2012-09-02T15:19:46Z</time>
      </trkpt>
      <trkpt lat="44.75049" lon="-0.38752">
        <ele>61</ele>
        <time>2012-09-02T15:19:50Z</time>
      </trkpt>
      <trkpt lat="44.75054" lon="-0.3874">
        <ele>61</ele>
        <time>2012-09-02T15:19:54Z</time>
      </trkpt>
      <trkpt lat="44.75059" lon="-0.38727">
        <ele>62</ele>
        <time>2012-09-02T15:19:58Z</time>
      </trkpt>
      <trkpt lat="44.75063" lon="-0.38716">
        <ele>62</ele>
        <time>2012-09-02T15:20:02Z</time>
      </trkpt>
      <trkpt lat="44.75067" lon="-0.38703">
        <ele>62</ele>
        <time>2012-09-02T15:20:06Z</time>
      </trkpt>
      <trkpt lat="44.75072" lon="-0.38689">
        <ele>63</ele>
        <time>2012-09-02T15:20:10Z</time>
      </trkpt>
      <trkpt lat="44.75077" lon="-0.38676">
        <ele>64</ele>
        <time>2012-09-02T15:20:14Z</time>
      </trkpt>
      <trkpt lat="44.75084" lon="-0.38663">
        <ele>65</ele>
        <time>2012-09-02T15:20:18Z</time>
      </trkpt>
      <trkpt lat="44.7509" lon="-0.38649">
        <ele>65</ele>
        <time>2012-09-02T15:20:23Z</time>
      </trkpt>
      <trkpt lat="44.75097" lon="-0.38639">
        <ele>66</ele>
        <time>2012-09-02T15:20:27Z</time>
      </trkpt>
      <trkpt lat="44.75105" lon="-0.38629">
        <ele>67</ele>
        <time>2012-09-02T15:20:31Z</time>
      </trkpt>
      <trkpt lat="44.75113" lon="-0.3862">
        <ele>67</ele>
        <time>2012-09-02T15:20:36Z</time>
      </trkpt>
      <trkpt lat="44.75121" lon="-0.38611">
        <ele>68</ele>
        <time>2012-09-02T15:20:41Z</time>
      </trkpt>
      <trkpt lat="44.75129" lon="-0.38602">
        <ele>69</ele>
        <time>2012-09-02T15:20:46Z</time>
      </trkpt>
      <trkpt lat="44.75136" lon="-0.38591">
        <ele>70</ele>
        <time>2012-09-02T15:20:51Z</time>
      </trkpt>
      <trkpt lat="44.75144" lon="-0.3858">
        <ele>71</ele>
        <time>2012-09-02T15:20:56Z</time>
      </trkpt>
      <trkpt lat="44.7515" lon="-0.38568">
        <ele>72</ele>
        <time>2012-09-02T15:21:01Z</time>
      </trkpt>
      <trkpt lat="44.75156" lon="-0.38556">
        <ele>73</ele>
        <time>2012-09-02T15:21:06Z</time>
      </trkpt>
      <trkpt lat="44.7516" lon="-0.38542">
        <ele>73</ele>
        <time>2012-09-02T15:21:12Z</time>
      </trkpt>
      <trkpt lat="44.75166" lon="-0.38531">
        <ele>74</ele>
        <time>2012-09-02T15:21:17Z</time>
      </trkpt>
      <trkpt lat="44.75173" lon="-0.38519">
        <ele>76</ele>
        <time>2012-09-02T15:21:23Z</time>
      </trkpt>
      <trkpt lat="44.7518" lon="-0.3851">
        <ele>77</ele>
        <time>2012-09-02T15:21:28Z</time>
      </trkpt>
      <trkpt lat="44.75186" lon="-0.38497">
        <ele>79</ele>
        <time>2012-09-02T15:21:34Z</time>
      </trkpt>
      <trkpt lat="44.75192" lon="-0.38487">
        <ele>80</ele>
        <time>2012-09-02T15:21:39Z</time>
      </trkpt>
      <trkpt lat="44.75199" lon="-0.38476">
        <ele>81</ele>
        <time>2012-09-02T15:21:45Z</time>
      </trkpt>
      <trkpt lat="44.75207" lon="-0.38467">
        <ele>82</ele>
        <time>2012-09-02T15:21:51Z</time>
      </trkpt>
      <trkpt lat="44.75215" lon="-0.38461">
        <ele>83</ele>
        <time>2012-09-02T15:21:56Z</time>
      </trkpt>
      <trkpt lat="44.75225" lon="-0.38454">
        <ele>83</ele>
        <time>2012-09-02T15:22:02Z</time>
      </trkpt>
      <trkpt lat="44.75235" lon="-0.38451">
        <ele>84</ele>
        <time>2012-09-02T15:22:07Z</time>
      </trkpt>
      <trkpt lat="44.75244" lon="-0.38449">
        <ele>85</ele>
        <time>2012-09-02T15:22:12Z</time>
      </trkpt>
      <trkpt lat="44.75255" lon="-0.38448">
        <ele>86</ele>
        <time>2012-09-02T15:22:18Z</time>
      </trkpt>
      <trkpt lat="44.75264" lon="-0.38445">
        <ele>86</ele>
        <time>2012-09-02T15:22:23Z</time>
      </trkpt>
      <trkpt lat="44.75273" lon="-0.38442">
        <ele>87</ele>
        <time>2012-09-02T15:22:28Z</time>
      </trkpt>
      <trkpt lat="44.75283" lon="-0.38434">
        <ele>88</ele>
        <time>2012-09-02T15:22:33Z</time>
      </trkpt>
      <trkpt lat="44.7529" lon="-0.38422">
        <ele>88</ele>
        <time>2012-09-02T15:22:38Z</time>
      </trkpt>
      <trkpt lat="44.75296" lon="-0.38411">
        <ele>89</ele>
        <time>2012-09-02T15:22:42Z</time>
      </trkpt>
      <trkpt lat="44.75301" lon="-0.38399">
        <ele>89</ele>
        <time>2012-09-02T15:22:46Z</time>
      </trkpt>
      <trkpt lat="44.75304" lon="-0.38385">
        <ele>89</ele>
        <time>2012-09-02T15:22:50Z</time>
      </trkpt>
      <trkpt lat="44.75307" lon="-0.3837">
        <ele>90</ele>
        <time>2012-09-02T15:22:54Z</time>
      </trkpt>
      <trkpt lat="44.75308" lon="-0.38355">
        <ele>90</ele>
        <time>2012-09-02T15:22:58Z</time>
      </trkpt>
      <trkpt lat="44.7531" lon="-0.3834">
        <ele>90</ele>
        <time>2012-09-02T15:23:02Z</time>
      </trkpt>
      <trkpt lat="44.75311" lon="-0.38324">
        <ele>90</ele>
        <time>2012-09-02T15:23:06Z</time>
      </trkpt>
      <trkpt lat="44.75312" lon="-0.38309">
        <ele>90</ele>
        <time>2012-09-02T15:23:10Z</time>
      </trkpt>
      <trkpt lat="44.75313" lon="-0.38294">
        <ele>91</ele>
        <time>2012-09-02T15:23:14Z</time>
      </trkpt>
      <trkpt lat="44.75314" lon="-0.38279">
        <ele>91</ele>
        <time>2012-09-02T15:23:18Z</time>
      </trkpt>
      <trkpt lat="44.75316" lon="-0.38264">
        <ele>91</ele>
        <time>2012-09-02T15:23:22Z</time>
      </trkpt>
      <trkpt lat="44.75317" lon="-0.3825">
        <ele>91</ele>
        <time>2012-09-02T15:23:27Z</time>
      </trkpt>
      <trkpt lat="44.75318" lon="-0.38237">
        <ele>91</ele>
        <time>2012-09-02T15:23:35Z</time>
      </trkpt>
      <trkpt lat="44.7532" lon="-0.38223">
        <ele>91</ele>
        <time>2012-09-02T15:23:42Z</time>
      </trkpt>
      <trkpt lat="44.75322" lon="-0.38208">
        <ele>91</ele>
        <time>2012-09-02T15:23:47Z</time>
      </trkpt>
      <trkpt lat="44.75324" lon="-0.38194">
        <ele>91</ele>
        <time>2012-09-02T15:23:53Z</time>
      </trkpt>
      <trkpt lat="44.75327" lon="-0.3818">
        <ele>90</ele>
        <time>2012-09-02T15:24:00Z</time>
      </trkpt>
      <trkpt lat="44.7533" lon="-0.38168">
        <ele>90</ele>
        <time>2012-09-02T15:24:05Z</time>
      </trkpt>
      <trkpt lat="44.75334" lon="-0.38155">
        <ele>90</ele>
        <time>2012-09-02T15:24:09Z</time>
      </trkpt>
      <trkpt lat="44.75339" lon="-0.38141">
        <ele>90</ele>
        <time>2012-09-02T15:24:13Z</time>
      </trkpt>
      <trkpt lat="44.75343" lon="-0.38129">
        <ele>90</ele>
        <time>2012-09-02T15:24:16Z</time>
      </trkpt>
      <trkpt lat="44.75349" lon="-0.38117">
        <ele>90</ele>
        <time>2012-09-02T15:24:19Z</time>
      </trkpt>
      <trkpt lat="44.75354" lon="-0.38106">
        <ele>90</ele>
        <time>2012-09-02T15:24:22Z</time>
      </trkpt>
      <trkpt lat="44.75359" lon="-0.38092">
        <ele>90</ele>
        <time>2012-09-02T15:24:25Z</time>
      </trkpt>
      <trkpt lat="44.75365" lon="-0.38079">
        <ele>90</ele>
        <time>2012-09-02T15:24:28Z</time>
      </trkpt>
      <trkpt lat="44.75371" lon="-0.38065">
        <ele>89</ele>
        <time>2012-09-02T15:24:31Z</time>
      </trkpt>
      <trkpt lat="44.75377" lon="-0.38052">
        <ele>89</ele>
        <time>2012-09-02T15:24:34Z</time>
      </trkpt>
      <trkpt lat="44.75383" lon="-0.38037">
        <ele>89</ele>
        <time>2012-09-02T15:24:37Z</time>
      </trkpt>
      <trkpt lat="44.75389" lon="-0.38021">
        <ele>88</ele>
        <time>2012-09-02T15:24:40Z</time>
      </trkpt>
      <trkpt lat="44.75395" lon="-0.38004">
        <ele>88</ele>
        <time>2012-09-02T15:24:43Z</time>
      </trkpt>
      <trkpt lat="44.754" lon="-0.37992">
        <ele>88</ele>
        <time>2012-09-02T15:24:45Z</time>
      </trkpt>
      <trkpt lat="44.75407" lon="-0.37976">
        <ele>87</ele>
        <time>2012-09-02T15:24:48Z</time>
      </trkpt>
      <trkpt lat="44.75413" lon="-0.37961">
        <ele>87</ele>
        <time>2012-09-02T15:24:51Z</time>
      </trkpt>
      <trkpt lat="44.75418" lon="-0.37945">
        <ele>87</ele>
        <time>2012-09-02T15:24:54Z</time>
      </trkpt>
      <trkpt lat="44.75418" lon="-0.37928">
        <ele>87</ele>
        <time>2012-09-02T15:24:57Z</time>
      </trkpt>
      <trkpt lat="44.75413" lon="-0.37913">
        <ele>86</ele>
        <time>2012-09-02T15:25:00Z</time>
      </trkpt>
      <trkpt lat="44.75408" lon="-0.37899">
        <ele>85</ele>
        <time>2012-09-02T15:25:03Z</time>
      </trkpt>
      <trkpt lat="44.75405" lon="-0.37882">
        <ele>85</ele>
        <time>2012-09-02T15:25:06Z</time>
      </trkpt>
      <trkpt lat="44.75402" lon="-0.37865">
        <ele>85</ele>
        <time>2012-09-02T15:25:09Z</time>
      </trkpt>
      <trkpt lat="44.754" lon="-0.37846">
        <ele>84</ele>
        <time>2012-09-02T15:25:12Z</time>
      </trkpt>
      <trkpt lat="44.75399" lon="-0.37833">
        <ele>84</ele>
        <time>2012-09-02T15:25:14Z</time>
      </trkpt>
      <trkpt lat="44.75399" lon="-0.37814">
        <ele>84</ele>
        <time>2012-09-02T15:25:17Z</time>
      </trkpt>
      <trkpt lat="44.75398" lon="-0.37794">
        <ele>83</ele>
        <time>2012-09-02T15:25:20Z</time>
      </trkpt>
      <trkpt lat="44.75397" lon="-0.37779">
        <ele>83</ele>
        <time>2012-09-02T15:25:22Z</time>
      </trkpt>
      <trkpt lat="44.75397" lon="-0.37763">
        <ele>82</ele>
        <time>2012-09-02T15:25:24Z</time>
      </trkpt>
      <trkpt lat="44.75397" lon="-0.37746">
        <ele>82</ele>
        <time>2012-09-02T15:25:26Z</time>
      </trkpt>
      <trkpt lat="44.75396" lon="-0.37728">
        <ele>81</ele>
        <time>2012-09-02T15:25:28Z</time>
      </trkpt>
      <trkpt lat="44.75395" lon="-0.3771">
        <ele>80</ele>
        <time>2012-09-02T15:25:30Z</time>
      </trkpt>
      <trkpt lat="44.75392" lon="-0.3769">
        <ele>80</ele>
        <time>2012-09-02T15:25:32Z</time>
      </trkpt>
      <trkpt lat="44.7539" lon="-0.37672">
        <ele>79</ele>
        <time>2012-09-02T15:25:34Z</time>
      </trkpt>
      <trkpt lat="44.75388" lon="-0.37654">
        <ele>79</ele>
        <time>2012-09-02T15:25:36Z</time>
      </trkpt>
      <trkpt lat="44.75386" lon="-0.37637">
        <ele>79</ele>
        <time>2012-09-02T15:25:38Z</time>
      </trkpt>
      <trkpt lat="44.75384" lon="-0.37622">
        <ele>79</ele>
        <time>2012-09-02T15:25:40Z</time>
      </trkpt>
      <trkpt lat="44.75383" lon="-0.37608">
        <ele>79</ele>
        <time>2012-09-02T15:25:42Z</time>
      </trkpt>
      <trkpt lat="44.7538" lon="-0.37595">
        <ele>79</ele>
        <time>2012-09-02T15:25:44Z</time>
      </trkpt>
      <trkpt lat="44.75379" lon="-0.3758">
        <ele>80</ele>
        <time>2012-09-02T15:25:46Z</time>
      </trkpt>
      <trkpt lat="44.75376" lon="-0.37567">
        <ele>80</ele>
        <time>2012-09-02T15:25:48Z</time>
      </trkpt>
      <trkpt lat="44.75374" lon="-0.37553">
        <ele>80</ele>
        <time>2012-09-02T15:25:51Z</time>
      </trkpt>
      <trkpt lat="44.75372" lon="-0.37536">
        <ele>80</ele>
        <time>2012-09-02T15:25:54Z</time>
      </trkpt>
      <trkpt lat="44.7537" lon="-0.37517">
        <ele>80</ele>
        <time>2012-09-02T15:25:57Z</time>
      </trkpt>
      <trkpt lat="44.75366" lon="-0.37502">
        <ele>79</ele>
        <time>2012-09-02T15:25:59Z</time>
      </trkpt>
      <trkpt lat="44.75361" lon="-0.37489">
        <ele>79</ele>
        <time>2012-09-02T15:26:01Z</time>
      </trkpt>
      <trkpt lat="44.75354" lon="-0.37476">
        <ele>78</ele>
        <time>2012-09-02T15:26:03Z</time>
      </trkpt>
      <trkpt lat="44.75347" lon="-0.37465">
        <ele>79</ele>
        <time>2012-09-02T15:26:05Z</time>
      </trkpt>
      <trkpt lat="44.75338" lon="-0.37454">
        <ele>79</ele>
        <time>2012-09-02T15:26:07Z</time>
      </trkpt>
      <trkpt lat="44.75331" lon="-0.37444">
        <ele>79</ele>
        <time>2012-09-02T15:26:09Z</time>
      </trkpt>
      <trkpt lat="44.75324" lon="-0.37433">
        <ele>79</ele>
        <time>2012-09-02T15:26:11Z</time>
      </trkpt>
      <trkpt lat="44.75317" lon="-0.37423">
        <ele>79</ele>
        <time>2012-09-02T15:26:13Z</time>
      </trkpt>
      <trkpt lat="44.7531" lon="-0.37414">
        <ele>79</ele>
        <time>2012-09-02T15:26:15Z</time>
      </trkpt>
      <trkpt lat="44.75301" lon="-0.37401">
        <ele>80</ele>
        <time>2012-09-02T15:26:18Z</time>
      </trkpt>
      <trkpt lat="44.75293" lon="-0.37391">
        <ele>80</ele>
        <time>2012-09-02T15:26:21Z</time>
      </trkpt>
      <trkpt lat="44.75284" lon="-0.3738">
        <ele>80</ele>
        <time>2012-09-02T15:26:25Z</time>
      </trkpt>
      <trkpt lat="44.75276" lon="-0.37372">
        <ele>79</ele>
        <time>2012-09-02T15:26:28Z</time>
      </trkpt>
      <trkpt lat="44.75265" lon="-0.3736">
        <ele>79</ele>
        <time>2012-09-02T15:26:31Z</time>
      </trkpt>
      <trkpt lat="44.75256" lon="-0.3735">
        <ele>78</ele>
        <time>2012-09-02T15:26:33Z</time>
      </trkpt>
      <trkpt lat="44.75245" lon="-0.37336">
        <ele>77</ele>
        <time>2012-09-02T15:26:35Z</time>
      </trkpt>
      <trkpt lat="44.75235" lon="-0.37317">
        <ele>75</ele>
        <time>2012-09-02T15:26:37Z</time>
      </trkpt>
      <trkpt lat="44.75224" lon="-0.37297">
        <ele>73</ele>
        <time>2012-09-02T15:26:39Z</time>
      </trkpt>
      <trkpt lat="44.75215" lon="-0.37277">
        <ele>71</ele>
        <time>2012-09-02T15:26:41Z</time>
      </trkpt>
      <trkpt lat="44.75205" lon="-0.3726">
        <ele>69</ele>
        <time>2012-09-02T15:26:43Z</time>
      </trkpt>
      <trkpt lat="44.75194" lon="-0.37248">
        <ele>67</ele>
        <time>2012-09-02T15:26:45Z</time>
      </trkpt>
      <trkpt lat="44.75182" lon="-0.3724">
        <ele>66</ele>
        <time>2012-09-02T15:26:47Z</time>
      </trkpt>
      <trkpt lat="44.75169" lon="-0.37234">
        <ele>64</ele>
        <time>2012-09-02T15:26:49Z</time>
      </trkpt>
      <trkpt lat="44.75158" lon="-0.3723">
        <ele>62</ele>
        <time>2012-09-02T15:26:51Z</time>
      </trkpt>
      <trkpt lat="44.75146" lon="-0.37223">
        <ele>60</ele>
        <time>2012-09-02T15:26:53Z</time>
      </trkpt>
      <trkpt lat="44.75135" lon="-0.37215">
        <ele>58</ele>
        <time>2012-09-02T15:26:55Z</time>
      </trkpt>
      <trkpt lat="44.75125" lon="-0.37208">
        <ele>56</ele>
        <time>2012-09-02T15:26:57Z</time>
      </trkpt>
      <trkpt lat="44.75116" lon="-0.37201">
        <ele>54</ele>
        <time>2012-09-02T15:26:59Z</time>
      </trkpt>
      <trkpt lat="44.75109" lon="-0.3719">
        <ele>53</ele>
        <time>2012-09-02T15:27:03Z</time>
      </trkpt>
      <trkpt lat="44.75115" lon="-0.37175">
        <ele>53</ele>
        <time>2012-09-02T15:27:07Z</time>
      </trkpt>
      <trkpt lat="44.7512" lon="-0.37162">
        <ele>53</ele>
        <time>2012-09-02T15:27:10Z</time>
      </trkpt>
      <trkpt lat="44.75123" lon="-0.37148">
        <ele>53</ele>
        <time>2012-09-02T15:27:13Z</time>
      </trkpt>
      <trkpt lat="44.75125" lon="-0.37132">
        <ele>53</ele>
        <time>2012-09-02T15:27:16Z</time>
      </trkpt>
      <trkpt lat="44.75127" lon="-0.37118">
        <ele>53</ele>
        <time>2012-09-02T15:27:19Z</time>
      </trkpt>
      <trkpt lat="44.75127" lon="-0.37102">
        <ele>53</ele>
        <time>2012-09-02T15:27:22Z</time>
      </trkpt>
      <trkpt lat="44.7513" lon="-0.37088">
        <ele>54</ele>
        <time>2012-09-02T15:27:25Z</time>
      </trkpt>
      <trkpt lat="44.75132" lon="-0.37071">
        <ele>54</ele>
        <time>2012-09-02T15:27:28Z</time>
      </trkpt>
      <trkpt lat="44.75134" lon="-0.37053">
        <ele>52</ele>
        <time>2012-09-02T15:27:31Z</time>
      </trkpt>
      <trkpt lat="44.75139" lon="-0.37036">
        <ele>50</ele>
        <time>2012-09-02T15:27:34Z</time>
      </trkpt>
      <trkpt lat="44.75144" lon="-0.37024">
        <ele>50</ele>
        <time>2012-09-02T15:27:36Z</time>
      </trkpt>
      <trkpt lat="44.7515" lon="-0.37012">
        <ele>50</ele>
        <time>2012-09-02T15:27:38Z</time>
      </trkpt>
      <trkpt lat="44.75158" lon="-0.37003">
        <ele>50</ele>
        <time>2012-09-02T15:27:40Z</time>
      </trkpt>
      <trkpt lat="44.75166" lon="-0.36994">
        <ele>49</ele>
        <time>2012-09-02T15:27:42Z</time>
      </trkpt>
      <trkpt lat="44.75174" lon="-0.36984">
        <ele>49</ele>
        <time>2012-09-02T15:27:45Z</time>
      </trkpt>
      <trkpt lat="44.75184" lon="-0.36973">
        <ele>49</ele>
        <time>2012-09-02T15:27:48Z</time>
      </trkpt>
      <trkpt lat="44.75194" lon="-0.36962">
        <ele>49</ele>
        <time>2012-09-02T15:27:51Z</time>
      </trkpt>
      <trkpt lat="44.75202" lon="-0.3695">
        <ele>49</ele>
        <time>2012-09-02T15:27:54Z</time>
      </trkpt>
      <trkpt lat="44.75212" lon="-0.36937">
        <ele>49</ele>
        <time>2012-09-02T15:27:57Z</time>
      </trkpt>
      <trkpt lat="44.75219" lon="-0.3692">
        <ele>49</ele>
        <time>2012-09-02T15:28:00Z</time>
      </trkpt>
      <trkpt lat="44.75223" lon="-0.36907">
        <ele>48</ele>
        <time>2012-09-02T15:28:02Z</time>
      </trkpt>
      <trkpt lat="44.75227" lon="-0.36894">
        <ele>48</ele>
        <time>2012-09-02T15:28:04Z</time>
      </trkpt>
      <trkpt lat="44.7523" lon="-0.36879">
        <ele>48</ele>
        <time>2012-09-02T15:28:06Z</time>
      </trkpt>
      <trkpt lat="44.75231" lon="-0.36863">
        <ele>48</ele>
        <time>2012-09-02T15:28:08Z</time>
      </trkpt>
      <trkpt lat="44.75231" lon="-0.36846">
        <ele>47</ele>
        <time>2012-09-02T15:28:10Z</time>
      </trkpt>
      <trkpt lat="44.75229" lon="-0.36826">
        <ele>46</ele>
        <time>2012-09-02T15:28:12Z</time>
      </trkpt>
      <trkpt lat="44.75225" lon="-0.36809">
        <ele>45</ele>
        <time>2012-09-02T15:28:14Z</time>
      </trkpt>
      <trkpt lat="44.75221" lon="-0.36791">
        <ele>44</ele>
        <time>2012-09-02T15:28:16Z</time>
      </trkpt>
      <trkpt lat="44.75212" lon="-0.36773">
        <ele>43</ele>
        <time>2012-09-02T15:28:18Z</time>
      </trkpt>
      <trkpt lat="44.75203" lon="-0.36757">
        <ele>43</ele>
        <time>2012-09-02T15:28:20Z</time>
      </trkpt>
      <trkpt lat="44.7519" lon="-0.36742">
        <ele>43</ele>
        <time>2012-09-02T15:28:22Z</time>
      </trkpt>
      <trkpt lat="44.75178" lon="-0.36727">
        <ele>43</ele>
        <time>2012-09-02T15:28:24Z</time>
      </trkpt>
      <trkpt lat="44.75166" lon="-0.36712">
        <ele>43</ele>
        <time>2012-09-02T15:28:26Z</time>
      </trkpt>
      <trkpt lat="44.75155" lon="-0.36699">
        <ele>43</ele>
        <time>2012-09-02T15:28:28Z</time>
      </trkpt>
      <trkpt lat="44.75144" lon="-0.36685">
        <ele>44</ele>
        <time>2012-09-02T15:28:30Z</time>
      </trkpt>
      <trkpt lat="44.75135" lon="-0.36675">
        <ele>44</ele>
        <time>2012-09-02T15:28:32Z</time>
      </trkpt>
      <trkpt lat="44.75126" lon="-0.36665">
        <ele>44</ele>
        <time>2012-09-02T15:28:34Z</time>
      </trkpt>
      <trkpt lat="44.75117" lon="-0.36655">
        <ele>44</ele>
        <time>2012-09-02T15:28:37Z</time>
      </trkpt>
      <trkpt lat="44.75109" lon="-0.36646">
        <ele>45</ele>
        <time>2012-09-02T15:28:41Z</time>
      </trkpt>
      <trkpt lat="44.75102" lon="-0.36636">
        <ele>45</ele>
        <time>2012-09-02T15:28:46Z</time>
      </trkpt>
      <trkpt lat="44.75104" lon="-0.36623">
        <ele>45</ele>
        <time>2012-09-02T15:28:49Z</time>
      </trkpt>
      <trkpt lat="44.75108" lon="-0.36609">
        <ele>45</ele>
        <time>2012-09-02T15:28:52Z</time>
      </trkpt>
      <trkpt lat="44.75112" lon="-0.36594">
        <ele>45</ele>
        <time>2012-09-02T15:28:55Z</time>
      </trkpt>
      <trkpt lat="44.75116" lon="-0.36579">
        <ele>45</ele>
        <time>2012-09-02T15:28:58Z</time>
      </trkpt>
      <trkpt lat="44.75119" lon="-0.36563">
        <ele>45</ele>
        <time>2012-09-02T15:29:01Z</time>
      </trkpt>
      <trkpt lat="44.75125" lon="-0.36547">
        <ele>45</ele>
        <time>2012-09-02T15:29:04Z</time>
      </trkpt>
      <trkpt lat="44.75129" lon="-0.3653">
        <ele>45</ele>
        <time>2012-09-02T15:29:07Z</time>
      </trkpt>
      <trkpt lat="44.75134" lon="-0.36512">
        <ele>45</ele>
        <time>2012-09-02T15:29:10Z</time>
      </trkpt>
      <trkpt lat="44.75138" lon="-0.36494">
        <ele>45</ele>
        <time>2012-09-02T15:29:13Z</time>
      </trkpt>
      <trkpt lat="44.75143" lon="-0.36477">
        <ele>45</ele>
        <time>2012-09-02T15:29:16Z</time>
      </trkpt>
      <trkpt lat="44.75146" lon="-0.36464">
        <ele>45</ele>
        <time>2012-09-02T15:29:18Z</time>
      </trkpt>
      <trkpt lat="44.7515" lon="-0.36451">
        <ele>45</ele>
        <time>2012-09-02T15:29:20Z</time>
      </trkpt>
      <trkpt lat="44.75153" lon="-0.36438">
        <ele>45</ele>
        <time>2012-09-02T15:29:22Z</time>
      </trkpt>
      <trkpt lat="44.75157" lon="-0.3642">
        <ele>46</ele>
        <time>2012-09-02T15:29:25Z</time>
      </trkpt>
      <trkpt lat="44.75163" lon="-0.36402">
        <ele>46</ele>
        <time>2012-09-02T15:29:28Z</time>
      </trkpt>
      <trkpt lat="44.75167" lon="-0.36387">
        <ele>46</ele>
        <time>2012-09-02T15:29:31Z</time>
      </trkpt>
      <trkpt lat="44.75171" lon="-0.36373">
        <ele>46</ele>
        <time>2012-09-02T15:29:34Z</time>
      </trkpt>
      <trkpt lat="44.75175" lon="-0.36358">
        <ele>46</ele>
        <time>2012-09-02T15:29:38Z</time>
      </trkpt>
      <trkpt lat="44.75181" lon="-0.36345">
        <ele>46</ele>
        <time>2012-09-02T15:29:42Z</time>
      </trkpt>
      <trkpt lat="44.75187" lon="-0.36332">
        <ele>46</ele>
        <time>2012-09-02T15:29:46Z</time>
      </trkpt>
      <trkpt lat="44.75195" lon="-0.36322">
        <ele>46</ele>
        <time>2012-09-02T15:29:50Z</time>
      </trkpt>
      <trkpt lat="44.75203" lon="-0.36311">
        <ele>46</ele>
        <time>2012-09-02T15:29:55Z</time>
      </trkpt>
      <trkpt lat="44.75212" lon="-0.36307">
        <ele>46</ele>
        <time>2012-09-02T15:30:01Z</time>
      </trkpt>
      <trkpt lat="44.75221" lon="-0.36308">
        <ele>45</ele>
        <time>2012-09-02T15:32:05Z</time>
      </trkpt>
      <trkpt lat="44.75229" lon="-0.36299">
        <ele>45</ele>
        <time>2012-09-02T15:32:22Z</time>
      </trkpt>
      <trkpt lat="44.75235" lon="-0.36287">
        <ele>45</ele>
        <time>2012-09-02T15:32:34Z</time>
      </trkpt>
      <trkpt lat="44.75246" lon="-0.36284">
        <ele>45</ele>
        <time>2012-09-02T15:32:40Z</time>
      </trkpt>
      <trkpt lat="44.75255" lon="-0.36279">
        <ele>45</ele>
        <time>2012-09-02T15:32:45Z</time>
      </trkpt>
      <trkpt lat="44.75267" lon="-0.36278">
        <ele>45</ele>
        <time>2012-09-02T15:32:49Z</time>
      </trkpt>
      <trkpt lat="44.75278" lon="-0.36275">
        <ele>45</ele>
        <time>2012-09-02T15:32:53Z</time>
      </trkpt>
      <trkpt lat="44.75287" lon="-0.36271">
        <ele>44</ele>
        <time>2012-09-02T15:32:56Z</time>
      </trkpt>
      <trkpt lat="44.75297" lon="-0.36268">
        <ele>44</ele>
        <time>2012-09-02T15:32:59Z</time>
      </trkpt>
      <trkpt lat="44.75307" lon="-0.36265">
        <ele>44</ele>
        <time>2012-09-02T15:33:02Z</time>
      </trkpt>
      <trkpt lat="44.75317" lon="-0.3626">
        <ele>44</ele>
        <time>2012-09-02T15:33:06Z</time>
      </trkpt>
      <trkpt lat="44.75327" lon="-0.3625">
        <ele>45</ele>
        <time>2012-09-02T15:33:10Z</time>
      </trkpt>
      <trkpt lat="44.75335" lon="-0.36242">
        <ele>45</ele>
        <time>2012-09-02T15:33:13Z</time>
      </trkpt>
      <trkpt lat="44.75343" lon="-0.36229">
        <ele>45</ele>
        <time>2012-09-02T15:33:17Z</time>
      </trkpt>
      <trkpt lat="44.75351" lon="-0.36216">
        <ele>45</ele>
        <time>2012-09-02T15:33:21Z</time>
      </trkpt>
      <trkpt lat="44.75358" lon="-0.36206">
        <ele>45</ele>
        <time>2012-09-02T15:33:24Z</time>
      </trkpt>
      <trkpt lat="44.75364" lon="-0.36195">
        <ele>45</ele>
        <time>2012-09-02T15:33:27Z</time>
      </trkpt>
      <trkpt lat="44.75371" lon="-0.36184">
        <ele>45</ele>
        <time>2012-09-02T15:33:30Z</time>
      </trkpt>
      <trkpt lat="44.75379" lon="-0.36172">
        <ele>45</ele>
        <time>2012-09-02T15:33:34Z</time>
      </trkpt>
      <trkpt lat="44.75386" lon="-0.36161">
        <ele>45</ele>
        <time>2012-09-02T15:33:37Z</time>
      </trkpt>
      <trkpt lat="44.75392" lon="-0.36149">
        <ele>45</ele>
        <time>2012-09-02T15:33:40Z</time>
      </trkpt>
      <trkpt lat="44.75399" lon="-0.36138">
        <ele>45</ele>
        <time>2012-09-02T15:33:43Z</time>
      </trkpt>
      <trkpt lat="44.75405" lon="-0.36128">
        <ele>45</ele>
        <time>2012-09-02T15:33:46Z</time>
      </trkpt>
      <trkpt lat="44.75412" lon="-0.36117">
        <ele>45</ele>
        <time>2012-09-02T15:33:49Z</time>
      </trkpt>
      <trkpt lat="44.75418" lon="-0.36107">
        <ele>45</ele>
        <time>2012-09-02T15:33:52Z</time>
      </trkpt>
      <trkpt lat="44.75425" lon="-0.36095">
        <ele>45</ele>
        <time>2012-09-02T15:33:55Z</time>
      </trkpt>
      <trkpt lat="44.75431" lon="-0.36084">
        <ele>45</ele>
        <time>2012-09-02T15:33:58Z</time>
      </trkpt>
      <trkpt lat="44.75434" lon="-0.3607">
        <ele>45</ele>
        <time>2012-09-02T15:34:01Z</time>
      </trkpt>
      <trkpt lat="44.75438" lon="-0.36054">
        <ele>45</ele>
        <time>2012-09-02T15:34:04Z</time>
      </trkpt>
      <trkpt lat="44.75441" lon="-0.3604">
        <ele>45</ele>
        <time>2012-09-02T15:34:07Z</time>
      </trkpt>
      <trkpt lat="44.75445" lon="-0.36025">
        <ele>45</ele>
        <time>2012-09-02T15:34:10Z</time>
      </trkpt>
      <trkpt lat="44.7545" lon="-0.3601">
        <ele>45</ele>
        <time>2012-09-02T15:34:13Z</time>
      </trkpt>
      <trkpt lat="44.75453" lon="-0.35995">
        <ele>45</ele>
        <time>2012-09-02T15:34:16Z</time>
      </trkpt>
      <trkpt lat="44.75457" lon="-0.35978">
        <ele>45</ele>
        <time>2012-09-02T15:34:19Z</time>
      </trkpt>
      <trkpt lat="44.75462" lon="-0.35962">
        <ele>45</ele>
        <time>2012-09-02T15:34:22Z</time>
      </trkpt>
      <trkpt lat="44.75466" lon="-0.35946">
        <ele>45</ele>
        <time>2012-09-02T15:34:25Z</time>
      </trkpt>
      <trkpt lat="44.75471" lon="-0.35931">
        <ele>46</ele>
        <time>2012-09-02T15:34:28Z</time>
      </trkpt>
      <trkpt lat="44.75477" lon="-0.35916">
        <ele>46</ele>
        <time>2012-09-02T15:34:31Z</time>
      </trkpt>
      <trkpt lat="44.7548" lon="-0.35902">
        <ele>46</ele>
        <time>2012-09-02T15:34:34Z</time>
      </trkpt>
      <trkpt lat="44.75484" lon="-0.35887">
        <ele>46</ele>
        <time>2012-09-02T15:34:37Z</time>
      </trkpt>
      <trkpt lat="44.75488" lon="-0.35871">
        <ele>46</ele>
        <time>2012-09-02T15:34:40Z</time>
      </trkpt>
      <trkpt lat="44.75491" lon="-0.35855">
        <ele>46</ele>
        <time>2012-09-02T15:34:43Z</time>
      </trkpt>
      <trkpt lat="44.75494" lon="-0.3584">
        <ele>46</ele>
        <time>2012-09-02T15:34:46Z</time>
      </trkpt>
      <trkpt lat="44.75499" lon="-0.35824">
        <ele>46</ele>
        <time>2012-09-02T15:34:50Z</time>
      </trkpt>
      <trkpt lat="44.75502" lon="-0.35809">
        <ele>47</ele>
        <time>2012-09-02T15:34:53Z</time>
      </trkpt>
      <trkpt lat="44.75505" lon="-0.35796">
        <ele>47</ele>
        <time>2012-09-02T15:34:56Z</time>
      </trkpt>
      <trkpt lat="44.75509" lon="-0.35782">
        <ele>48</ele>
        <time>2012-09-02T15:34:59Z</time>
      </trkpt>
      <trkpt lat="44.75512" lon="-0.35767">
        <ele>48</ele>
        <time>2012-09-02T15:35:02Z</time>
      </trkpt>
      <trkpt lat="44.75516" lon="-0.35753">
        <ele>48</ele>
        <time>2012-09-02T15:35:06Z</time>
      </trkpt>
      <trkpt lat="44.7552" lon="-0.35741">
        <ele>49</ele>
        <time>2012-09-02T15:35:13Z</time>
      </trkpt>
      <trkpt lat="44.75523" lon="-0.35728">
        <ele>49</ele>
        <time>2012-09-02T15:35:34Z</time>
      </trkpt>
      <trkpt lat="44.75529" lon="-0.35718">
        <ele>49</ele>
        <time>2012-09-02T15:35:42Z</time>
      </trkpt>
      <trkpt lat="44.75536" lon="-0.35709">
        <ele>49</ele>
        <time>2012-09-02T15:36:06Z</time>
      </trkpt>
      <trkpt lat="44.75544" lon="-0.35701">
        <ele>48</ele>
        <time>2012-09-02T15:37:10Z</time>
      </trkpt>
      <trkpt lat="44.75551" lon="-0.35687">
        <ele>48</ele>
        <time>2012-09-02T15:37:17Z</time>
      </trkpt>
      <trkpt lat="44.75555" lon="-0.35674">
        <ele>49</ele>
        <time>2012-09-02T15:37:21Z</time>
      </trkpt>
      <trkpt lat="44.75558" lon="-0.3566">
        <ele>49</ele>
        <time>2012-09-02T15:37:25Z</time>
      </trkpt>
      <trkpt lat="44.75557" lon="-0.35645">
        <ele>49</ele>
        <time>2012-09-02T15:37:29Z</time>
      </trkpt>
      <trkpt lat="44.75556" lon="-0.35632">
        <ele>50</ele>
        <time>2012-09-02T15:37:32Z</time>
      </trkpt>
      <trkpt lat="44.75558" lon="-0.35617">
        <ele>50</ele>
        <time>2012-09-02T15:37:36Z</time>
      </trkpt>
      <trkpt lat="44.75558" lon="-0.35604">
        <ele>51</ele>
        <time>2012-09-02T15:37:40Z</time>
      </trkpt>
      <trkpt lat="44.7556" lon="-0.35589">
        <ele>51</ele>
        <time>2012-09-02T15:37:45Z</time>
      </trkpt>
      <trkpt lat="44.75559" lon="-0.35575">
        <ele>51</ele>
        <time>2012-09-02T15:37:49Z</time>
      </trkpt>
      <trkpt lat="44.75563" lon="-0.3556">
        <ele>51</ele>
        <time>2012-09-02T15:37:53Z</time>
      </trkpt>
      <trkpt lat="44.75564" lon="-0.35545">
        <ele>51</ele>
        <time>2012-09-02T15:37:56Z</time>
      </trkpt>
      <trkpt lat="44.75562" lon="-0.35532">
        <ele>51</ele>
        <time>2012-09-02T15:38:00Z</time>
      </trkpt>
      <trkpt lat="44.75564" lon="-0.35515">
        <ele>51</ele>
        <time>2012-09-02T15:38:05Z</time>
      </trkpt>
      <trkpt lat="44.75568" lon="-0.355">
        <ele>51</ele>
        <time>2012-09-02T15:38:09Z</time>
      </trkpt>
      <trkpt lat="44.75573" lon="-0.35486">
        <ele>51</ele>
        <time>2012-09-02T15:38:13Z</time>
      </trkpt>
      <trkpt lat="44.75581" lon="-0.35472">
        <ele>51</ele>
        <time>2012-09-02T15:38:17Z</time>
      </trkpt>
      <trkpt lat="44.75592" lon="-0.35465">
        <ele>51</ele>
        <time>2012-09-02T15:38:20Z</time>
      </trkpt>
      <trkpt lat="44.75601" lon="-0.35457">
        <ele>51</ele>
        <time>2012-09-02T15:38:23Z</time>
      </trkpt>
      <trkpt lat="44.75609" lon="-0.35448">
        <ele>51</ele>
        <time>2012-09-02T15:38:27Z</time>
      </trkpt>
      <trkpt lat="44.75621" lon="-0.35443">
        <ele>51</ele>
        <time>2012-09-02T15:38:31Z</time>
      </trkpt>
      <trkpt lat="44.75631" lon="-0.35439">
        <ele>51</ele>
        <time>2012-09-02T15:38:34Z</time>
      </trkpt>
      <trkpt lat="44.75644" lon="-0.35435">
        <ele>50</ele>
        <time>2012-09-02T15:38:37Z</time>
      </trkpt>
      <trkpt lat="44.75655" lon="-0.35429">
        <ele>51</ele>
        <time>2012-09-02T15:38:41Z</time>
      </trkpt>
      <trkpt lat="44.75664" lon="-0.35422">
        <ele>51</ele>
        <time>2012-09-02T15:38:45Z</time>
      </trkpt>
      <trkpt lat="44.75674" lon="-0.35409">
        <ele>51</ele>
        <time>2012-09-02T15:38:49Z</time>
      </trkpt>
      <trkpt lat="44.75681" lon="-0.35398">
        <ele>51</ele>
        <time>2012-09-02T15:38:52Z</time>
      </trkpt>
      <trkpt lat="44.7569" lon="-0.35389">
        <ele>52</ele>
        <time>2012-09-02T15:38:56Z</time>
      </trkpt>
      <trkpt lat="44.75697" lon="-0.35378">
        <ele>52</ele>
        <time>2012-09-02T15:39:00Z</time>
      </trkpt>
      <trkpt lat="44.75704" lon="-0.35366">
        <ele>53</ele>
        <time>2012-09-02T15:39:04Z</time>
      </trkpt>
      <trkpt lat="44.75712" lon="-0.35353">
        <ele>54</ele>
        <time>2012-09-02T15:39:08Z</time>
      </trkpt>
      <trkpt lat="44.7572" lon="-0.35344">
        <ele>54</ele>
        <time>2012-09-02T15:39:11Z</time>
      </trkpt>
      <trkpt lat="44.75728" lon="-0.35338">
        <ele>53</ele>
        <time>2012-09-02T15:39:14Z</time>
      </trkpt>
      <trkpt lat="44.75738" lon="-0.35333">
        <ele>53</ele>
        <time>2012-09-02T15:39:18Z</time>
      </trkpt>
      <trkpt lat="44.75748" lon="-0.35325">
        <ele>53</ele>
        <time>2012-09-02T15:39:22Z</time>
      </trkpt>
      <trkpt lat="44.75757" lon="-0.35319">
        <ele>53</ele>
        <time>2012-09-02T15:39:25Z</time>
      </trkpt>
      <trkpt lat="44.75769" lon="-0.35313">
        <ele>52</ele>
        <time>2012-09-02T15:39:28Z</time>
      </trkpt>
      <trkpt lat="44.75779" lon="-0.35303">
        <ele>52</ele>
        <time>2012-09-02T15:39:32Z</time>
      </trkpt>
      <trkpt lat="44.75786" lon="-0.35294">
        <ele>52</ele>
        <time>2012-09-02T15:39:35Z</time>
      </trkpt>
      <trkpt lat="44.75792" lon="-0.35282">
        <ele>52</ele>
        <time>2012-09-02T15:39:39Z</time>
      </trkpt>
      <trkpt lat="44.75799" lon="-0.35271">
        <ele>52</ele>
        <time>2012-09-02T15:39:43Z</time>
      </trkpt>
      <trkpt lat="44.75806" lon="-0.3526">
        <ele>52</ele>
        <time>2012-09-02T15:39:46Z</time>
      </trkpt>
      <trkpt lat="44.75809" lon="-0.35246">
        <ele>52</ele>
        <time>2012-09-02T15:39:51Z</time>
      </trkpt>
      <trkpt lat="44.75811" lon="-0.3524">
        <ele>52</ele>
        <time>2012-09-02T15:44:36Z</time>
      </trkpt>
      <trkpt lat="44.75815" lon="-0.35227">
        <ele>52</ele>
        <time>2012-09-02T15:46:15Z</time>
      </trkpt>
      <trkpt lat="44.7582" lon="-0.35214">
        <ele>52</ele>
        <time>2012-09-02T15:46:18Z</time>
      </trkpt>
      <trkpt lat="44.75827" lon="-0.35204">
        <ele>51</ele>
        <time>2012-09-02T15:46:21Z</time>
      </trkpt>
      <trkpt lat="44.75833" lon="-0.35194">
        <ele>51</ele>
        <time>2012-09-02T15:46:24Z</time>
      </trkpt>
      <trkpt lat="44.7584" lon="-0.35181">
        <ele>52</ele>
        <time>2012-09-02T15:46:28Z</time>
      </trkpt>
      <trkpt lat="44.75845" lon="-0.3517">
        <ele>52</ele>
        <time>2012-09-02T15:46:32Z</time>
      </trkpt>
      <trkpt lat="44.7585" lon="-0.35158">
        <ele>52</ele>
        <time>2012-09-02T15:46:38Z</time>
      </trkpt>
      <trkpt lat="44.75849" lon="-0.35155">
        <ele>52</ele>
        <time>2012-09-02T15:46:45Z</time>
      </trkpt>
      <trkpt lat="44.75846" lon="-0.35146">
        <ele>52</ele>
        <time>2012-09-02T15:47:14Z</time>
      </trkpt>
      <trkpt lat="44.75845" lon="-0.3514">
        <ele>52</ele>
        <time>2012-09-02T15:48:14Z</time>
      </trkpt>
      <trkpt lat="44.75845" lon="-0.35127">
        <ele>53</ele>
        <time>2012-09-02T15:48:37Z</time>
      </trkpt>
      <trkpt lat="44.75838" lon="-0.35116">
        <ele>53</ele>
        <time>2012-09-02T15:48:45Z</time>
      </trkpt>
      <trkpt lat="44.75832" lon="-0.35105">
        <ele>53</ele>
        <time>2012-09-02T15:48:51Z</time>
      </trkpt>
      <trkpt lat="44.75825" lon="-0.35096">
        <ele>55</ele>
        <time>2012-09-02T15:48:56Z</time>
      </trkpt>
      <trkpt lat="44.75818" lon="-0.35086">
        <ele>56</ele>
        <time>2012-09-02T15:49:01Z</time>
      </trkpt>
      <trkpt lat="44.75814" lon="-0.35073">
        <ele>57</ele>
        <time>2012-09-02T15:49:08Z</time>
      </trkpt>
      <trkpt lat="44.75813" lon="-0.35059">
        <ele>57</ele>
        <time>2012-09-02T15:49:17Z</time>
      </trkpt>
      <trkpt lat="44.75812" lon="-0.35045">
        <ele>57</ele>
        <time>2012-09-02T15:49:25Z</time>
      </trkpt>
      <trkpt lat="44.75811" lon="-0.35032">
        <ele>57</ele>
        <time>2012-09-02T15:49:32Z</time>
      </trkpt>
      <trkpt lat="44.75811" lon="-0.35015">
        <ele>58</ele>
        <time>2012-09-02T15:49:37Z</time>
      </trkpt>
      <trkpt lat="44.7581" lon="-0.35001">
        <ele>57</ele>
        <time>2012-09-02T15:49:41Z</time>
      </trkpt>
      <trkpt lat="44.75811" lon="-0.34985">
        <ele>57</ele>
        <time>2012-09-02T15:49:45Z</time>
      </trkpt>
      <trkpt lat="44.75813" lon="-0.34969">
        <ele>56</ele>
        <time>2012-09-02T15:49:48Z</time>
      </trkpt>
      <trkpt lat="44.75816" lon="-0.34954">
        <ele>56</ele>
        <time>2012-09-02T15:49:51Z</time>
      </trkpt>
      <trkpt lat="44.75817" lon="-0.3494">
        <ele>57</ele>
        <time>2012-09-02T15:49:55Z</time>
      </trkpt>
      <trkpt lat="44.75818" lon="-0.34925">
        <ele>57</ele>
        <time>2012-09-02T15:49:59Z</time>
      </trkpt>
      <trkpt lat="44.75824" lon="-0.34914">
        <ele>57</ele>
        <time>2012-09-02T15:50:03Z</time>
      </trkpt>
      <trkpt lat="44.75833" lon="-0.34902">
        <ele>57</ele>
        <time>2012-09-02T15:50:07Z</time>
      </trkpt>
      <trkpt lat="44.75841" lon="-0.34891">
        <ele>57</ele>
        <time>2012-09-02T15:50:10Z</time>
      </trkpt>
      <trkpt lat="44.7585" lon="-0.34881">
        <ele>57</ele>
        <time>2012-09-02T15:50:13Z</time>
      </trkpt>
      <trkpt lat="44.75859" lon="-0.34871">
        <ele>57</ele>
        <time>2012-09-02T15:50:16Z</time>
      </trkpt>
      <trkpt lat="44.75866" lon="-0.34862">
        <ele>57</ele>
        <time>2012-09-02T15:50:19Z</time>
      </trkpt>
      <trkpt lat="44.75872" lon="-0.34849">
        <ele>57</ele>
        <time>2012-09-02T15:50:22Z</time>
      </trkpt>
      <trkpt lat="44.75875" lon="-0.34835">
        <ele>57</ele>
        <time>2012-09-02T15:50:25Z</time>
      </trkpt>
      <trkpt lat="44.75877" lon="-0.34821">
        <ele>56</ele>
        <time>2012-09-02T15:50:28Z</time>
      </trkpt>
      <trkpt lat="44.75874" lon="-0.34809">
        <ele>57</ele>
        <time>2012-09-02T15:50:31Z</time>
      </trkpt>
      <trkpt lat="44.75869" lon="-0.34795">
        <ele>57</ele>
        <time>2012-09-02T15:50:34Z</time>
      </trkpt>
      <trkpt lat="44.75863" lon="-0.34779">
        <ele>58</ele>
        <time>2012-09-02T15:50:37Z</time>
      </trkpt>
      <trkpt lat="44.75856" lon="-0.34768">
        <ele>58</ele>
        <time>2012-09-02T15:50:40Z</time>
      </trkpt>
      <trkpt lat="44.75848" lon="-0.34754">
        <ele>59</ele>
        <time>2012-09-02T15:50:43Z</time>
      </trkpt>
      <trkpt lat="44.75835" lon="-0.34725">
        <ele>59</ele>
        <time>2012-09-02T15:50:49Z</time>
      </trkpt>
      <trkpt lat="44.75829" lon="-0.34711">
        <ele>59</ele>
        <time>2012-09-02T15:50:51Z</time>
      </trkpt>
      <trkpt lat="44.75822" lon="-0.347">
        <ele>59</ele>
        <time>2012-09-02T15:50:54Z</time>
      </trkpt>
      <trkpt lat="44.7582" lon="-0.34686">
        <ele>60</ele>
        <time>2012-09-02T15:50:57Z</time>
      </trkpt>
      <trkpt lat="44.75816" lon="-0.34671">
        <ele>60</ele>
        <time>2012-09-02T15:51:00Z</time>
      </trkpt>
      <trkpt lat="44.7581" lon="-0.34657">
        <ele>60</ele>
        <time>2012-09-02T15:51:04Z</time>
      </trkpt>
      <trkpt lat="44.75804" lon="-0.34644">
        <ele>60</ele>
        <time>2012-09-02T15:51:07Z</time>
      </trkpt>
      <trkpt lat="44.75797" lon="-0.34632">
        <ele>60</ele>
        <time>2012-09-02T15:51:11Z</time>
      </trkpt>
      <trkpt lat="44.75788" lon="-0.34611">
        <ele>61</ele>
        <time>2012-09-02T15:51:15Z</time>
      </trkpt>
      <trkpt lat="44.75792" lon="-0.346">
        <ele>61</ele>
        <time>2012-09-02T15:53:49Z</time>
      </trkpt>
      <trkpt lat="44.75795" lon="-0.34584">
        <ele>60</ele>
        <time>2012-09-02T15:54:20Z</time>
      </trkpt>
      <trkpt lat="44.75799" lon="-0.34576">
        <ele>60</ele>
        <time>2012-09-02T15:54:27Z</time>
      </trkpt>
      <trkpt lat="44.75794" lon="-0.34565">
        <ele>61</ele>
        <time>2012-09-02T15:54:32Z</time>
      </trkpt>
      <trkpt lat="44.75788" lon="-0.34551">
        <ele>61</ele>
        <time>2012-09-02T15:54:38Z</time>
      </trkpt>
      <trkpt lat="44.75784" lon="-0.34538">
        <ele>61</ele>
        <time>2012-09-02T15:54:42Z</time>
      </trkpt>
      <trkpt lat="44.75781" lon="-0.34525">
        <ele>61</ele>
        <time>2012-09-02T15:54:46Z</time>
      </trkpt>
      <trkpt lat="44.75779" lon="-0.34512">
        <ele>62</ele>
        <time>2012-09-02T15:54:50Z</time>
      </trkpt>
      <trkpt lat="44.75779" lon="-0.34498">
        <ele>62</ele>
        <time>2012-09-02T15:54:55Z</time>
      </trkpt>
      <trkpt lat="44.75779" lon="-0.34483">
        <ele>62</ele>
        <time>2012-09-02T15:55:02Z</time>
      </trkpt>
      <trkpt lat="44.7578" lon="-0.34468">
        <ele>62</ele>
        <time>2012-09-02T15:55:08Z</time>
      </trkpt>
      <trkpt lat="44.75783" lon="-0.34456">
        <ele>63</ele>
        <time>2012-09-02T15:55:14Z</time>
      </trkpt>
      <trkpt lat="44.75782" lon="-0.34439">
        <ele>63</ele>
        <time>2012-09-02T15:55:21Z</time>
      </trkpt>
      <trkpt lat="44.75783" lon="-0.34424">
        <ele>63</ele>
        <time>2012-09-02T15:55:25Z</time>
      </trkpt>
      <trkpt lat="44.75784" lon="-0.3441">
        <ele>64</ele>
        <time>2012-09-02T15:55:29Z</time>
      </trkpt>
      <trkpt lat="44.75785" lon="-0.34394">
        <ele>64</ele>
        <time>2012-09-02T15:55:34Z</time>
      </trkpt>
      <trkpt lat="44.75788" lon="-0.3438">
        <ele>65</ele>
        <time>2012-09-02T15:55:37Z</time>
      </trkpt>
      <trkpt lat="44.75788" lon="-0.34367">
        <ele>65</ele>
        <time>2012-09-02T15:55:41Z</time>
      </trkpt>
      <trkpt lat="44.75789" lon="-0.34352">
        <ele>66</ele>
        <time>2012-09-02T15:55:45Z</time>
      </trkpt>
      <trkpt lat="44.75791" lon="-0.34335">
        <ele>67</ele>
        <time>2012-09-02T15:55:50Z</time>
      </trkpt>
      <trkpt lat="44.75793" lon="-0.34319">
        <ele>67</ele>
        <time>2012-09-02T15:55:54Z</time>
      </trkpt>
      <trkpt lat="44.75799" lon="-0.34307">
        <ele>68</ele>
        <time>2012-09-02T15:55:58Z</time>
      </trkpt>
      <trkpt lat="44.75801" lon="-0.34293">
        <ele>67</ele>
        <time>2012-09-02T15:56:02Z</time>
      </trkpt>
      <trkpt lat="44.758" lon="-0.3428">
        <ele>67</ele>
        <time>2012-09-02T15:56:05Z</time>
      </trkpt>
      <trkpt lat="44.75797" lon="-0.34267">
        <ele>66</ele>
        <time>2012-09-02T15:56:08Z</time>
      </trkpt>
      <trkpt lat="44.75794" lon="-0.34252">
        <ele>65</ele>
        <time>2012-09-02T15:56:13Z</time>
      </trkpt>
      <trkpt lat="44.75795" lon="-0.34238">
        <ele>66</ele>
        <time>2012-09-02T15:56:17Z</time>
      </trkpt>
      <trkpt lat="44.75792" lon="-0.34225">
        <ele>65</ele>
        <time>2012-09-02T15:56:22Z</time>
      </trkpt>
      <trkpt lat="44.75795" lon="-0.34211">
        <ele>66</ele>
        <time>2012-09-02T15:56:27Z</time>
      </trkpt>
      <trkpt lat="44.75795" lon="-0.34191">
        <ele>66</ele>
        <time>2012-09-02T15:56:32Z</time>
      </trkpt>
      <trkpt lat="44.75794" lon="-0.34176">
        <ele>67</ele>
        <time>2012-09-02T15:56:35Z</time>
      </trkpt>
      <trkpt lat="44.75792" lon="-0.3416">
        <ele>67</ele>
        <time>2012-09-02T15:56:38Z</time>
      </trkpt>
      <trkpt lat="44.75789" lon="-0.34144">
        <ele>67</ele>
        <time>2012-09-02T15:56:42Z</time>
      </trkpt>
      <trkpt lat="44.75783" lon="-0.34133">
        <ele>67</ele>
        <time>2012-09-02T15:56:46Z</time>
      </trkpt>
      <trkpt lat="44.75776" lon="-0.34123">
        <ele>67</ele>
        <time>2012-09-02T15:56:49Z</time>
      </trkpt>
      <trkpt lat="44.75775" lon="-0.34109">
        <ele>67</ele>
        <time>2012-09-02T15:56:55Z</time>
      </trkpt>
      <trkpt lat="44.75773" lon="-0.34096">
        <ele>68</ele>
        <time>2012-09-02T15:57:03Z</time>
      </trkpt>
      <trkpt lat="44.7577" lon="-0.3408">
        <ele>68</ele>
        <time>2012-09-02T15:57:08Z</time>
      </trkpt>
      <trkpt lat="44.75771" lon="-0.34066">
        <ele>69</ele>
        <time>2012-09-02T15:57:12Z</time>
      </trkpt>
      <trkpt lat="44.75772" lon="-0.34052">
        <ele>69</ele>
        <time>2012-09-02T15:57:16Z</time>
      </trkpt>
      <trkpt lat="44.75773" lon="-0.34038">
        <ele>70</ele>
        <time>2012-09-02T15:57:21Z</time>
      </trkpt>
      <trkpt lat="44.7577" lon="-0.34026">
        <ele>70</ele>
        <time>2012-09-02T15:57:26Z</time>
      </trkpt>
      <trkpt lat="44.75768" lon="-0.34012">
        <ele>70</ele>
        <time>2012-09-02T15:57:28Z</time>
      </trkpt>
      <trkpt lat="44.75764" lon="-0.33999">
        <ele>70</ele>
        <time>2012-09-02T15:57:31Z</time>
      </trkpt>
      <trkpt lat="44.75763" lon="-0.33983">
        <ele>70</ele>
        <time>2012-09-02T15:57:34Z</time>
      </trkpt>
      <trkpt lat="44.75767" lon="-0.33969">
        <ele>71</ele>
        <time>2012-09-02T15:57:38Z</time>
      </trkpt>
      <trkpt lat="44.75771" lon="-0.33956">
        <ele>71</ele>
        <time>2012-09-02T15:57:43Z</time>
      </trkpt>
      <trkpt lat="44.75772" lon="-0.33941">
        <ele>71</ele>
        <time>2012-09-02T15:57:48Z</time>
      </trkpt>
      <trkpt lat="44.75777" lon="-0.33926">
        <ele>72</ele>
        <time>2012-09-02T15:57:52Z</time>
      </trkpt>
      <trkpt lat="44.75783" lon="-0.33911">
        <ele>73</ele>
        <time>2012-09-02T15:57:56Z</time>
      </trkpt>
      <trkpt lat="44.75786" lon="-0.33899">
        <ele>74</ele>
        <time>2012-09-02T15:58:00Z</time>
      </trkpt>
      <trkpt lat="44.7579" lon="-0.33884">
        <ele>74</ele>
        <time>2012-09-02T15:58:04Z</time>
      </trkpt>
      <trkpt lat="44.75793" lon="-0.33868">
        <ele>75</ele>
        <time>2012-09-02T15:58:07Z</time>
      </trkpt>
      <trkpt lat="44.75795" lon="-0.33852">
        <ele>76</ele>
        <time>2012-09-02T15:58:11Z</time>
      </trkpt>
      <trkpt lat="44.75795" lon="-0.33838">
        <ele>76</ele>
        <time>2012-09-02T15:58:14Z</time>
      </trkpt>
      <trkpt lat="44.75798" lon="-0.33822">
        <ele>77</ele>
        <time>2012-09-02T15:58:18Z</time>
      </trkpt>
      <trkpt lat="44.75799" lon="-0.33808">
        <ele>77</ele>
        <time>2012-09-02T15:58:22Z</time>
      </trkpt>
      <trkpt lat="44.75802" lon="-0.33795">
        <ele>78</ele>
        <time>2012-09-02T15:58:28Z</time>
      </trkpt>
      <trkpt lat="44.75813" lon="-0.33792">
        <ele>79</ele>
        <time>2012-09-02T15:58:35Z</time>
      </trkpt>
      <trkpt lat="44.75822" lon="-0.33788">
        <ele>80</ele>
        <time>2012-09-02T15:58:41Z</time>
      </trkpt>
      <trkpt lat="44.75832" lon="-0.33785">
        <ele>82</ele>
        <time>2012-09-02T15:58:49Z</time>
      </trkpt>
      <trkpt lat="44.75841" lon="-0.33779">
        <ele>84</ele>
        <time>2012-09-02T15:58:58Z</time>
      </trkpt>
      <trkpt lat="44.7585" lon="-0.33774">
        <ele>86</ele>
        <time>2012-09-02T15:59:07Z</time>
      </trkpt>
      <trkpt lat="44.7586" lon="-0.33771">
        <ele>88</ele>
        <time>2012-09-02T15:59:34Z</time>
      </trkpt>
      <trkpt lat="44.75869" lon="-0.33768">
        <ele>89</ele>
        <time>2012-09-02T15:59:48Z</time>
      </trkpt>
      <trkpt lat="44.75878" lon="-0.33764">
        <ele>91</ele>
        <time>2012-09-02T15:59:59Z</time>
      </trkpt>
      <trkpt lat="44.75887" lon="-0.3376">
        <ele>92</ele>
        <time>2012-09-02T16:00:13Z</time>
      </trkpt>
      <trkpt lat="44.75897" lon="-0.33758">
        <ele>94</ele>
        <time>2012-09-02T16:00:26Z</time>
      </trkpt>
      <trkpt lat="44.75907" lon="-0.33755">
        <ele>96</ele>
        <time>2012-09-02T16:00:41Z</time>
      </trkpt>
      <trkpt lat="44.75915" lon="-0.33762">
        <ele>96</ele>
        <time>2012-09-02T16:00:55Z</time>
      </trkpt>
      <trkpt lat="44.75924" lon="-0.33767">
        <ele>97</ele>
        <time>2012-09-02T16:01:03Z</time>
      </trkpt>
      <trkpt lat="44.75934" lon="-0.33761">
        <ele>97</ele>
        <time>2012-09-02T16:01:15Z</time>
      </trkpt>
      <trkpt lat="44.7594" lon="-0.33751">
        <ele>98</ele>
        <time>2012-09-02T16:03:32Z</time>
      </trkpt>
      <trkpt lat="44.75943" lon="-0.33737">
        <ele>98</ele>
        <time>2012-09-02T16:03:38Z</time>
      </trkpt>
      <trkpt lat="44.75939" lon="-0.33723">
        <ele>98</ele>
        <time>2012-09-02T16:03:42Z</time>
      </trkpt>
      <trkpt lat="44.75937" lon="-0.33707">
        <ele>98</ele>
        <time>2012-09-02T16:03:45Z</time>
      </trkpt>
      <trkpt lat="44.75938" lon="-0.33688">
        <ele>98</ele>
        <time>2012-09-02T16:03:48Z</time>
      </trkpt>
      <trkpt lat="44.7594" lon="-0.33671">
        <ele>99</ele>
        <time>2012-09-02T16:03:51Z</time>
      </trkpt>
      <trkpt lat="44.75941" lon="-0.33656">
        <ele>99</ele>
        <time>2012-09-02T16:03:54Z</time>
      </trkpt>
      <trkpt lat="44.75943" lon="-0.33639">
        <ele>100</ele>
        <time>2012-09-02T16:03:57Z</time>
      </trkpt>
      <trkpt lat="44.75945" lon="-0.33623">
        <ele>100</ele>
        <time>2012-09-02T16:04:00Z</time>
      </trkpt>
      <trkpt lat="44.75946" lon="-0.33608">
        <ele>100</ele>
        <time>2012-09-02T16:04:03Z</time>
      </trkpt>
      <trkpt lat="44.75946" lon="-0.33591">
        <ele>100</ele>
        <time>2012-09-02T16:04:06Z</time>
      </trkpt>
      <trkpt lat="44.75946" lon="-0.33573">
        <ele>101</ele>
        <time>2012-09-02T16:04:09Z</time>
      </trkpt>
      <trkpt lat="44.75948" lon="-0.33557">
        <ele>101</ele>
        <time>2012-09-02T16:04:12Z</time>
      </trkpt>
      <trkpt lat="44.7595" lon="-0.3354">
        <ele>101</ele>
        <time>2012-09-02T16:04:16Z</time>
      </trkpt>
      <trkpt lat="44.75952" lon="-0.33524">
        <ele>101</ele>
        <time>2012-09-02T16:04:19Z</time>
      </trkpt>
      <trkpt lat="44.75953" lon="-0.33509">
        <ele>101</ele>
        <time>2012-09-02T16:04:22Z</time>
      </trkpt>
      <trkpt lat="44.75955" lon="-0.33495">
        <ele>101</ele>
        <time>2012-09-02T16:04:25Z</time>
      </trkpt>
      <trkpt lat="44.75957" lon="-0.33479">
        <ele>101</ele>
        <time>2012-09-02T16:04:28Z</time>
      </trkpt>
      <trkpt lat="44.75958" lon="-0.33462">
        <ele>102</ele>
        <time>2012-09-02T16:04:31Z</time>
      </trkpt>
      <trkpt lat="44.75958" lon="-0.33445">
        <ele>102</ele>
        <time>2012-09-02T16:04:34Z</time>
      </trkpt>
      <trkpt lat="44.75958" lon="-0.33425">
        <ele>103</ele>
        <time>2012-09-02T16:04:37Z</time>
      </trkpt>
      <trkpt lat="44.75959" lon="-0.3341">
        <ele>103</ele>
        <time>2012-09-02T16:04:39Z</time>
      </trkpt>
      <trkpt lat="44.75959" lon="-0.33394">
        <ele>104</ele>
        <time>2012-09-02T16:04:41Z</time>
      </trkpt>
      <trkpt lat="44.75958" lon="-0.3338">
        <ele>104</ele>
        <time>2012-09-02T16:04:43Z</time>
      </trkpt>
      <trkpt lat="44.75957" lon="-0.33364">
        <ele>104</ele>
        <time>2012-09-02T16:04:45Z</time>
      </trkpt>
      <trkpt lat="44.75957" lon="-0.33351">
        <ele>104</ele>
        <time>2012-09-02T16:04:47Z</time>
      </trkpt>
      <trkpt lat="44.75957" lon="-0.33337">
        <ele>104</ele>
        <time>2012-09-02T16:04:49Z</time>
      </trkpt>
      <trkpt lat="44.75957" lon="-0.33319">
        <ele>105</ele>
        <time>2012-09-02T16:04:52Z</time>
      </trkpt>
      <trkpt lat="44.75957" lon="-0.33303">
        <ele>105</ele>
        <time>2012-09-02T16:04:55Z</time>
      </trkpt>
      <trkpt lat="44.75957" lon="-0.33289">
        <ele>105</ele>
        <time>2012-09-02T16:04:58Z</time>
      </trkpt>
      <trkpt lat="44.75956" lon="-0.33275">
        <ele>105</ele>
        <time>2012-09-02T16:05:01Z</time>
      </trkpt>
      <trkpt lat="44.75954" lon="-0.33261">
        <ele>105</ele>
        <time>2012-09-02T16:05:04Z</time>
      </trkpt>
      <trkpt lat="44.7595" lon="-0.33248">
        <ele>105</ele>
        <time>2012-09-02T16:05:07Z</time>
      </trkpt>
      <trkpt lat="44.75946" lon="-0.33234">
        <ele>105</ele>
        <time>2012-09-02T16:05:10Z</time>
      </trkpt>
      <trkpt lat="44.75941" lon="-0.33219">
        <ele>105</ele>
        <time>2012-09-02T16:05:13Z</time>
      </trkpt>
      <trkpt lat="44.75937" lon="-0.33204">
        <ele>105</ele>
        <time>2012-09-02T16:05:16Z</time>
      </trkpt>
      <trkpt lat="44.75934" lon="-0.3319">
        <ele>105</ele>
        <time>2012-09-02T16:05:19Z</time>
      </trkpt>
      <trkpt lat="44.75931" lon="-0.33176">
        <ele>105</ele>
        <time>2012-09-02T16:05:22Z</time>
      </trkpt>
      <trkpt lat="44.75927" lon="-0.33163">
        <ele>106</ele>
        <time>2012-09-02T16:05:25Z</time>
      </trkpt>
      <trkpt lat="44.75924" lon="-0.33149">
        <ele>106</ele>
        <time>2012-09-02T16:05:29Z</time>
      </trkpt>
      <trkpt lat="44.75919" lon="-0.33134">
        <ele>106</ele>
        <time>2012-09-02T16:05:33Z</time>
      </trkpt>
      <trkpt lat="44.75914" lon="-0.33122">
        <ele>106</ele>
        <time>2012-09-02T16:05:36Z</time>
      </trkpt>
      <trkpt lat="44.75908" lon="-0.3311">
        <ele>106</ele>
        <time>2012-09-02T16:05:39Z</time>
      </trkpt>
      <trkpt lat="44.759" lon="-0.33098">
        <ele>106</ele>
        <time>2012-09-02T16:05:42Z</time>
      </trkpt>
      <trkpt lat="44.75891" lon="-0.33086">
        <ele>106</ele>
        <time>2012-09-02T16:05:45Z</time>
      </trkpt>
      <trkpt lat="44.7588" lon="-0.33074">
        <ele>106</ele>
        <time>2012-09-02T16:05:48Z</time>
      </trkpt>
      <trkpt lat="44.75872" lon="-0.33063">
        <ele>106</ele>
        <time>2012-09-02T16:05:51Z</time>
      </trkpt>
      <trkpt lat="44.75863" lon="-0.33053">
        <ele>106</ele>
        <time>2012-09-02T16:05:54Z</time>
      </trkpt>
      <trkpt lat="44.75855" lon="-0.33044">
        <ele>106</ele>
        <time>2012-09-02T16:05:57Z</time>
      </trkpt>
      <trkpt lat="44.75845" lon="-0.33037">
        <ele>106</ele>
        <time>2012-09-02T16:06:00Z</time>
      </trkpt>
      <trkpt lat="44.75834" lon="-0.3303">
        <ele>106</ele>
        <time>2012-09-02T16:06:04Z</time>
      </trkpt>
      <trkpt lat="44.75831" lon="-0.33017">
        <ele>107</ele>
        <time>2012-09-02T16:06:09Z</time>
      </trkpt>
      <trkpt lat="44.75827" lon="-0.33003">
        <ele>107</ele>
        <time>2012-09-02T16:06:13Z</time>
      </trkpt>
      <trkpt lat="44.75824" lon="-0.32988">
        <ele>107</ele>
        <time>2012-09-02T16:06:17Z</time>
      </trkpt>
      <trkpt lat="44.75821" lon="-0.32975">
        <ele>107</ele>
        <time>2012-09-02T16:06:21Z</time>
      </trkpt>
      <trkpt lat="44.75817" lon="-0.32962">
        <ele>107</ele>
        <time>2012-09-02T16:06:26Z</time>
      </trkpt>
      <trkpt lat="44.75816" lon="-0.32948">
        <ele>107</ele>
        <time>2012-09-02T16:06:31Z</time>
      </trkpt>
      <trkpt lat="44.75813" lon="-0.32935">
        <ele>107</ele>
        <time>2012-09-02T16:06:38Z</time>
      </trkpt>
      <trkpt lat="44.75805" lon="-0.32928">
        <ele>107</ele>
        <time>2012-09-02T16:07:11Z</time>
      </trkpt>
      <trkpt lat="44.75794" lon="-0.32927">
        <ele>107</ele>
        <time>2012-09-02T16:07:15Z</time>
      </trkpt>
      <trkpt lat="44.75782" lon="-0.32925">
        <ele>107</ele>
        <time>2012-09-02T16:07:19Z</time>
      </trkpt>
      <trkpt lat="44.75772" lon="-0.32923">
        <ele>107</ele>
        <time>2012-09-02T16:07:22Z</time>
      </trkpt>
      <trkpt lat="44.75761" lon="-0.3292">
        <ele>107</ele>
        <time>2012-09-02T16:07:25Z</time>
      </trkpt>
      <trkpt lat="44.75749" lon="-0.32913">
        <ele>107</ele>
        <time>2012-09-02T16:07:28Z</time>
      </trkpt>
      <trkpt lat="44.75738" lon="-0.32904">
        <ele>107</ele>
        <time>2012-09-02T16:07:31Z</time>
      </trkpt>
      <trkpt lat="44.75728" lon="-0.32893">
        <ele>107</ele>
        <time>2012-09-02T16:07:34Z</time>
      </trkpt>
      <trkpt lat="44.75717" lon="-0.3288">
        <ele>107</ele>
        <time>2012-09-02T16:07:37Z</time>
      </trkpt>
      <trkpt lat="44.75708" lon="-0.3287">
        <ele>107</ele>
        <time>2012-09-02T16:07:39Z</time>
      </trkpt>
      <trkpt lat="44.757" lon="-0.3286">
        <ele>107</ele>
        <time>2012-09-02T16:07:41Z</time>
      </trkpt>
      <trkpt lat="44.75692" lon="-0.32852">
        <ele>107</ele>
        <time>2012-09-02T16:07:43Z</time>
      </trkpt>
      <trkpt lat="44.7568" lon="-0.32845">
        <ele>107</ele>
        <time>2012-09-02T16:07:46Z</time>
      </trkpt>
      <trkpt lat="44.75675" lon="-0.32831">
        <ele>107</ele>
        <time>2012-09-02T16:07:50Z</time>
      </trkpt>
      <trkpt lat="44.75684" lon="-0.3282">
        <ele>106</ele>
        <time>2012-09-02T16:07:53Z</time>
      </trkpt>
      <trkpt lat="44.75692" lon="-0.32813">
        <ele>106</ele>
        <time>2012-09-02T16:07:55Z</time>
      </trkpt>
      <trkpt lat="44.75701" lon="-0.32805">
        <ele>105</ele>
        <time>2012-09-02T16:07:57Z</time>
      </trkpt>
      <trkpt lat="44.75711" lon="-0.32797">
        <ele>105</ele>
        <time>2012-09-02T16:07:59Z</time>
      </trkpt>
      <trkpt lat="44.7572" lon="-0.32789">
        <ele>104</ele>
        <time>2012-09-02T16:08:01Z</time>
      </trkpt>
      <trkpt lat="44.7573" lon="-0.32779">
        <ele>104</ele>
        <time>2012-09-02T16:08:03Z</time>
      </trkpt>
      <trkpt lat="44.75741" lon="-0.32764">
        <ele>103</ele>
        <time>2012-09-02T16:08:05Z</time>
      </trkpt>
      <trkpt lat="44.75751" lon="-0.32747">
        <ele>102</ele>
        <time>2012-09-02T16:08:07Z</time>
      </trkpt>
      <trkpt lat="44.7576" lon="-0.32727">
        <ele>102</ele>
        <time>2012-09-02T16:08:09Z</time>
      </trkpt>
      <trkpt lat="44.75767" lon="-0.32704">
        <ele>101</ele>
        <time>2012-09-02T16:08:11Z</time>
      </trkpt>
      <trkpt lat="44.75774" lon="-0.32681">
        <ele>101</ele>
        <time>2012-09-02T16:08:13Z</time>
      </trkpt>
      <trkpt lat="44.75778" lon="-0.32668">
        <ele>101</ele>
        <time>2012-09-02T16:08:14Z</time>
      </trkpt>
      <trkpt lat="44.75782" lon="-0.32656">
        <ele>101</ele>
        <time>2012-09-02T16:08:15Z</time>
      </trkpt>
      <trkpt lat="44.75786" lon="-0.32643">
        <ele>101</ele>
        <time>2012-09-02T16:08:16Z</time>
      </trkpt>
      <trkpt lat="44.75791" lon="-0.3263">
        <ele>101</ele>
        <time>2012-09-02T16:08:17Z</time>
      </trkpt>
      <trkpt lat="44.75795" lon="-0.32618">
        <ele>102</ele>
        <time>2012-09-02T16:08:18Z</time>
      </trkpt>
      <trkpt lat="44.75799" lon="-0.32606">
        <ele>102</ele>
        <time>2012-09-02T16:08:19Z</time>
      </trkpt>
      <trkpt lat="44.75804" lon="-0.32594">
        <ele>102</ele>
        <time>2012-09-02T16:08:20Z</time>
      </trkpt>
      <trkpt lat="44.75808" lon="-0.32581">
        <ele>103</ele>
        <time>2012-09-02T16:08:21Z</time>
      </trkpt>
      <trkpt lat="44.75816" lon="-0.32558">
        <ele>104</ele>
        <time>2012-09-02T16:08:23Z</time>
      </trkpt>
      <trkpt lat="44.7582" lon="-0.32545">
        <ele>104</ele>
        <time>2012-09-02T16:08:24Z</time>
      </trkpt>
      <trkpt lat="44.75829" lon="-0.32523">
        <ele>104</ele>
        <time>2012-09-02T16:08:26Z</time>
      </trkpt>
      <trkpt lat="44.75832" lon="-0.3251">
        <ele>104</ele>
        <time>2012-09-02T16:08:27Z</time>
      </trkpt>
      <trkpt lat="44.7584" lon="-0.32487">
        <ele>104</ele>
        <time>2012-09-02T16:08:29Z</time>
      </trkpt>
      <trkpt lat="44.75845" lon="-0.32464">
        <ele>105</ele>
        <time>2012-09-02T16:08:31Z</time>
      </trkpt>
      <trkpt lat="44.75852" lon="-0.32441">
        <ele>105</ele>
        <time>2012-09-02T16:08:33Z</time>
      </trkpt>
      <trkpt lat="44.75857" lon="-0.32418">
        <ele>105</ele>
        <time>2012-09-02T16:08:35Z</time>
      </trkpt>
      <trkpt lat="44.75861" lon="-0.32397">
        <ele>105</ele>
        <time>2012-09-02T16:08:37Z</time>
      </trkpt>
      <trkpt lat="44.75864" lon="-0.32376">
        <ele>105</ele>
        <time>2012-09-02T16:08:39Z</time>
      </trkpt>
      <trkpt lat="44.75868" lon="-0.32356">
        <ele>105</ele>
        <time>2012-09-02T16:08:41Z</time>
      </trkpt>
      <trkpt lat="44.75871" lon="-0.32338">
        <ele>105</ele>
        <time>2012-09-02T16:08:43Z</time>
      </trkpt>
      <trkpt lat="44.75875" lon="-0.3232">
        <ele>106</ele>
        <time>2012-09-02T16:08:45Z</time>
      </trkpt>
      <trkpt lat="44.75879" lon="-0.32302">
        <ele>106</ele>
        <time>2012-09-02T16:08:47Z</time>
      </trkpt>
      <trkpt lat="44.75883" lon="-0.32285">
        <ele>106</ele>
        <time>2012-09-02T16:08:49Z</time>
      </trkpt>
      <trkpt lat="44.75888" lon="-0.32269">
        <ele>107</ele>
        <time>2012-09-02T16:08:51Z</time>
      </trkpt>
      <trkpt lat="44.75893" lon="-0.32254">
        <ele>107</ele>
        <time>2012-09-02T16:08:53Z</time>
      </trkpt>
      <trkpt lat="44.75899" lon="-0.3224">
        <ele>107</ele>
        <time>2012-09-02T16:08:55Z</time>
      </trkpt>
      <trkpt lat="44.75904" lon="-0.32226">
        <ele>107</ele>
        <time>2012-09-02T16:08:57Z</time>
      </trkpt>
      <trkpt lat="44.7591" lon="-0.32212">
        <ele>107</ele>
        <time>2012-09-02T16:08:59Z</time>
      </trkpt>
      <trkpt lat="44.75914" lon="-0.32197">
        <ele>107</ele>
        <time>2012-09-02T16:09:01Z</time>
      </trkpt>
      <trkpt lat="44.75918" lon="-0.32181">
        <ele>107</ele>
        <time>2012-09-02T16:09:03Z</time>
      </trkpt>
      <trkpt lat="44.75921" lon="-0.32165">
        <ele>107</ele>
        <time>2012-09-02T16:09:05Z</time>
      </trkpt>
      <trkpt lat="44.75923" lon="-0.32148">
        <ele>107</ele>
        <time>2012-09-02T16:09:07Z</time>
      </trkpt>
      <trkpt lat="44.75925" lon="-0.32132">
        <ele>107</ele>
        <time>2012-09-02T16:09:09Z</time>
      </trkpt>
      <trkpt lat="44.75926" lon="-0.32115">
        <ele>107</ele>
        <time>2012-09-02T16:09:11Z</time>
      </trkpt>
      <trkpt lat="44.75927" lon="-0.32099">
        <ele>107</ele>
        <time>2012-09-02T16:09:13Z</time>
      </trkpt>
      <trkpt lat="44.75929" lon="-0.32082">
        <ele>107</ele>
        <time>2012-09-02T16:09:15Z</time>
      </trkpt>
      <trkpt lat="44.75929" lon="-0.32065">
        <ele>107</ele>
        <time>2012-09-02T16:09:17Z</time>
      </trkpt>
      <trkpt lat="44.7593" lon="-0.32049">
        <ele>107</ele>
        <time>2012-09-02T16:09:19Z</time>
      </trkpt>
      <trkpt lat="44.75932" lon="-0.32031">
        <ele>107</ele>
        <time>2012-09-02T16:09:21Z</time>
      </trkpt>
      <trkpt lat="44.75932" lon="-0.32014">
        <ele>107</ele>
        <time>2012-09-02T16:09:23Z</time>
      </trkpt>
      <trkpt lat="44.75933" lon="-0.31997">
        <ele>108</ele>
        <time>2012-09-02T16:09:25Z</time>
      </trkpt>
      <trkpt lat="44.75934" lon="-0.3198">
        <ele>108</ele>
        <time>2012-09-02T16:09:27Z</time>
      </trkpt>
      <trkpt lat="44.75934" lon="-0.31962">
        <ele>108</ele>
        <time>2012-09-02T16:09:29Z</time>
      </trkpt>
      <trkpt lat="44.75933" lon="-0.31944">
        <ele>108</ele>
        <time>2012-09-02T16:09:31Z</time>
      </trkpt>
      <trkpt lat="44.75932" lon="-0.31925">
        <ele>107</ele>
        <time>2012-09-02T16:09:33Z</time>
      </trkpt>
      <trkpt lat="44.75932" lon="-0.31907">
        <ele>107</ele>
        <time>2012-09-02T16:09:35Z</time>
      </trkpt>
      <trkpt lat="44.7593" lon="-0.31888">
        <ele>107</ele>
        <time>2012-09-02T16:09:37Z</time>
      </trkpt>
      <trkpt lat="44.7593" lon="-0.3187">
        <ele>107</ele>
        <time>2012-09-02T16:09:39Z</time>
      </trkpt>
      <trkpt lat="44.75929" lon="-0.31851">
        <ele>107</ele>
        <time>2012-09-02T16:09:41Z</time>
      </trkpt>
      <trkpt lat="44.7593" lon="-0.31832">
        <ele>107</ele>
        <time>2012-09-02T16:09:43Z</time>
      </trkpt>
      <trkpt lat="44.75932" lon="-0.31814">
        <ele>107</ele>
        <time>2012-09-02T16:09:45Z</time>
      </trkpt>
      <trkpt lat="44.75934" lon="-0.31795">
        <ele>108</ele>
        <time>2012-09-02T16:09:47Z</time>
      </trkpt>
      <trkpt lat="44.75937" lon="-0.31777">
        <ele>108</ele>
        <time>2012-09-02T16:09:49Z</time>
      </trkpt>
      <trkpt lat="44.75941" lon="-0.31758">
        <ele>108</ele>
        <time>2012-09-02T16:09:51Z</time>
      </trkpt>
      <trkpt lat="44.75945" lon="-0.31741">
        <ele>109</ele>
        <time>2012-09-02T16:09:53Z</time>
      </trkpt>
      <trkpt lat="44.75949" lon="-0.31724">
        <ele>109</ele>
        <time>2012-09-02T16:09:55Z</time>
      </trkpt>
      <trkpt lat="44.75954" lon="-0.31708">
        <ele>109</ele>
        <time>2012-09-02T16:09:57Z</time>
      </trkpt>
      <trkpt lat="44.75961" lon="-0.31693">
        <ele>109</ele>
        <time>2012-09-02T16:09:59Z</time>
      </trkpt>
      <trkpt lat="44.75969" lon="-0.31679">
        <ele>109</ele>
        <time>2012-09-02T16:10:01Z</time>
      </trkpt>
      <trkpt lat="44.75978" lon="-0.31666">
        <ele>108</ele>
        <time>2012-09-02T16:10:03Z</time>
      </trkpt>
      <trkpt lat="44.75985" lon="-0.31651">
        <ele>108</ele>
        <time>2012-09-02T16:10:05Z</time>
      </trkpt>
      <trkpt lat="44.75992" lon="-0.31635">
        <ele>108</ele>
        <time>2012-09-02T16:10:07Z</time>
      </trkpt>
      <trkpt lat="44.75996" lon="-0.31618">
        <ele>108</ele>
        <time>2012-09-02T16:10:09Z</time>
      </trkpt>
      <trkpt lat="44.75998" lon="-0.316">
        <ele>108</ele>
        <time>2012-09-02T16:10:11Z</time>
      </trkpt>
      <trkpt lat="44.76" lon="-0.31582">
        <ele>108</ele>
        <time>2012-09-02T16:10:13Z</time>
      </trkpt>
      <trkpt lat="44.76002" lon="-0.31564">
        <ele>107</ele>
        <time>2012-09-02T16:10:15Z</time>
      </trkpt>
      <trkpt lat="44.76004" lon="-0.31547">
        <ele>107</ele>
        <time>2012-09-02T16:10:17Z</time>
      </trkpt>
      <trkpt lat="44.76006" lon="-0.31529">
        <ele>107</ele>
        <time>2012-09-02T16:10:19Z</time>
      </trkpt>
      <trkpt lat="44.76008" lon="-0.31511">
        <ele>107</ele>
        <time>2012-09-02T16:10:21Z</time>
      </trkpt>
      <trkpt lat="44.7601" lon="-0.31494">
        <ele>107</ele>
        <time>2012-09-02T16:10:23Z</time>
      </trkpt>
      <trkpt lat="44.76012" lon="-0.31476">
        <ele>107</ele>
        <time>2012-09-02T16:10:25Z</time>
      </trkpt>
      <trkpt lat="44.76014" lon="-0.31459">
        <ele>108</ele>
        <time>2012-09-02T16:10:27Z</time>
      </trkpt>
      <trkpt lat="44.76016" lon="-0.31442">
        <ele>108</ele>
        <time>2012-09-02T16:10:29Z</time>
      </trkpt>
      <trkpt lat="44.76017" lon="-0.31426">
        <ele>108</ele>
        <time>2012-09-02T16:10:31Z</time>
      </trkpt>
      <trkpt lat="44.76019" lon="-0.31411">
        <ele>109</ele>
        <time>2012-09-02T16:10:33Z</time>
      </trkpt>
      <trkpt lat="44.76021" lon="-0.31395">
        <ele>109</ele>
        <time>2012-09-02T16:10:35Z</time>
      </trkpt>
      <trkpt lat="44.76023" lon="-0.31382">
        <ele>109</ele>
        <time>2012-09-02T16:10:37Z</time>
      </trkpt>
      <trkpt lat="44.76019" lon="-0.31369">
        <ele>110</ele>
        <time>2012-09-02T16:10:39Z</time>
      </trkpt>
      <trkpt lat="44.76008" lon="-0.31364">
        <ele>110</ele>
        <time>2012-09-02T16:10:41Z</time>
      </trkpt>
      <trkpt lat="44.75995" lon="-0.31364">
        <ele>110</ele>
        <time>2012-09-02T16:10:43Z</time>
      </trkpt>
      <trkpt lat="44.75982" lon="-0.31362">
        <ele>110</ele>
        <time>2012-09-02T16:10:45Z</time>
      </trkpt>
      <trkpt lat="44.75969" lon="-0.31361">
        <ele>110</ele>
        <time>2012-09-02T16:10:47Z</time>
      </trkpt>
      <trkpt lat="44.75955" lon="-0.31358">
        <ele>110</ele>
        <time>2012-09-02T16:10:49Z</time>
      </trkpt>
      <trkpt lat="44.75942" lon="-0.31356">
        <ele>110</ele>
        <time>2012-09-02T16:10:51Z</time>
      </trkpt>
      <trkpt lat="44.75929" lon="-0.31353">
        <ele>110</ele>
        <time>2012-09-02T16:10:53Z</time>
      </trkpt>
      <trkpt lat="44.75917" lon="-0.31349">
        <ele>110</ele>
        <time>2012-09-02T16:10:55Z</time>
      </trkpt>
      <trkpt lat="44.75904" lon="-0.31348">
        <ele>110</ele>
        <time>2012-09-02T16:10:57Z</time>
      </trkpt>
      <trkpt lat="44.75891" lon="-0.31345">
        <ele>110</ele>
        <time>2012-09-02T16:10:59Z</time>
      </trkpt>
      <trkpt lat="44.75878" lon="-0.31343">
        <ele>110</ele>
        <time>2012-09-02T16:11:01Z</time>
      </trkpt>
      <trkpt lat="44.75864" lon="-0.31341">
        <ele>110</ele>
        <time>2012-09-02T16:11:03Z</time>
      </trkpt>
      <trkpt lat="44.75851" lon="-0.31338">
        <ele>109</ele>
        <time>2012-09-02T16:11:05Z</time>
      </trkpt>
      <trkpt lat="44.75838" lon="-0.31336">
        <ele>109</ele>
        <time>2012-09-02T16:11:07Z</time>
      </trkpt>
      <trkpt lat="44.75822" lon="-0.31334">
        <ele>108</ele>
        <time>2012-09-02T16:11:09Z</time>
      </trkpt>
      <trkpt lat="44.75804" lon="-0.31331">
        <ele>108</ele>
        <time>2012-09-02T16:11:11Z</time>
      </trkpt>
      <trkpt lat="44.75794" lon="-0.31329">
        <ele>107</ele>
        <time>2012-09-02T16:11:12Z</time>
      </trkpt>
      <trkpt lat="44.75784" lon="-0.31327">
        <ele>107</ele>
        <time>2012-09-02T16:11:13Z</time>
      </trkpt>
      <trkpt lat="44.75774" lon="-0.31325">
        <ele>106</ele>
        <time>2012-09-02T16:11:14Z</time>
      </trkpt>
      <trkpt lat="44.75763" lon="-0.31323">
        <ele>106</ele>
        <time>2012-09-02T16:11:15Z</time>
      </trkpt>
      <trkpt lat="44.75752" lon="-0.31321">
        <ele>105</ele>
        <time>2012-09-02T16:11:16Z</time>
      </trkpt>
      <trkpt lat="44.7574" lon="-0.31319">
        <ele>105</ele>
        <time>2012-09-02T16:11:17Z</time>
      </trkpt>
      <trkpt lat="44.75727" lon="-0.31317">
        <ele>105</ele>
        <time>2012-09-02T16:11:18Z</time>
      </trkpt>
      <trkpt lat="44.75714" lon="-0.31315">
        <ele>104</ele>
        <time>2012-09-02T16:11:19Z</time>
      </trkpt>
      <trkpt lat="44.75702" lon="-0.31314">
        <ele>104</ele>
        <time>2012-09-02T16:11:20Z</time>
      </trkpt>
      <trkpt lat="44.7569" lon="-0.31313">
        <ele>104</ele>
        <time>2012-09-02T16:11:21Z</time>
      </trkpt>
      <trkpt lat="44.7568" lon="-0.31309">
        <ele>103</ele>
        <time>2012-09-02T16:11:22Z</time>
      </trkpt>
      <trkpt lat="44.75669" lon="-0.31308">
        <ele>102</ele>
        <time>2012-09-02T16:11:23Z</time>
      </trkpt>
      <trkpt lat="44.75652" lon="-0.31305">
        <ele>102</ele>
        <time>2012-09-02T16:11:25Z</time>
      </trkpt>
      <trkpt lat="44.75637" lon="-0.31302">
        <ele>102</ele>
        <time>2012-09-02T16:11:27Z</time>
      </trkpt>
      <trkpt lat="44.75624" lon="-0.31293">
        <ele>102</ele>
        <time>2012-09-02T16:11:29Z</time>
      </trkpt>
      <trkpt lat="44.7561" lon="-0.31285">
        <ele>102</ele>
        <time>2012-09-02T16:11:31Z</time>
      </trkpt>
      <trkpt lat="44.75598" lon="-0.31278">
        <ele>102</ele>
        <time>2012-09-02T16:11:33Z</time>
      </trkpt>
      <trkpt lat="44.75587" lon="-0.31274">
        <ele>102</ele>
        <time>2012-09-02T16:11:35Z</time>
      </trkpt>
      <trkpt lat="44.75575" lon="-0.3127">
        <ele>102</ele>
        <time>2012-09-02T16:11:38Z</time>
      </trkpt>
      <trkpt lat="44.75564" lon="-0.31269">
        <ele>102</ele>
        <time>2012-09-02T16:11:41Z</time>
      </trkpt>
      <trkpt lat="44.75557" lon="-0.31255">
        <ele>103</ele>
        <time>2012-09-02T16:11:45Z</time>
      </trkpt>
      <trkpt lat="44.75553" lon="-0.31242">
        <ele>103</ele>
        <time>2012-09-02T16:11:51Z</time>
      </trkpt>
      <trkpt lat="44.75539" lon="-0.31238">
        <ele>102</ele>
        <time>2012-09-02T16:11:57Z</time>
      </trkpt>
      <trkpt lat="44.7553" lon="-0.31238">
        <ele>102</ele>
        <time>2012-09-02T16:12:10Z</time>
      </trkpt>
      <trkpt lat="44.7552" lon="-0.31238">
        <ele>101</ele>
        <time>2012-09-02T16:12:41Z</time>
      </trkpt>
    </trkseg>
  </trk>
</gpx>